Darstellungsparameter: Aktuell verwendete Einstellungen:
Skalierung der Graphiken ... ?
xyx+y,   Skalierungsfaktor:      Skalierung: Modus: x, Faktor: 1
Darstellungszeitraum ... ?
Vom - - bis: - -   Zeitraum: 02.12.2019 - 31.05.2020
Min/Max/Avg-Anzeige ... ?
Zeige MMA aktuell
Zeige MMA Monat
Zeige MMA alles
Zeige --A aktuell
Zeige --A Monat
Zeige --A alles
Keine MMA-Anzeige
MMA:
Minimum Maximum Average (ber die Originaldaten)
MMA-Basis: 14.04.2020 - 16.05.2020
Quicknavigation für Darstellung... ?
Tage:      1T, 2T, 3T, 5T -1T -2T -3T -5T +1T +2T +3T +5T
Wochen: 1W, 2W, 3W -1W -2W -3W +1W +2W +3W
Monate: 1M, 3M, 6M -1M -3M -6M +1M +3M +6M
Jahre:    1J, 3J, 5J, 10J -1J -3J -5J -10J +1J +3J +5J +10J
Nutze für die Darstellung ... ?
Originaldaten oder ...
Mittelwerte Minima Maxima auf...
Stundenbasis Tagesbasis Wochenbasis
Monatsbasis Jahresbasis      Datenbasis: Mittelwerte auf Stundenbasis
Darstellen als:
Statistik (Auto) Statistik J:M      Darstellung:
Zur Graphik,    zurück zur Übersicht aller Sensoren.
 
Tabellarische Datenbersicht: ?
 
Sensor: Nr:Datum:Temp:Abs-Feuchte:Windchill:Wind:
Aussen-T/F 1 02-12-2019 00:00:00 0.775 C 4.7 g/m*3 0.78 C 0.66667 km/h
2 02-12-2019 01:00:00 0.63333 C 4.71 g/m*3 0.63 C 0.4 km/h
3 02-12-2019 02:00:00 0.09167 C 4.53 g/m*3 0.09 C 1.6 km/h
4 02-12-2019 03:00:00 -0.36667 C 4.41 g/m*3 -0.37 C 2.13333 km/h
5 02-12-2019 04:00:00 -0.44167 C 4.44 g/m*3 -0.44 C 0.53333 km/h
6 02-12-2019 05:00:00 -0.35 C 4.48 g/m*3 -0.35 C 0.26667 km/h
7 02-12-2019 06:00:00 -0.6 C 4.42 g/m*3 -0.6 C 1.06667 km/h
8 02-12-2019 07:00:00 -1.15833 C 4.24 g/m*3 -1.16 C 0.26667 km/h
9 02-12-2019 08:00:00 -0.65 C 4.43 g/m*3 -0.65 C 1.06667 km/h
10 02-12-2019 09:00:00 0.26667 C 4.71 g/m*3 0.27 C 4.26667 km/h
11 02-12-2019 10:00:00 0.85 C 4.84 g/m*3 -0.66 C 5.08333 km/h
12 02-12-2019 11:00:00 1.58333 C 4.99 g/m*3 1.58 C 4.41667 km/h
13 02-12-2019 12:00:00 2.78333 C 5.31 g/m*3 2.78 C 4.69167 km/h
14 02-12-2019 13:00:00 3.95 C 5.54 g/m*3 2.76 C 5.34167 km/h
15 02-12-2019 14:00:00 4.725 C 5.91 g/m*3 4.72 C 4.55 km/h
16 02-12-2019 15:00:00 5.19167 C 6.12 g/m*3 5.19 C 1.2 km/h
17 02-12-2019 16:00:00 4.675 C 6.12 g/m*3 4.68 C 2.8 km/h
18 02-12-2019 17:00:00 4.20833 C 6 g/m*3 4.21 C 1.6 km/h
19 02-12-2019 18:00:00 3.875 C 5.88 g/m*3 3.88 C 0.53333 km/h
20 02-12-2019 19:00:00 3.425 C 5.78 g/m*3 3.43 C 0.93333 km/h
21 02-12-2019 20:00:00 3.7 C 5.92 g/m*3 3.7 C 1.73333 km/h
22 02-12-2019 21:00:00 3.63333 C 5.89 g/m*3 3.63 C 4.825 km/h
23 02-12-2019 22:00:00 3.475 C 5.89 g/m*3 3.48 C 4.40833 km/h
24 02-12-2019 23:00:00 3.4 C 5.86 g/m*3 3.4 C 3.475 km/h
25 03-12-2019 00:00:00 3.40833 C 5.87 g/m*3 1.52 C 7.11667 km/h
Sensor: Nr:Datum:Temp:Abs-Feuchte:Windchill:Wind:
Aussen-T/F 26 03-12-2019 01:00:00 3.55833 C 5.93 g/m*3 3.56 C 4.80833 km/h
27 03-12-2019 02:00:00 3.71667 C 5.99 g/m*3 3.72 C 2.00833 km/h
28 03-12-2019 03:00:00 3.8 C 6.04 g/m*3 2.63 C 5.21667 km/h
29 03-12-2019 04:00:00 3.89167 C 6.11 g/m*3 2.26 C 6.56667 km/h
30 03-12-2019 05:00:00 4.01667 C 6.17 g/m*3 4.02 C 4.275 km/h
31 03-12-2019 06:00:00 4.1 C 6.21 g/m*3 4.1 C 1.73333 km/h
32 03-12-2019 07:00:00 4.19167 C 6.25 g/m*3 4.19 C 4.00833 km/h
33 03-12-2019 08:00:00 4.23333 C 6.26 g/m*3 2.97 C 5.625 km/h
34 03-12-2019 09:00:00 4.35 C 6.31 g/m*3 4.35 C 4.94167 km/h
35 03-12-2019 10:00:00 4.61667 C 6.43 g/m*3 3.46 C 5.49167 km/h
36 03-12-2019 11:00:00 5.11667 C 6.64 g/m*3 5.12 C 3.2 km/h
37 03-12-2019 12:00:00 5.6 C 6.86 g/m*3 5.6 C 3.46667 km/h
38 03-12-2019 13:00:00 6.06667 C 7 g/m*3 6.07 C 4.26667 km/h
39 03-12-2019 14:00:00 6.51667 C 7.13 g/m*3 6.52 C 1.06667 km/h
40 03-12-2019 15:00:00 6.675 C 7.13 g/m*3 6.68 C 0 km/h
41 03-12-2019 16:00:00 6.46667 C 7.07 g/m*3 6.47 C 0 km/h
42 03-12-2019 17:00:00 5.98333 C 6.89 g/m*3 5.98 C 0 km/h
43 03-12-2019 18:00:00 5.56667 C 6.71 g/m*3 5.57 C 0 km/h
44 03-12-2019 19:00:00 5.29167 C 6.62 g/m*3 5.29 C 0.66667 km/h
45 03-12-2019 20:00:00 4.93333 C 6.48 g/m*3 4.93 C 0 km/h
46 03-12-2019 21:00:00 4.6 C 6.34 g/m*3 4.6 C 0 km/h
47 03-12-2019 22:00:00 4.00833 C 6.09 g/m*3 4.01 C 2.4 km/h
48 03-12-2019 23:00:00 3.46667 C 5.87 g/m*3 3.47 C 2.93333 km/h
49 04-12-2019 00:00:00 2.41667 C 5.43 g/m*3 2.42 C 0.4 km/h
50 04-12-2019 01:00:00 1.24167 C 5.04 g/m*3 1.24 C 0 km/h
Sensor: Nr:Datum:Temp:Abs-Feuchte:Windchill:Wind:
Aussen-T/F 51 04-12-2019 02:00:00 0.90833 C 4.95 g/m*3 0.91 C 0 km/h
52 04-12-2019 03:00:00 1.64167 C 5.26 g/m*3 1.64 C 0 km/h
53 04-12-2019 04:00:00 1.74167 C 5.3 g/m*3 1.74 C 0 km/h
54 04-12-2019 05:00:00 1.74167 C 5.3 g/m*3 1.74 C 0 km/h
55 04-12-2019 06:00:00 1.93333 C 5.37 g/m*3 1.93 C 0.26667 km/h
56 04-12-2019 07:00:00 1.81667 C 5.32 g/m*3 1.82 C 0.26667 km/h
57 04-12-2019 08:00:00 1.725 C 5.29 g/m*3 1.73 C 0.13333 km/h
58 04-12-2019 09:00:00 1.8 C 5.32 g/m*3 1.8 C 1.06667 km/h
59 04-12-2019 10:00:00 1.83333 C 5.33 g/m*3 1.83 C 1.33333 km/h
60 04-12-2019 11:00:00 1.83333 C 5.32 g/m*3 1.83 C 0 km/h
61 04-12-2019 12:00:00 2.15 C 5.45 g/m*3 2.15 C 0.4 km/h
62 04-12-2019 13:00:00 2.51667 C 5.58 g/m*3 2.52 C 1.46667 km/h
63 04-12-2019 14:00:00 2.825 C 5.68 g/m*3 2.83 C 2.26667 km/h
64 04-12-2019 15:00:00 2.58333 C 5.55 g/m*3 2.58 C 0 km/h
65 04-12-2019 16:00:00 2.025 C 5.32 g/m*3 2.03 C 1.06667 km/h
66 04-12-2019 17:00:00 1.43333 C 5.12 g/m*3 1.43 C 0 km/h
67 04-12-2019 18:00:00 1.10833 C 5.01 g/m*3 1.11 C 0 km/h
68 04-12-2019 19:00:00 0.41667 C 4.77 g/m*3 0.42 C 0 km/h
69 04-12-2019 20:00:00 -0.08333 C 4.62 g/m*3 -0.08 C 0.4 km/h
70 04-12-2019 21:00:00 -0.58333 C 4.47 g/m*3 -0.58 C 0.26667 km/h
71 04-12-2019 22:00:00 -1.23333 C 4.27 g/m*3 -1.23 C 0 km/h
72 04-12-2019 23:00:00 -1.54167 C 4.18 g/m*3 -1.54 C 0 km/h
73 05-12-2019 00:00:00 -1.775 C 4.11 g/m*3 -1.78 C 0.13333 km/h
74 05-12-2019 01:00:00 -1.78333 C 4.13 g/m*3 -1.78 C 0.13333 km/h
75 05-12-2019 02:00:00 -1.86667 C 4.12 g/m*3 -1.87 C 0 km/h
Sensor: Nr:Datum:Temp:Abs-Feuchte:Windchill:Wind:
Aussen-T/F 76 05-12-2019 03:00:00 -2.225 C 4 g/m*3 -2.23 C 0.66667 km/h
77 05-12-2019 04:00:00 -1.84167 C 4.13 g/m*3 -1.84 C 1.06667 km/h
78 05-12-2019 05:00:00 -1.75833 C 4.16 g/m*3 -1.76 C 0.4 km/h
79 05-12-2019 06:00:00 -1.83333 C 4.14 g/m*3 -1.83 C 0.13333 km/h
80 05-12-2019 07:00:00 -2.03333 C 4.08 g/m*3 -2.03 C 0.26667 km/h
81 05-12-2019 08:00:00 -2.075 C 4.07 g/m*3 -2.08 C 0.13333 km/h
82 05-12-2019 09:00:00 -1.81667 C 4.14 g/m*3 -1.82 C 1.2 km/h
83 05-12-2019 10:00:00 -1.575 C 4.21 g/m*3 -1.58 C 1.06667 km/h
84 05-12-2019 11:00:00 -0.94167 C 4.4 g/m*3 -0.94 C 2.13333 km/h
85 05-12-2019 12:00:00 -0.44167 C 4.56 g/m*3 -0.44 C 1.46667 km/h
86 05-12-2019 13:00:00 0 C 4.7 g/m*3 0 C 3.06667 km/h
87 05-12-2019 14:00:00 0.6 C 4.9 g/m*3 0.6 C 2.4 km/h
88 05-12-2019 15:00:00 0.675 C 4.92 g/m*3 0.68 C 1.6 km/h
89 05-12-2019 16:00:00 0.29167 C 4.8 g/m*3 0.29 C 0 km/h
90 05-12-2019 17:00:00 -0.225 C 4.63 g/m*3 -0.23 C 0 km/h
91 05-12-2019 18:00:00 -0.825 C 4.44 g/m*3 -0.83 C 0.26667 km/h
92 05-12-2019 19:00:00 -1.25833 C 4.31 g/m*3 -1.26 C 1.46667 km/h
93 05-12-2019 20:00:00 -0.65833 C 4.5 g/m*3 -0.66 C 3.75 km/h
94 05-12-2019 21:00:00 -1.16667 C 4.33 g/m*3 -1.17 C 1.86667 km/h
95 05-12-2019 22:00:00 -1.39167 C 4.27 g/m*3 -1.39 C 1.73333 km/h
96 05-12-2019 23:00:00 -1.825 C 4.14 g/m*3 -1.83 C 0.8 km/h
97 06-12-2019 00:00:00 -2.28333 C 4.01 g/m*3 -2.28 C 0.8 km/h
98 06-12-2019 01:00:00 -1.125 C 4.36 g/m*3 -1.13 C 2.66667 km/h
99 06-12-2019 02:00:00 -0.575 C 4.52 g/m*3 -2.41 C 5.35833 km/h
100 06-12-2019 03:00:00 -0.225 C 4.6 g/m*3 -1.89 C 5.09167 km/h
Sensor: Nr:Datum:Temp:Abs-Feuchte:Windchill:Wind:
Aussen-T/F 101 06-12-2019 04:00:00 -0.10833 C 4.6 g/m*3 -0.11 C 3.75 km/h
102 06-12-2019 05:00:00 0.13333 C 4.65 g/m*3 0.13 C 3.475 km/h
103 06-12-2019 06:00:00 0.36667 C 4.7 g/m*3 0.37 C 3.48333 km/h
104 06-12-2019 07:00:00 0.725 C 4.79 g/m*3 0.73 C 4.41667 km/h
105 06-12-2019 08:00:00 1.31667 C 4.89 g/m*3 1.32 C 4.3 km/h
106 06-12-2019 09:00:00 1.89167 C 5.11 g/m*3 0.3 C 5.625 km/h
107 06-12-2019 10:00:00 2.65 C 5.43 g/m*3 2.65 C 2 km/h
108 06-12-2019 11:00:00 3.86667 C 5.92 g/m*3 2.55 C 5.63333 km/h
109 06-12-2019 12:00:00 4.7 C 6.23 g/m*3 3.32 C 6.16667 km/h
110 06-12-2019 13:00:00 4.95833 C 6.44 g/m*3 3.49 C 6.56667 km/h
111 06-12-2019 14:00:00 5.25833 C 6.57 g/m*3 5.26 C 2.53333 km/h
112 06-12-2019 15:00:00 5.44167 C 6.65 g/m*3 4.4 C 5.5 km/h
113 06-12-2019 16:00:00 5.95833 C 6.77 g/m*3 3.76 C 10.20833 km/h
114 06-12-2019 17:00:00 6.225 C 6.7 g/m*3 4.59 C 7.925 km/h
115 06-12-2019 18:00:00 6.65 C 6.82 g/m*3 4.51 C 10.61667 km/h
116 06-12-2019 19:00:00 6.91667 C 6.95 g/m*3 4.01 C 15.7 km/h
117 06-12-2019 20:00:00 7.28333 C 7.02 g/m*3 3.97 C 19.84167 km/h
118 06-12-2019 21:00:00 7.19167 C 7.02 g/m*3 3.73 C 20.90833 km/h
119 06-12-2019 22:00:00 7.25 C 7.03 g/m*3 4.03 C 18.91667 km/h
120 06-12-2019 23:00:00 7.44167 C 7.12 g/m*3 5.18 C 12.23333 km/h
121 07-12-2019 00:00:00 7.65 C 7.27 g/m*3 4.92 C 15.70833 km/h
122 07-12-2019 01:00:00 8.09167 C 7.49 g/m*3 6.03 C 11.83333 km/h
123 07-12-2019 02:00:00 8.14167 C 7.7 g/m*3 6.81 C 8.05833 km/h
124 07-12-2019 03:00:00 8.68333 C 7.9 g/m*3 6.68 C 12.225 km/h
125 07-12-2019 04:00:00 8.85833 C 7.8 g/m*3 7.65 C 8.05833 km/h
Sensor: Nr:Datum:Temp:Abs-Feuchte:Windchill:Wind:
Aussen-T/F 126 07-12-2019 05:00:00 8.40833 C 7.74 g/m*3 7.41 C 6.85833 km/h
127 07-12-2019 06:00:00 8.46667 C 7.51 g/m*3 6.89 C 9.53333 km/h
128 07-12-2019 07:00:00 7.675 C 7.26 g/m*3 6.6 C 6.69167 km/h
129 07-12-2019 08:00:00 8.35 C 7.6 g/m*3 7.15 C 7.65833 km/h
130 07-12-2019 09:00:00 8.70833 C 7.77 g/m*3 8.71 C 3.75 km/h
131 07-12-2019 10:00:00 9.19167 C 7.85 g/m*3 7.93 C 8.6 km/h
132 07-12-2019 11:00:00 9.38333 C 8.12 g/m*3 8.95 C 5.35 km/h
133 07-12-2019 12:00:00 9.5 C 7.87 g/m*3 8.21 C 9.025 km/h
134 07-12-2019 13:00:00 10.025 C 7.76 g/m*3 8.65 C 10.08333 km/h
135 07-12-2019 14:00:00 10.15 C 7.79 g/m*3 9.44 C 6.84167 km/h
136 07-12-2019 15:00:00 10.06667 C 7.83 g/m*3 10.07 C 4.00833 km/h
137 07-12-2019 16:00:00 9.39167 C 7.74 g/m*3 9.39 C 1.33333 km/h
138 07-12-2019 17:00:00 8.74167 C 7.68 g/m*3 8.74 C 1.2 km/h
139 07-12-2019 18:00:00 8.40833 C 7.58 g/m*3 8.41 C 1.46667 km/h
140 07-12-2019 19:00:00 8.25 C 7.65 g/m*3 8.25 C 1.33333 km/h
141 07-12-2019 20:00:00 8.01667 C 7.53 g/m*3 8.02 C 0.53333 km/h
142 07-12-2019 21:00:00 8.26667 C 7.6 g/m*3 8.27 C 4.00833 km/h
143 07-12-2019 22:00:00 8.39167 C 7.63 g/m*3 8.39 C 1.34167 km/h
144 07-12-2019 23:00:00 8.2 C 7.65 g/m*3 8.2 C 2.54167 km/h
145 08-12-2019 00:00:00 8.9 C 7.51 g/m*3 7.7 C 8.05 km/h
146 08-12-2019 01:00:00 9.15833 C 7.55 g/m*3 8.35 C 6.575 km/h
147 08-12-2019 02:00:00 9.44167 C 7.31 g/m*3 8.12 C 9.13333 km/h
148 08-12-2019 03:00:00 9.55 C 7.36 g/m*3 7.9 C 11.14167 km/h
149 08-12-2019 04:00:00 9.91667 C 7.7 g/m*3 7.68 C 16.1 km/h
150 08-12-2019 05:00:00 9.89167 C 7.88 g/m*3 7.67 C 15.96667 km/h
Sensor: Nr:Datum:Temp:Abs-Feuchte:Windchill:Wind:
Aussen-T/F 151 08-12-2019 06:00:00 10.08333 C 8.01 g/m*3 7.37 C 21.18333 km/h
152 08-12-2019 07:00:00 10.425 C 8.05 g/m*3 8.22 C 16.9 km/h
153 08-12-2019 08:00:00 10.56667 C 8.15 g/m*3 8 C 21.05 km/h
154 08-12-2019 09:00:00 10.65 C 8.27 g/m*3 7.65 C 26.69167 km/h
155 08-12-2019 10:00:00 10.75833 C 8.45 g/m*3 7.76 C 27.06667 km/h
156 08-12-2019 11:00:00 11.01667 C 8.55 g/m*3 11.02 C 22.39167 km/h
157 08-12-2019 12:00:00 11.54167 C 8.79 g/m*3 11.54 C 21.975 km/h
158 08-12-2019 13:00:00 11.70833 C 9.05 g/m*3 11.71 C 18.375 km/h
159 08-12-2019 14:00:00 11.9 C 9.21 g/m*3 11.9 C 16.23333 km/h
160 08-12-2019 15:00:00 12.09167 C 9.32 g/m*3 12.09 C 15.03333 km/h
161 08-12-2019 16:00:00 11.79167 C 9.27 g/m*3 11.79 C 15.16667 km/h
162 08-12-2019 17:00:00 9.35 C 8.27 g/m*3 8.51 C 6.84167 km/h
163 08-12-2019 18:00:00 8.775 C 8.05 g/m*3 7.78 C 7.09167 km/h
164 08-12-2019 19:00:00 8.75 C 7.87 g/m*3 7.88 C 6.575 km/h
165 08-12-2019 20:00:00 8.48333 C 7.78 g/m*3 7.04 C 8.85833 km/h
166 08-12-2019 21:00:00 8.83333 C 7.59 g/m*3 7.01 C 11.3 km/h
167 08-12-2019 22:00:00 8.80833 C 7.59 g/m*3 6.49 C 14.625 km/h
168 08-12-2019 23:00:00 9.025 C 7.48 g/m*3 6.51 C 16.63333 km/h
169 09-12-2019 00:00:00 8.75833 C 7.16 g/m*3 6.23 C 16.23333 km/h
170 09-12-2019 01:00:00 8.575 C 6.96 g/m*3 5.58 C 19.96667 km/h
171 09-12-2019 02:00:00 7.975 C 6.84 g/m*3 5.34 C 15.56667 km/h
172 09-12-2019 03:00:00 7.95833 C 6.8 g/m*3 5.27 C 15.96667 km/h
173 09-12-2019 04:00:00 8.15 C 6.91 g/m*3 5.06 C 19.85 km/h
174 09-12-2019 05:00:00 7.85833 C 6.54 g/m*3 4.92 C 17.83333 km/h
175 09-12-2019 06:00:00 7.99167 C 6.62 g/m*3 5.07 C 17.96667 km/h
Sensor: Nr:Datum:Temp:Abs-Feuchte:Windchill:Wind:
Aussen-T/F 176 09-12-2019 07:00:00 8.04167 C 6.83 g/m*3 5.31 C 16.49167 km/h
177 09-12-2019 08:00:00 8.26667 C 6.83 g/m*3 5.41 C 17.96667 km/h
178 09-12-2019 09:00:00 8.20833 C 7 g/m*3 5.34 C 17.96667 km/h
179 09-12-2019 10:00:00 8.30833 C 7.11 g/m*3 5.86 C 14.76667 km/h
180 09-12-2019 11:00:00 8.54167 C 7.08 g/m*3 6.2 C 14.36667 km/h
181 09-12-2019 12:00:00 8.5 C 7.09 g/m*3 6.53 C 11.825 km/h
182 09-12-2019 13:00:00 8.63333 C 7.17 g/m*3 6.42 C 13.56667 km/h
183 09-12-2019 14:00:00 8.85 C 7.11 g/m*3 6.95 C 11.83333 km/h
184 09-12-2019 15:00:00 8.15 C 7.08 g/m*3 6.94 C 7.525 km/h
185 09-12-2019 16:00:00 7.75833 C 6.76 g/m*3 6.24 C 8.60833 km/h
186 09-12-2019 17:00:00 7.425 C 6.89 g/m*3 7.43 C 4.80833 km/h
187 09-12-2019 18:00:00 6.84167 C 6.97 g/m*3 5.91 C 5.76667 km/h
188 09-12-2019 19:00:00 6.58333 C 6.98 g/m*3 4.76 C 8.99167 km/h
189 09-12-2019 20:00:00 6.575 C 6.88 g/m*3 3.76 C 14.5 km/h
190 09-12-2019 21:00:00 6.24167 C 6.67 g/m*3 4.07 C 10.35 km/h
191 09-12-2019 22:00:00 5.75 C 6.35 g/m*3 3.43 C 10.61667 km/h
192 09-12-2019 23:00:00 5.39167 C 6.13 g/m*3 3.26 C 9.40833 km/h
193 10-12-2019 00:00:00 4.79167 C 5.85 g/m*3 3.43 C 6.16667 km/h
194 10-12-2019 01:00:00 3.8 C 5.61 g/m*3 3.8 C 3.33333 km/h
195 10-12-2019 02:00:00 3.38333 C 5.49 g/m*3 3.38 C 3.60833 km/h
196 10-12-2019 03:00:00 2.64167 C 5.37 g/m*3 2.64 C 2 km/h
197 10-12-2019 04:00:00 2.025 C 5.21 g/m*3 2.03 C 1.33333 km/h
198 10-12-2019 05:00:00 2.275 C 5.35 g/m*3 2.28 C 2.8 km/h
199 10-12-2019 06:00:00 2.05833 C 5.24 g/m*3 2.06 C 2.93333 km/h
200 10-12-2019 07:00:00 2.075 C 5.28 g/m*3 2.08 C 2.66667 km/h
Sensor: Nr:Datum:Temp:Abs-Feuchte:Windchill:Wind:
Aussen-T/F 201 10-12-2019 08:00:00 1.56667 C 5.1 g/m*3 1.57 C 2.4 km/h
202 10-12-2019 09:00:00 1.95833 C 5.26 g/m*3 1.96 C 2.66667 km/h
203 10-12-2019 10:00:00 3.13333 C 5.62 g/m*3 3.13 C 2.40833 km/h
204 10-12-2019 11:00:00 3.35833 C 5.66 g/m*3 2.02 C 5.49167 km/h
205 10-12-2019 12:00:00 4.475 C 5.89 g/m*3 1.84 C 10.88333 km/h
206 10-12-2019 13:00:00 5.21667 C 6.04 g/m*3 3.7 C 6.85833 km/h
207 10-12-2019 14:00:00 5.00833 C 5.93 g/m*3 5.01 C 3.60833 km/h
208 10-12-2019 15:00:00 4.13333 C 5.71 g/m*3 4.13 C 3.2 km/h
209 10-12-2019 16:00:00 3.84167 C 5.58 g/m*3 3.84 C 3.88333 km/h
210 10-12-2019 17:00:00 3.675 C 5.35 g/m*3 3.68 C 4.95 km/h
211 10-12-2019 18:00:00 2.98333 C 5.26 g/m*3 2.98 C 0.4 km/h
212 10-12-2019 19:00:00 2.44167 C 5.23 g/m*3 2.44 C 0.26667 km/h
213 10-12-2019 20:00:00 3.10833 C 5.41 g/m*3 3.11 C 2.94167 km/h
214 10-12-2019 21:00:00 3.18333 C 5.42 g/m*3 3.18 C 0.66667 km/h
215 10-12-2019 22:00:00 3.08333 C 5.46 g/m*3 3.08 C 1.73333 km/h
216 10-12-2019 23:00:00 3.725 C 5.63 g/m*3 3.73 C 1.06667 km/h
217 11-12-2019 00:00:00 4.05833 C 5.66 g/m*3 4.06 C 1.2 km/h
218 11-12-2019 01:00:00 4.275 C 5.66 g/m*3 4.28 C 0.93333 km/h
219 11-12-2019 02:00:00 4.08333 C 5.73 g/m*3 4.08 C 1.33333 km/h
220 11-12-2019 03:00:00 4.08333 C 5.77 g/m*3 4.08 C 1.33333 km/h
221 11-12-2019 04:00:00 3.81667 C 5.78 g/m*3 3.82 C 0.93333 km/h
222 11-12-2019 05:00:00 3.69167 C 5.83 g/m*3 3.69 C 0 km/h
223 11-12-2019 06:00:00 3.425 C 5.81 g/m*3 3.43 C 0 km/h
224 11-12-2019 07:00:00 3.33333 C 5.78 g/m*3 3.33 C 0 km/h
225 11-12-2019 08:00:00 3.25833 C 5.79 g/m*3 3.26 C 0 km/h
Sensor: Nr:Datum:Temp:Abs-Feuchte:Windchill:Wind:
Aussen-T/F 226 11-12-2019 09:00:00 3.26667 C 5.81 g/m*3 3.27 C 0 km/h
227 11-12-2019 10:00:00 3.54167 C 5.92 g/m*3 3.54 C 0 km/h
228 11-12-2019 11:00:00 3.75833 C 6.01 g/m*3 3.76 C 0 km/h
229 11-12-2019 12:00:00 3.9 C 6.06 g/m*3 3.9 C 0 km/h
230 11-12-2019 13:00:00 3.93333 C 6.08 g/m*3 3.93 C 0 km/h
231 11-12-2019 14:00:00 4.09167 C 6.14 g/m*3 4.09 C 0 km/h
232 11-12-2019 15:00:00 4.2 C 6.19 g/m*3 4.2 C 0 km/h
233 11-12-2019 16:00:00 4.11667 C 6.16 g/m*3 4.12 C 0 km/h
234 11-12-2019 17:00:00 3.91667 C 6.07 g/m*3 3.92 C 0.26667 km/h
235 11-12-2019 18:00:00 4.13333 C 6.22 g/m*3 4.13 C 0 km/h
236 11-12-2019 19:00:00 4.35 C 6.31 g/m*3 4.35 C 0 km/h
237 11-12-2019 20:00:00 4.60833 C 6.42 g/m*3 4.61 C 2.15 km/h
238 11-12-2019 21:00:00 4.75833 C 6.49 g/m*3 2.41 C 9.81667 km/h
239 11-12-2019 22:00:00 4.525 C 6.35 g/m*3 2.67 C 7.65 km/h
240 11-12-2019 23:00:00 4.225 C 6.21 g/m*3 4.22 C 2.93333 km/h
241 12-12-2019 00:00:00 3.69167 C 6.01 g/m*3 3.69 C 0.8 km/h
242 12-12-2019 01:00:00 3.36667 C 5.9 g/m*3 3.37 C 1.73333 km/h
243 12-12-2019 02:00:00 2.83333 C 5.7 g/m*3 2.83 C 0 km/h
244 12-12-2019 03:00:00 3.29167 C 5.88 g/m*3 3.29 C 0.8 km/h
245 12-12-2019 04:00:00 3.69167 C 6.04 g/m*3 3.69 C 0 km/h
246 12-12-2019 05:00:00 3.175 C 5.84 g/m*3 3.18 C 0 km/h
247 12-12-2019 06:00:00 2.95 C 5.75 g/m*3 2.95 C 0.53333 km/h
248 12-12-2019 07:00:00 3.75 C 6.1 g/m*3 3.75 C 0 km/h
249 12-12-2019 08:00:00 4.025 C 6.21 g/m*3 4.03 C 0 km/h
250 12-12-2019 09:00:00 4.525 C 6.45 g/m*3 4.53 C 0.8 km/h
Sensor: Nr:Datum:Temp:Abs-Feuchte:Windchill:Wind:
Aussen-T/F 251 12-12-2019 10:00:00 4.80833 C 6.56 g/m*3 3.63 C 5.625 km/h
252 12-12-2019 11:00:00 4.9 C 6.51 g/m*3 3.47 C 6.43333 km/h
253 12-12-2019 12:00:00 5.2 C 6.35 g/m*3 3.36 C 8.05 km/h
254 12-12-2019 13:00:00 5.14167 C 6.05 g/m*3 3.22 C 8.33333 km/h
255 12-12-2019 14:00:00 5.14167 C 5.87 g/m*3 3.96 C 5.775 km/h
256 12-12-2019 15:00:00 4.875 C 5.86 g/m*3 3.08 C 7.64167 km/h
257 12-12-2019 16:00:00 4.38333 C 5.66 g/m*3 4.38 C 1.86667 km/h
258 12-12-2019 17:00:00 2.875 C 5.28 g/m*3 2.88 C 1.06667 km/h
259 12-12-2019 18:00:00 2.00833 C 5.2 g/m*3 2.01 C 1.46667 km/h
260 12-12-2019 19:00:00 1.68333 C 5.13 g/m*3 1.68 C 1.06667 km/h
261 12-12-2019 20:00:00 1.675 C 5.16 g/m*3 1.68 C 1.6 km/h
262 12-12-2019 21:00:00 2.31667 C 5.31 g/m*3 2.32 C 3.06667 km/h
263 12-12-2019 22:00:00 1.85833 C 5.1 g/m*3 1.86 C 1.73333 km/h
264 12-12-2019 23:00:00 2.4 C 5.21 g/m*3 0.99 C 5.35 km/h
265 13-12-2019 00:00:00 2.38333 C 5.1 g/m*3 0.96 C 5.35833 km/h
266 13-12-2019 01:00:00 2.78333 C 5.13 g/m*3 0.12 C 9.53333 km/h
267 13-12-2019 02:00:00 2.9 C 5.13 g/m*3 0.47 C 8.725 km/h
268 13-12-2019 03:00:00 2.725 C 5.13 g/m*3 -0.01 C 9.80833 km/h
269 13-12-2019 04:00:00 2.525 C 5.19 g/m*3 -0.19 C 9.55 km/h
270 13-12-2019 05:00:00 2.63333 C 5.28 g/m*3 0.85 C 6.43333 km/h
271 13-12-2019 06:00:00 2.86667 C 5.38 g/m*3 1.52 C 5.35 km/h
272 13-12-2019 07:00:00 2.85833 C 5.47 g/m*3 1.06 C 6.56667 km/h
273 13-12-2019 08:00:00 2.83333 C 5.51 g/m*3 1.08 C 6.44167 km/h
274 13-12-2019 09:00:00 2.8 C 5.53 g/m*3 2.8 C 4.83333 km/h
275 13-12-2019 10:00:00 3 C 5.65 g/m*3 3 C 0.53333 km/h
Sensor: Nr:Datum:Temp:Abs-Feuchte:Windchill:Wind:
Aussen-T/F 276 13-12-2019 11:00:00 3.35833 C 5.82 g/m*3 3.36 C 0.53333 km/h
277 13-12-2019 12:00:00 4.09167 C 6.14 g/m*3 4.09 C 0.53333 km/h
278 13-12-2019 13:00:00 5.2 C 6.66 g/m*3 5.2 C 2.675 km/h
279 13-12-2019 14:00:00 6.93333 C 7.16 g/m*3 4.13 C 15.03333 km/h
280 13-12-2019 15:00:00 6.675 C 6.87 g/m*3 3.97 C 13.96667 km/h
281 13-12-2019 16:00:00 5.96667 C 6.52 g/m*3 3.41 C 12.1 km/h
282 13-12-2019 17:00:00 5.23333 C 6.33 g/m*3 2.55 C 11.96667 km/h
283 13-12-2019 18:00:00 4.73333 C 6.25 g/m*3 2.95 C 7.525 km/h
284 13-12-2019 19:00:00 4.76667 C 6.29 g/m*3 2.19 C 10.88333 km/h
285 13-12-2019 20:00:00 5.26667 C 6.44 g/m*3 2.49 C 12.49167 km/h
286 13-12-2019 21:00:00 5.13333 C 6.39 g/m*3 2.95 C 9.40833 km/h
287 13-12-2019 22:00:00 5.05833 C 6.29 g/m*3 3.26 C 7.79167 km/h
288 13-12-2019 23:00:00 5.60833 C 6.44 g/m*3 3.1 C 11.43333 km/h
289 14-12-2019 00:00:00 5.46667 C 6.37 g/m*3 5.47 C 4.28333 km/h
290 14-12-2019 01:00:00 5.89167 C 6.33 g/m*3 3.47 C 11.28333 km/h
291 14-12-2019 02:00:00 5.71667 C 6.3 g/m*3 5.72 C 2.53333 km/h
292 14-12-2019 03:00:00 5.33333 C 6.37 g/m*3 5.33 C 2.93333 km/h
293 14-12-2019 04:00:00 4.89167 C 6.31 g/m*3 4.89 C 1.2 km/h
294 14-12-2019 05:00:00 4.5 C 6.22 g/m*3 4.5 C 1.2 km/h
295 14-12-2019 06:00:00 5.18333 C 6.6 g/m*3 3.17 C 8.725 km/h
296 14-12-2019 07:00:00 6.75 C 7.25 g/m*3 4.43 C 11.69167 km/h
297 14-12-2019 08:00:00 7.4 C 6.97 g/m*3 3.96 C 21.30833 km/h
298 14-12-2019 09:00:00 7.2 C 6.4 g/m*3 4 C 18.64167 km/h
299 14-12-2019 10:00:00 7.09167 C 6.52 g/m*3 4.89 C 11.425 km/h
300 14-12-2019 11:00:00 7.03333 C 6.55 g/m*3 4.05 C 16.5 km/h
Sensor: Nr:Datum:Temp:Abs-Feuchte:Windchill:Wind:
Aussen-T/F 301 14-12-2019 12:00:00 7.58333 C 6 g/m*3 4.16 C 21.58333 km/h
302 14-12-2019 13:00:00 8.45 C 6.16 g/m*3 5.42 C 19.96667 km/h
303 14-12-2019 14:00:00 8.76667 C 6.51 g/m*3 5.96 C 18.63333 km/h
304 14-12-2019 15:00:00 7.825 C 6.95 g/m*3 5.12 C 15.825 km/h
305 14-12-2019 16:00:00 7.875 C 6.82 g/m*3 4.97 C 17.56667 km/h
306 14-12-2019 17:00:00 8.03333 C 6.94 g/m*3 5.35 C 16.1 km/h
307 14-12-2019 18:00:00 7.95833 C 6.92 g/m*3 5.09 C 17.43333 km/h
308 14-12-2019 19:00:00 7.04167 C 6.53 g/m*3 5.61 C 7.66667 km/h
309 14-12-2019 20:00:00 6.88333 C 6.45 g/m*3 5.54 C 7.23333 km/h
310 14-12-2019 21:00:00 7.375 C 6.7 g/m*3 5.1 C 12.23333 km/h
311 14-12-2019 22:00:00 7.45833 C 6.77 g/m*3 5.26 C 11.825 km/h
312 14-12-2019 23:00:00 7.73333 C 6.83 g/m*3 5.88 C 10.21667 km/h
313 15-12-2019 00:00:00 6.84167 C 6.64 g/m*3 6.84 C 2.40833 km/h
314 15-12-2019 01:00:00 6.325 C 6.64 g/m*3 6.33 C 2.675 km/h
315 15-12-2019 02:00:00 6.76667 C 6.97 g/m*3 6.77 C 2.14167 km/h
316 15-12-2019 03:00:00 6.99167 C 7.3 g/m*3 6.99 C 0.66667 km/h
317 15-12-2019 04:00:00 8.23333 C 8.05 g/m*3 7.51 C 5.75833 km/h
318 15-12-2019 05:00:00 9.40833 C 8.53 g/m*3 7.57 C 12.19167 km/h
319 15-12-2019 06:00:00 10.84167 C 8.67 g/m*3 8.16 C 23.19167 km/h
320 15-12-2019 07:00:00 11 C 8.51 g/m*3 8.3 C 24 km/h
321 15-12-2019 08:00:00 11.075 C 8.66 g/m*3 11.08 C 19.71667 km/h
322 15-12-2019 09:00:00 9.46667 C 8.37 g/m*3 8.18 C 8.99167 km/h
323 15-12-2019 10:00:00 8.7 C 8.08 g/m*3 8.7 C 4.81667 km/h
324 15-12-2019 11:00:00 8.75833 C 7.8 g/m*3 7.21 C 9.68333 km/h
325 15-12-2019 12:00:00 8.625 C 7.56 g/m*3 7.1 C 9.41667 km/h
Sensor: Nr:Datum:Temp:Abs-Feuchte:Windchill:Wind:
Aussen-T/F 326 15-12-2019 13:00:00 9.15 C 7.41 g/m*3 7.31 C 11.83333 km/h
327 15-12-2019 14:00:00 9.30833 C 7.19 g/m*3 7.42 C 12.35833 km/h
328 15-12-2019 15:00:00 9.10833 C 6.98 g/m*3 6.91 C 14.23333 km/h
329 15-12-2019 16:00:00 8.48333 C 6.65 g/m*3 6.42 C 12.35833 km/h
330 15-12-2019 17:00:00 7.85833 C 6.6 g/m*3 5.96 C 10.625 km/h
331 15-12-2019 18:00:00 7.65833 C 6.66 g/m*3 6.44 C 7.25833 km/h
332 15-12-2019 19:00:00 6.325 C 6.55 g/m*3 6.33 C 1.46667 km/h
333 15-12-2019 20:00:00 5.675 C 6.47 g/m*3 5.68 C 0 km/h
334 15-12-2019 21:00:00 4.39167 C 6.05 g/m*3 4.39 C 0 km/h
335 15-12-2019 22:00:00 4.25833 C 6.14 g/m*3 4.26 C 0 km/h
336 15-12-2019 23:00:00 4.36667 C 6.21 g/m*3 4.37 C 0 km/h
337 16-12-2019 00:00:00 5 C 6.52 g/m*3 5 C 0.4 km/h
338 16-12-2019 01:00:00 5.85 C 6.94 g/m*3 5.85 C 2 km/h
339 16-12-2019 02:00:00 6.44167 C 7.24 g/m*3 6.44 C 0 km/h
340 16-12-2019 03:00:00 6.65833 C 7.35 g/m*3 6.66 C 0.13333 km/h
341 16-12-2019 04:00:00 6.875 C 7.46 g/m*3 6.88 C 0.4 km/h
342 16-12-2019 05:00:00 7.325 C 7.68 g/m*3 7.33 C 1.6 km/h
343 16-12-2019 06:00:00 7.64167 C 7.84 g/m*3 7.64 C 1.06667 km/h
344 16-12-2019 07:00:00 7.575 C 7.8 g/m*3 7.58 C 0.66667 km/h
345 16-12-2019 08:00:00 7.8 C 7.92 g/m*3 7.8 C 1.06667 km/h
346 16-12-2019 09:00:00 8.15833 C 8.12 g/m*3 8.16 C 0 km/h
347 16-12-2019 10:00:00 8.49167 C 8.31 g/m*3 8.49 C 0 km/h
348 16-12-2019 11:00:00 9.225 C 8.77 g/m*3 9.23 C 0 km/h
349 16-12-2019 12:00:00 9.8 C 9.09 g/m*3 9.8 C 0 km/h
350 16-12-2019 13:00:00 10.26667 C 9.37 g/m*3 10.27 C 0 km/h
Sensor: Nr:Datum:Temp:Abs-Feuchte:Windchill:Wind:
Aussen-T/F 351 16-12-2019 14:00:00 10.41667 C 9.37 g/m*3 10.42 C 0.26667 km/h
352 16-12-2019 15:00:00 10.09167 C 9.17 g/m*3 10.09 C 0.4 km/h
353 16-12-2019 16:00:00 9.1 C 8.56 g/m*3 9.1 C 2 km/h
354 16-12-2019 17:00:00 8.15833 C 8.06 g/m*3 8.16 C 1.73333 km/h
355 16-12-2019 18:00:00 8.35833 C 8.21 g/m*3 8.36 C 4.01667 km/h
356 16-12-2019 19:00:00 8.7 C 8.33 g/m*3 8.7 C 4.55833 km/h
357 16-12-2019 20:00:00 8.66667 C 8.27 g/m*3 8.67 C 3.2 km/h
358 16-12-2019 21:00:00 8.15833 C 7.96 g/m*3 8.16 C 3.20833 km/h
359 16-12-2019 22:00:00 8.10833 C 7.97 g/m*3 8.11 C 2.93333 km/h
360 16-12-2019 23:00:00 8.24167 C 8.04 g/m*3 8.24 C 1.73333 km/h
361 17-12-2019 00:00:00 8.2 C 8 g/m*3 8.2 C 0.8 km/h
362 17-12-2019 01:00:00 8.09167 C 7.97 g/m*3 8.09 C 1.33333 km/h
363 17-12-2019 02:00:00 8.11667 C 7.91 g/m*3 8.12 C 2.53333 km/h
364 17-12-2019 03:00:00 9.125 C 8.28 g/m*3 9.13 C 3.33333 km/h
365 17-12-2019 04:00:00 9.44167 C 8.25 g/m*3 9.44 C 0.4 km/h
366 17-12-2019 05:00:00 9.15 C 8.2 g/m*3 9.15 C 0 km/h
367 17-12-2019 06:00:00 8.53333 C 7.98 g/m*3 8.53 C 0 km/h
368 17-12-2019 07:00:00 8.33333 C 7.94 g/m*3 8.33 C 0 km/h
369 17-12-2019 08:00:00 7.93333 C 7.72 g/m*3 7.93 C 0 km/h
370 17-12-2019 09:00:00 7.525 C 7.58 g/m*3 7.53 C 0 km/h
371 17-12-2019 10:00:00 7.51667 C 7.64 g/m*3 7.52 C 0 km/h
372 17-12-2019 11:00:00 8.95833 C 8.4 g/m*3 8.96 C 0 km/h
373 17-12-2019 12:00:00 9.98333 C 8.84 g/m*3 9.98 C 0 km/h
374 17-12-2019 13:00:00 11.10833 C 9.29 g/m*3 11.11 C 0 km/h
375 17-12-2019 14:00:00 12.41667 C 9.5 g/m*3 12.42 C 1.33333 km/h
Sensor: Nr:Datum:Temp:Abs-Feuchte:Windchill:Wind:
Aussen-T/F 376 17-12-2019 15:00:00 12.54167 C 9.29 g/m*3 12.54 C 2.675 km/h
377 17-12-2019 16:00:00 12.93333 C 9.18 g/m*3 12.93 C 2.275 km/h
378 17-12-2019 17:00:00 13 C 8.88 g/m*3 13 C 6.55833 km/h
379 17-12-2019 18:00:00 14.08333 C 9.39 g/m*3 14.08 C 7.93333 km/h
380 17-12-2019 19:00:00 13.34167 C 9.63 g/m*3 13.34 C 7.39167 km/h
381 17-12-2019 20:00:00 12.59167 C 9.83 g/m*3 12.59 C 3.34167 km/h
382 17-12-2019 21:00:00 11.76667 C 9.58 g/m*3 11.77 C 5.09167 km/h
383 17-12-2019 22:00:00 13.26667 C 9.58 g/m*3 13.27 C 15.16667 km/h
384 17-12-2019 23:00:00 12.375 C 9.55 g/m*3 12.38 C 13.425 km/h
385 18-12-2019 00:00:00 11.4 C 9.26 g/m*3 11.4 C 11.40833 km/h
386 18-12-2019 01:00:00 11.31667 C 9.1 g/m*3 11.32 C 10.75 km/h
387 18-12-2019 02:00:00 11.45833 C 9.26 g/m*3 11.46 C 8.85 km/h
388 18-12-2019 03:00:00 11.19167 C 9.32 g/m*3 11.19 C 2.13333 km/h
389 18-12-2019 04:00:00 10.53333 C 8.95 g/m*3 10.53 C 4.95833 km/h
390 18-12-2019 05:00:00 9.69167 C 8.42 g/m*3 9.69 C 0.4 km/h
391 18-12-2019 06:00:00 8.7 C 8.03 g/m*3 8.7 C 0.4 km/h
392 18-12-2019 07:00:00 7.99167 C 7.76 g/m*3 7.99 C 0.13333 km/h
393 18-12-2019 08:00:00 7.475 C 7.58 g/m*3 7.48 C 0 km/h
394 18-12-2019 09:00:00 7.29167 C 7.54 g/m*3 7.29 C 0 km/h
395 18-12-2019 10:00:00 7.79167 C 7.83 g/m*3 7.79 C 0.13333 km/h
396 18-12-2019 11:00:00 7.60833 C 7.66 g/m*3 7.61 C 1.06667 km/h
397 18-12-2019 12:00:00 8.43333 C 7.9 g/m*3 7.82 C 5.5 km/h
398 18-12-2019 13:00:00 8.66667 C 7.8 g/m*3 8.67 C 2 km/h
399 18-12-2019 14:00:00 8.175 C 7.7 g/m*3 8.18 C 1.2 km/h
400 18-12-2019 15:00:00 7.55 C 7.48 g/m*3 7.55 C 2.26667 km/h
Sensor: Nr:Datum:Temp:Abs-Feuchte:Windchill:Wind:
Aussen-T/F 401 18-12-2019 16:00:00 6.88333 C 7.22 g/m*3 6.88 C 3.86667 km/h
402 18-12-2019 17:00:00 5.93333 C 6.79 g/m*3 5.93 C 1.46667 km/h
403 18-12-2019 18:00:00 5.4 C 6.66 g/m*3 5.4 C 1.06667 km/h
404 18-12-2019 19:00:00 5.58333 C 6.78 g/m*3 5.58 C 1.33333 km/h
405 18-12-2019 20:00:00 5.39167 C 6.69 g/m*3 5.39 C 1.46667 km/h
406 18-12-2019 21:00:00 4.74167 C 6.41 g/m*3 4.74 C 0 km/h
407 18-12-2019 22:00:00 3.95833 C 6.09 g/m*3 3.96 C 0.13333 km/h
408 18-12-2019 23:00:00 3.31667 C 5.84 g/m*3 3.32 C 0 km/h
409 19-12-2019 00:00:00 3.05833 C 5.77 g/m*3 3.06 C 0.13333 km/h
410 19-12-2019 01:00:00 2.91667 C 5.73 g/m*3 2.92 C 0.4 km/h
411 19-12-2019 02:00:00 2.875 C 5.72 g/m*3 2.88 C 0 km/h
412 19-12-2019 03:00:00 2.675 C 5.64 g/m*3 2.68 C 0.26667 km/h
413 19-12-2019 04:00:00 2.39167 C 5.54 g/m*3 2.39 C 0 km/h
414 19-12-2019 05:00:00 2.18333 C 5.46 g/m*3 2.18 C 0 km/h
415 19-12-2019 06:00:00 1.875 C 5.34 g/m*3 1.88 C 0.4 km/h
416 19-12-2019 07:00:00 3.075 C 5.83 g/m*3 3.08 C 2.26667 km/h
417 19-12-2019 08:00:00 5.05833 C 6.68 g/m*3 5.06 C 1.46667 km/h
418 19-12-2019 09:00:00 5.24167 C 6.77 g/m*3 5.24 C 1.33333 km/h
419 19-12-2019 10:00:00 6.75833 C 7.47 g/m*3 6.76 C 4.15 km/h
420 19-12-2019 11:00:00 7.35 C 7.77 g/m*3 7.35 C 2.13333 km/h
421 19-12-2019 12:00:00 7.59167 C 7.89 g/m*3 7.59 C 1.875 km/h
422 19-12-2019 13:00:00 7.88333 C 8.04 g/m*3 7.88 C 2.8 km/h
423 19-12-2019 14:00:00 7.96667 C 8.03 g/m*3 7.97 C 2.8 km/h
424 19-12-2019 15:00:00 9.23333 C 8.3 g/m*3 7.98 C 8.59167 km/h
425 19-12-2019 16:00:00 9.61667 C 7.98 g/m*3 8.51 C 8.20833 km/h
Sensor: Nr:Datum:Temp:Abs-Feuchte:Windchill:Wind:
Aussen-T/F 426 19-12-2019 17:00:00 7.6 C 7.17 g/m*3 7.6 C 0.8 km/h
427 19-12-2019 18:00:00 6.30833 C 6.98 g/m*3 6.31 C 1.86667 km/h
428 19-12-2019 19:00:00 6.29167 C 7.01 g/m*3 6.29 C 0.53333 km/h
429 19-12-2019 20:00:00 6.23333 C 7.03 g/m*3 6.23 C 3.74167 km/h
430 19-12-2019 21:00:00 6.65833 C 7.21 g/m*3 6.66 C 1.86667 km/h
431 19-12-2019 22:00:00 6.75833 C 7.27 g/m*3 6.76 C 0.53333 km/h
432 19-12-2019 23:00:00 6.31667 C 7.08 g/m*3 6.32 C 0.26667 km/h
433 20-12-2019 00:00:00 5.44167 C 6.65 g/m*3 5.44 C 1.46667 km/h
434 20-12-2019 01:00:00 4.30833 C 6.21 g/m*3 4.31 C 0.93333 km/h
435 20-12-2019 02:00:00 4 C 6.12 g/m*3 4 C 2.275 km/h
436 20-12-2019 03:00:00 5.275 C 6.71 g/m*3 4.12 C 5.75833 km/h
437 20-12-2019 04:00:00 5.36667 C 6.7 g/m*3 5.37 C 2.4 km/h
438 20-12-2019 05:00:00 6 C 6.94 g/m*3 5.14 C 5.21667 km/h
439 20-12-2019 06:00:00 6.7 C 6.94 g/m*3 5.15 C 7.925 km/h
440 20-12-2019 07:00:00 7.35 C 6.91 g/m*3 6.58 C 5.5 km/h
441 20-12-2019 08:00:00 7.525 C 7.02 g/m*3 7.53 C 1.06667 km/h
442 20-12-2019 09:00:00 7.375 C 7.13 g/m*3 7.38 C 1.46667 km/h
443 20-12-2019 10:00:00 7.06667 C 7.09 g/m*3 7.07 C 1.2 km/h
444 20-12-2019 11:00:00 7.275 C 7.46 g/m*3 7.28 C 2.55 km/h
445 20-12-2019 12:00:00 8.375 C 8.05 g/m*3 7.17 C 7.66667 km/h
446 20-12-2019 13:00:00 9.20833 C 8.44 g/m*3 7.58 C 10.60833 km/h
447 20-12-2019 14:00:00 9.38333 C 8.46 g/m*3 8.02 C 9.29167 km/h
448 20-12-2019 15:00:00 9.2 C 8.41 g/m*3 9.2 C 4.94167 km/h
449 20-12-2019 16:00:00 9.325 C 8.6 g/m*3 9.32 C 4.66667 km/h
450 20-12-2019 17:00:00 9.79167 C 8.83 g/m*3 9.79 C 4.55833 km/h
Sensor: Nr:Datum:Temp:Abs-Feuchte:Windchill:Wind:
Aussen-T/F 451 20-12-2019 18:00:00 9.66667 C 8.72 g/m*3 8.78 C 7.24167 km/h
452 20-12-2019 19:00:00 10.18333 C 8.56 g/m*3 8.58 C 11.7 km/h
453 20-12-2019 20:00:00 9.76667 C 8.1 g/m*3 8.29 C 10.34167 km/h
454 20-12-2019 21:00:00 9.10833 C 7.7 g/m*3 7.89 C 8.325 km/h
455 20-12-2019 22:00:00 9.05 C 7.57 g/m*3 7.51 C 9.91667 km/h
456 20-12-2019 23:00:00 8.84167 C 7.54 g/m*3 8.33 C 5.35 km/h
457 21-12-2019 00:00:00 8.34167 C 7.42 g/m*3 8.34 C 2.94167 km/h
458 21-12-2019 01:00:00 8.075 C 7.5 g/m*3 8.07 C 0.4 km/h
459 21-12-2019 02:00:00 8.34167 C 7.62 g/m*3 8.34 C 3.35 km/h
460 21-12-2019 03:00:00 8.225 C 7.55 g/m*3 8.23 C 0.66667 km/h
461 21-12-2019 04:00:00 7.60833 C 7.36 g/m*3 7.61 C 0.8 km/h
462 21-12-2019 05:00:00 6.69167 C 7.06 g/m*3 6.69 C 2.13333 km/h
463 21-12-2019 06:00:00 5.60833 C 6.63 g/m*3 5.61 C 1.6 km/h
464 21-12-2019 07:00:00 4.74167 C 6.32 g/m*3 4.74 C 0 km/h
465 21-12-2019 08:00:00 4.725 C 6.39 g/m*3 4.72 C 2.00833 km/h
466 21-12-2019 09:00:00 5.5 C 6.74 g/m*3 5.5 C 1.33333 km/h
467 21-12-2019 10:00:00 5.85833 C 6.83 g/m*3 5.86 C 0.93333 km/h
468 21-12-2019 11:00:00 6.30833 C 7.04 g/m*3 6.31 C 0.26667 km/h
469 21-12-2019 12:00:00 6.88333 C 7.27 g/m*3 6.88 C 4.55833 km/h
470 21-12-2019 13:00:00 8.01667 C 7.43 g/m*3 8.02 C 4.56667 km/h
471 21-12-2019 14:00:00 9.05833 C 7.54 g/m*3 9.06 C 3.74167 km/h
472 21-12-2019 15:00:00 9.10833 C 7.45 g/m*3 9.11 C 4.425 km/h
473 21-12-2019 16:00:00 8.325 C 7.39 g/m*3 8.32 C 1.2 km/h
474 21-12-2019 17:00:00 8.04167 C 7.38 g/m*3 8.04 C 0.53333 km/h
475 21-12-2019 18:00:00 8.125 C 7.2 g/m*3 8.13 C 4.29167 km/h
Sensor: Nr:Datum:Temp:Abs-Feuchte:Windchill:Wind:
Aussen-T/F 476 21-12-2019 19:00:00 7.875 C 7.12 g/m*3 7.88 C 1.2 km/h
477 21-12-2019 20:00:00 7.76667 C 7.04 g/m*3 7.77 C 1.2 km/h
478 21-12-2019 21:00:00 7.13333 C 6.9 g/m*3 7.13 C 1.46667 km/h
479 21-12-2019 22:00:00 6.56667 C 6.62 g/m*3 5.78 C 5.21667 km/h
480 21-12-2019 23:00:00 7.03333 C 6.56 g/m*3 5.78 C 6.99167 km/h
481 22-12-2019 00:00:00 7.48333 C 6.8 g/m*3 5.67 C 9.79167 km/h
482 22-12-2019 01:00:00 6.98333 C 7.04 g/m*3 6.98 C 4.275 km/h
483 22-12-2019 02:00:00 6.75 C 7.09 g/m*3 5.85 C 5.63333 km/h
484 22-12-2019 03:00:00 6.95 C 7.14 g/m*3 6.95 C 4.68333 km/h
485 22-12-2019 04:00:00 7.06667 C 7.16 g/m*3 7.07 C 3.475 km/h
486 22-12-2019 05:00:00 6.89167 C 7.08 g/m*3 6.89 C 3.075 km/h
487 22-12-2019 06:00:00 6.48333 C 7 g/m*3 6.48 C 3.34167 km/h
488 22-12-2019 07:00:00 6.83333 C 7.22 g/m*3 6.83 C 1.875 km/h
489 22-12-2019 08:00:00 6.975 C 7.34 g/m*3 6.98 C 1.06667 km/h
490 22-12-2019 09:00:00 7.29167 C 7.5 g/m*3 7.29 C 2.275 km/h
491 22-12-2019 10:00:00 8.56667 C 7.98 g/m*3 8.57 C 4.14167 km/h
492 22-12-2019 11:00:00 10.06667 C 8.22 g/m*3 9.31 C 6.98333 km/h
493 22-12-2019 12:00:00 10.70833 C 8.42 g/m*3 9.88 C 7.80833 km/h
494 22-12-2019 13:00:00 10.95 C 8.36 g/m*3 9.26 C 13.56667 km/h
495 22-12-2019 14:00:00 11.06667 C 8.24 g/m*3 11.07 C 12.9 km/h
496 22-12-2019 15:00:00 10.44167 C 8.12 g/m*3 8.08 C 18.50833 km/h
497 22-12-2019 16:00:00 9.34167 C 7.58 g/m*3 7.02 C 15.69167 km/h
498 22-12-2019 17:00:00 8.16667 C 7.4 g/m*3 5.68 C 14.76667 km/h
499 22-12-2019 18:00:00 7.825 C 7.3 g/m*3 5.78 C 11.425 km/h
500 22-12-2019 19:00:00 7.88333 C 7.41 g/m*3 5.84 C 11.43333 km/h
Sensor: Nr:Datum:Temp:Abs-Feuchte:Windchill:Wind:
Aussen-T/F 501 22-12-2019 20:00:00 8.4 C 7.18 g/m*3 6.12 C 13.7 km/h
502 22-12-2019 21:00:00 8.34167 C 7.16 g/m*3 6.31 C 11.96667 km/h
503 22-12-2019 22:00:00 7.85 C 7.07 g/m*3 6.6 C 7.51667 km/h
504 22-12-2019 23:00:00 7.09167 C 7.02 g/m*3 7.09 C 1.33333 km/h
505 23-12-2019 00:00:00 7.14167 C 7.12 g/m*3 7.14 C 2.26667 km/h
506 23-12-2019 01:00:00 7.325 C 7.1 g/m*3 6.39 C 6.03333 km/h
507 23-12-2019 02:00:00 7.35833 C 7.05 g/m*3 5.95 C 7.79167 km/h
508 23-12-2019 03:00:00 7.15 C 7.04 g/m*3 5.61 C 8.19167 km/h
509 23-12-2019 04:00:00 7.25833 C 7.1 g/m*3 6.52 C 5.35833 km/h
510 23-12-2019 05:00:00 7.23333 C 7.19 g/m*3 6.28 C 6.03333 km/h
511 23-12-2019 06:00:00 7.21667 C 7.21 g/m*3 6.52 C 5.225 km/h
512 23-12-2019 07:00:00 7.56667 C 7.36 g/m*3 6.58 C 6.30833 km/h
513 23-12-2019 08:00:00 7.85833 C 7.35 g/m*3 6.51 C 7.90833 km/h
514 23-12-2019 09:00:00 8.15833 C 7.37 g/m*3 6.32 C 10.61667 km/h
515 23-12-2019 10:00:00 7.89167 C 7.48 g/m*3 6.64 C 7.51667 km/h
516 23-12-2019 11:00:00 8.425 C 7.57 g/m*3 7.03 C 8.6 km/h
517 23-12-2019 12:00:00 9.28333 C 7.6 g/m*3 8.04 C 8.60833 km/h
518 23-12-2019 13:00:00 9.125 C 7.76 g/m*3 8.18 C 7.1 km/h
519 23-12-2019 14:00:00 9.33333 C 7.67 g/m*3 7.94 C 9.40833 km/h
520 23-12-2019 15:00:00 9.30833 C 7.58 g/m*3 7.74 C 10.35 km/h
521 23-12-2019 16:00:00 8.99167 C 7.43 g/m*3 7.44 C 9.95 km/h
522 23-12-2019 17:00:00 8.49167 C 7.17 g/m*3 7.32 C 7.64167 km/h
523 23-12-2019 18:00:00 8.18333 C 7.08 g/m*3 7.11 C 7 km/h
524 23-12-2019 19:00:00 7.575 C 7.03 g/m*3 6.72 C 5.89167 km/h
525 23-12-2019 20:00:00 7.21667 C 7.05 g/m*3 7.22 C 2.93333 km/h
Sensor: Nr:Datum:Temp:Abs-Feuchte:Windchill:Wind:
Aussen-T/F 526 23-12-2019 21:00:00 7.30833 C 7.12 g/m*3 6.33 C 6.16667 km/h
527 23-12-2019 22:00:00 6.64167 C 6.86 g/m*3 6.64 C 4.00833 km/h
528 23-12-2019 23:00:00 5.88333 C 6.55 g/m*3 5.88 C 4.54167 km/h
529 24-12-2019 00:00:00 6.04167 C 6.76 g/m*3 6.04 C 3.6 km/h
530 24-12-2019 01:00:00 6.325 C 6.83 g/m*3 6.33 C 3.35 km/h
531 24-12-2019 02:00:00 6.39167 C 6.87 g/m*3 6.39 C 1.34167 km/h
532 24-12-2019 03:00:00 6.55833 C 6.8 g/m*3 5.82 C 5.08333 km/h
533 24-12-2019 04:00:00 5.90833 C 6.64 g/m*3 5.91 C 1.73333 km/h
534 24-12-2019 05:00:00 5.76667 C 6.64 g/m*3 5.77 C 2.26667 km/h
535 24-12-2019 06:00:00 5.28333 C 6.48 g/m*3 5.28 C 0.66667 km/h
536 24-12-2019 07:00:00 5.61667 C 6.65 g/m*3 5.62 C 0.66667 km/h
537 24-12-2019 08:00:00 6.53333 C 6.86 g/m*3 6.53 C 1.2 km/h
538 24-12-2019 09:00:00 7.25 C 6.96 g/m*3 7.25 C 4.69167 km/h
539 24-12-2019 10:00:00 7.34167 C 7.21 g/m*3 7.34 C 2.675 km/h
540 24-12-2019 11:00:00 7.85833 C 7.56 g/m*3 6.85 C 6.55833 km/h
541 24-12-2019 12:00:00 8.5 C 7.61 g/m*3 6.1 C 14.76667 km/h
542 24-12-2019 13:00:00 9.5 C 7.84 g/m*3 7.9 C 10.75833 km/h
543 24-12-2019 14:00:00 9.85833 C 7.94 g/m*3 7.92 C 13.56667 km/h
544 24-12-2019 15:00:00 10.025 C 7.84 g/m*3 8.45 C 11.3 km/h
545 24-12-2019 16:00:00 10.275 C 7.63 g/m*3 9.04 C 9.54167 km/h
546 24-12-2019 17:00:00 9.84167 C 7.43 g/m*3 8.07 C 12.36667 km/h
547 24-12-2019 18:00:00 9.23333 C 7.62 g/m*3 7.9 C 9 km/h
548 24-12-2019 19:00:00 7.675 C 7.37 g/m*3 5.89 C 9.80833 km/h
549 24-12-2019 20:00:00 7.26667 C 7.31 g/m*3 5.78 C 8.05833 km/h
550 24-12-2019 21:00:00 7.85 C 7.44 g/m*3 6.05 C 10.09167 km/h
Sensor: Nr:Datum:Temp:Abs-Feuchte:Windchill:Wind:
Aussen-T/F 551 24-12-2019 22:00:00 8.68333 C 7.47 g/m*3 6.93 C 10.74167 km/h
552 24-12-2019 23:00:00 8.73333 C 7.61 g/m*3 6.85 C 11.55833 km/h
553 25-12-2019 00:00:00 8.8 C 7.7 g/m*3 6.67 C 13.3 km/h
554 25-12-2019 01:00:00 8.4 C 7.73 g/m*3 7.03 C 8.46667 km/h
555 25-12-2019 02:00:00 8.28333 C 7.69 g/m*3 6.67 C 9.53333 km/h
556 25-12-2019 03:00:00 8.60833 C 7.83 g/m*3 7.08 C 9.425 km/h
557 25-12-2019 04:00:00 8.68333 C 7.98 g/m*3 7.95 C 6.025 km/h
558 25-12-2019 05:00:00 8.5 C 8 g/m*3 8.5 C 4.81667 km/h
559 25-12-2019 06:00:00 8.06667 C 7.76 g/m*3 8.07 C 1.875 km/h
560 25-12-2019 07:00:00 7.91667 C 7.6 g/m*3 7.92 C 3.075 km/h
561 25-12-2019 08:00:00 7.41667 C 7.2 g/m*3 5.22 C 11.81667 km/h
562 25-12-2019 09:00:00 7.625 C 7.14 g/m*3 6.54 C 6.7 km/h
563 25-12-2019 10:00:00 7.925 C 7.1 g/m*3 6.75 C 7.24167 km/h
564 25-12-2019 11:00:00 8.13333 C 7.19 g/m*3 6.44 C 9.81667 km/h
565 25-12-2019 12:00:00 8.11667 C 7.3 g/m*3 6.11 C 11.54167 km/h
566 25-12-2019 13:00:00 7.925 C 7.36 g/m*3 6.41 C 8.74167 km/h
567 25-12-2019 14:00:00 8.05833 C 7.41 g/m*3 6.43 C 9.4 km/h
568 25-12-2019 15:00:00 7.975 C 7.41 g/m*3 6.71 C 7.65 km/h
569 25-12-2019 16:00:00 7.75833 C 7.28 g/m*3 7.76 C 3.75 km/h
570 25-12-2019 17:00:00 7.25 C 7.05 g/m*3 7.25 C 1.46667 km/h
571 25-12-2019 18:00:00 6.8 C 6.96 g/m*3 6.8 C 0.93333 km/h
572 25-12-2019 19:00:00 6.725 C 6.94 g/m*3 6.73 C 1.46667 km/h
573 25-12-2019 20:00:00 6.64167 C 6.96 g/m*3 6.64 C 2.26667 km/h
574 25-12-2019 21:00:00 6.33333 C 6.93 g/m*3 6.33 C 1.33333 km/h
575 25-12-2019 22:00:00 6.05 C 6.91 g/m*3 6.05 C 0.8 km/h
Sensor: Nr:Datum:Temp:Abs-Feuchte:Windchill:Wind:
Aussen-T/F 576 25-12-2019 23:00:00 5.94167 C 6.87 g/m*3 5.94 C 0.66667 km/h
577 26-12-2019 00:00:00 4.98333 C 6.46 g/m*3 4.98 C 0.4 km/h
578 26-12-2019 01:00:00 5.11667 C 6.57 g/m*3 5.12 C 1.06667 km/h
579 26-12-2019 02:00:00 5.075 C 6.56 g/m*3 5.08 C 1.06667 km/h
580 26-12-2019 03:00:00 4.94167 C 6.5 g/m*3 4.94 C 0.26667 km/h
581 26-12-2019 04:00:00 4.4 C 6.27 g/m*3 4.4 C 0.66667 km/h
582 26-12-2019 05:00:00 4.25833 C 6.26 g/m*3 4.26 C 0.13333 km/h
583 26-12-2019 06:00:00 4.325 C 6.3 g/m*3 4.33 C 0 km/h
584 26-12-2019 07:00:00 4.325 C 6.3 g/m*3 4.33 C 0 km/h
585 26-12-2019 08:00:00 4.23333 C 6.26 g/m*3 4.23 C 0 km/h
586 26-12-2019 09:00:00 4.35 C 6.31 g/m*3 4.35 C 0 km/h
587 26-12-2019 10:00:00 4.65833 C 6.44 g/m*3 4.66 C 0 km/h
588 26-12-2019 11:00:00 5.5 C 6.81 g/m*3 5.5 C 0.13333 km/h
589 26-12-2019 12:00:00 5.89167 C 6.98 g/m*3 5.89 C 0 km/h
590 26-12-2019 13:00:00 6.26667 C 7.09 g/m*3 6.27 C 0 km/h
591 26-12-2019 14:00:00 6.275 C 7.06 g/m*3 6.28 C 0 km/h
592 26-12-2019 15:00:00 6.00833 C 6.9 g/m*3 6.01 C 0 km/h
593 26-12-2019 16:00:00 5.34167 C 6.61 g/m*3 5.34 C 0 km/h
594 26-12-2019 17:00:00 5.03333 C 6.54 g/m*3 5.03 C 0.26667 km/h
595 26-12-2019 18:00:00 4.81667 C 6.44 g/m*3 4.82 C 0 km/h
596 26-12-2019 19:00:00 4.74167 C 6.41 g/m*3 4.74 C 0.13333 km/h
597 26-12-2019 20:00:00 4.71667 C 6.4 g/m*3 4.72 C 0.26667 km/h
598 26-12-2019 21:00:00 4.79167 C 6.43 g/m*3 4.79 C 0.53333 km/h
599 26-12-2019 22:00:00 4.89167 C 6.48 g/m*3 4.89 C 0.13333 km/h
600 26-12-2019 23:00:00 4.9 C 6.48 g/m*3 4.9 C 0.4 km/h
Sensor: Nr:Datum:Temp:Abs-Feuchte:Windchill:Wind:
Aussen-T/F 601 27-12-2019 00:00:00 4.9 C 6.49 g/m*3 4.9 C 0 km/h
602 27-12-2019 01:00:00 4.91667 C 6.55 g/m*3 4.92 C 0 km/h
603 27-12-2019 02:00:00 4.98333 C 6.58 g/m*3 4.98 C 0 km/h
604 27-12-2019 03:00:00 5.08333 C 6.63 g/m*3 5.08 C 0 km/h
605 27-12-2019 04:00:00 5.15833 C 6.66 g/m*3 5.16 C 0 km/h
606 27-12-2019 05:00:00 5.2 C 6.68 g/m*3 5.2 C 0 km/h
607 27-12-2019 06:00:00 5.29167 C 6.72 g/m*3 5.29 C 0 km/h
608 27-12-2019 07:00:00 5.3 C 6.72 g/m*3 5.3 C 0 km/h
609 27-12-2019 08:00:00 5.13333 C 6.65 g/m*3 5.13 C 0.26667 km/h
610 27-12-2019 09:00:00 5.25833 C 6.7 g/m*3 5.26 C 1.2 km/h
611 27-12-2019 10:00:00 5.575 C 6.85 g/m*3 5.58 C 0.4 km/h
612 27-12-2019 11:00:00 5.7 C 6.9 g/m*3 5.7 C 1.33333 km/h
613 27-12-2019 12:00:00 6.10833 C 6.96 g/m*3 6.11 C 3.33333 km/h
614 27-12-2019 13:00:00 6.18333 C 6.83 g/m*3 6.18 C 2.8 km/h
615 27-12-2019 14:00:00 6.275 C 6.68 g/m*3 6.28 C 2.93333 km/h
616 27-12-2019 15:00:00 6.21667 C 6.53 g/m*3 6.22 C 0.94167 km/h
617 27-12-2019 16:00:00 5.8 C 6.52 g/m*3 5.8 C 0 km/h
618 27-12-2019 17:00:00 5.25833 C 6.41 g/m*3 5.26 C 0 km/h
619 27-12-2019 18:00:00 5.01667 C 6.33 g/m*3 5.02 C 0.93333 km/h
620 27-12-2019 19:00:00 4.76667 C 6.22 g/m*3 4.77 C 0.8 km/h
621 27-12-2019 20:00:00 4.55 C 6.13 g/m*3 4.55 C 0 km/h
622 27-12-2019 21:00:00 4.525 C 6.13 g/m*3 4.53 C 0 km/h
623 27-12-2019 22:00:00 3.70833 C 5.72 g/m*3 3.71 C 0 km/h
624 27-12-2019 23:00:00 2.00833 C 5.15 g/m*3 2.01 C 0.13333 km/h
625 28-12-2019 00:00:00 1.075 C 4.9 g/m*3 1.08 C 2 km/h
Sensor: Nr:Datum:Temp:Abs-Feuchte:Windchill:Wind:
Aussen-T/F 626 28-12-2019 01:00:00 0.53333 C 4.76 g/m*3 0.53 C 0.4 km/h
627 28-12-2019 02:00:00 -0.13333 C 4.56 g/m*3 -0.13 C 0 km/h
628 28-12-2019 03:00:00 -0.58333 C 4.44 g/m*3 -0.58 C 0 km/h
629 28-12-2019 04:00:00 -0.9 C 4.36 g/m*3 -0.9 C 0 km/h
630 28-12-2019 05:00:00 -1.18333 C 4.28 g/m*3 -1.18 C 0 km/h
631 28-12-2019 06:00:00 -1.25833 C 4.26 g/m*3 -1.26 C 0.13333 km/h
632 28-12-2019 07:00:00 -1.35833 C 4.23 g/m*3 -1.36 C 0 km/h
633 28-12-2019 08:00:00 -1.61667 C 4.16 g/m*3 -1.62 C 0 km/h
634 28-12-2019 09:00:00 -1.525 C 4.19 g/m*3 -1.53 C 0.13333 km/h
635 28-12-2019 10:00:00 -0.63333 C 4.5 g/m*3 -0.63 C 0.93333 km/h
636 28-12-2019 11:00:00 -0.05833 C 4.68 g/m*3 -0.06 C 0.53333 km/h
637 28-12-2019 12:00:00 0.53333 C 4.88 g/m*3 0.53 C 0 km/h
638 28-12-2019 13:00:00 1.175 C 5.1 g/m*3 1.18 C 0.13333 km/h
639 28-12-2019 14:00:00 1.325 C 5.15 g/m*3 1.33 C 0.26667 km/h
640 28-12-2019 15:00:00 1.08333 C 5.02 g/m*3 1.08 C 0.26667 km/h
641 28-12-2019 16:00:00 0.7 C 4.88 g/m*3 0.7 C 0 km/h
642 28-12-2019 17:00:00 0.19167 C 4.71 g/m*3 0.19 C 0 km/h
643 28-12-2019 18:00:00 -0.275 C 4.56 g/m*3 -0.28 C 0 km/h
644 28-12-2019 19:00:00 -0.525 C 4.49 g/m*3 -0.53 C 0 km/h
645 28-12-2019 20:00:00 -0.46667 C 4.5 g/m*3 -0.47 C 0.26667 km/h
646 28-12-2019 21:00:00 -0.45 C 4.51 g/m*3 -0.45 C 0.8 km/h
647 28-12-2019 22:00:00 -0.975 C 4.35 g/m*3 -0.98 C 0 km/h
648 28-12-2019 23:00:00 -1.26667 C 4.26 g/m*3 -1.27 C 0 km/h
649 29-12-2019 00:00:00 -1.58333 C 4.17 g/m*3 -1.58 C 0 km/h
650 29-12-2019 01:00:00 -1.925 C 4.07 g/m*3 -1.93 C 0 km/h
Sensor: Nr:Datum:Temp:Abs-Feuchte:Windchill:Wind:
Aussen-T/F 651 29-12-2019 02:00:00 -2.25833 C 3.97 g/m*3 -2.26 C 0 km/h
652 29-12-2019 03:00:00 -2.525 C 3.9 g/m*3 -2.53 C 0 km/h
653 29-12-2019 04:00:00 -2.65 C 3.87 g/m*3 -2.65 C 0 km/h
654 29-12-2019 05:00:00 -3 C 3.77 g/m*3 -3 C 0 km/h
655 29-12-2019 06:00:00 -3.26667 C 3.7 g/m*3 -3.27 C 0 km/h
656 29-12-2019 07:00:00 -3.54167 C 3.63 g/m*3 -3.54 C 0 km/h
657 29-12-2019 08:00:00 -3.24167 C 3.72 g/m*3 -3.24 C 0 km/h
658 29-12-2019 09:00:00 -2.90833 C 3.8 g/m*3 -2.91 C 0 km/h
659 29-12-2019 10:00:00 -2.51667 C 3.93 g/m*3 -2.52 C 0.13333 km/h
660 29-12-2019 11:00:00 -1.05833 C 4.37 g/m*3 -1.06 C 0.26667 km/h
661 29-12-2019 12:00:00 0.38333 C 4.83 g/m*3 0.38 C 0.66667 km/h
662 29-12-2019 13:00:00 1.36667 C 5.16 g/m*3 1.37 C 0 km/h
663 29-12-2019 14:00:00 2.05833 C 5.39 g/m*3 2.06 C 0.4 km/h
664 29-12-2019 15:00:00 2.25 C 5.23 g/m*3 2.25 C 2 km/h
665 29-12-2019 16:00:00 1.31667 C 4.9 g/m*3 1.32 C 0 km/h
666 29-12-2019 17:00:00 0.54167 C 4.72 g/m*3 0.54 C 0.26667 km/h
667 29-12-2019 18:00:00 0.64167 C 4.8 g/m*3 0.64 C 0 km/h
668 29-12-2019 19:00:00 0.08333 C 4.58 g/m*3 0.08 C 0 km/h
669 29-12-2019 20:00:00 -0.24167 C 4.48 g/m*3 -0.24 C 0 km/h
670 29-12-2019 21:00:00 -0.60833 C 4.37 g/m*3 -0.61 C 0.13333 km/h
671 29-12-2019 22:00:00 -1.09167 C 4.23 g/m*3 -1.09 C 0 km/h
672 29-12-2019 23:00:00 -1.33333 C 4.2 g/m*3 -1.33 C 0 km/h
673 30-12-2019 00:00:00 -1.66667 C 4.1 g/m*3 -1.67 C 0 km/h
674 30-12-2019 01:00:00 -1.825 C 4.05 g/m*3 -1.83 C 0 km/h
675 30-12-2019 02:00:00 -1.99167 C 4.03 g/m*3 -1.99 C 0 km/h
Sensor: Nr:Datum:Temp:Abs-Feuchte:Windchill:Wind:
Aussen-T/F 676 30-12-2019 03:00:00 -2.025 C 4.04 g/m*3 -2.03 C 0 km/h
677 30-12-2019 04:00:00 -2.38333 C 3.94 g/m*3 -2.38 C 0 km/h
678 30-12-2019 05:00:00 -2.59167 C 3.88 g/m*3 -2.59 C 0 km/h
679 30-12-2019 06:00:00 -2.675 C 3.86 g/m*3 -2.68 C 0 km/h
680 30-12-2019 07:00:00 -2.79167 C 3.83 g/m*3 -2.79 C 0 km/h
681 30-12-2019 08:00:00 -3.06667 C 3.75 g/m*3 -3.07 C 0 km/h
682 30-12-2019 09:00:00 -2.70833 C 3.85 g/m*3 -2.71 C 0 km/h
683 30-12-2019 10:00:00 -2.225 C 4 g/m*3 -2.23 C 0 km/h
684 30-12-2019 11:00:00 -1.61667 C 4.2 g/m*3 -1.62 C 0 km/h
685 30-12-2019 12:00:00 -0.725 C 4.47 g/m*3 -0.73 C 0.13333 km/h
686 30-12-2019 13:00:00 0.2 C 4.76 g/m*3 0.2 C 0.13333 km/h
687 30-12-2019 14:00:00 0.875 C 4.93 g/m*3 0.88 C 1.06667 km/h
688 30-12-2019 15:00:00 1.50833 C 5.07 g/m*3 1.51 C 1.6 km/h
689 30-12-2019 16:00:00 2.025 C 5.18 g/m*3 2.03 C 1.73333 km/h
690 30-12-2019 17:00:00 1.65 C 5.05 g/m*3 1.65 C 0 km/h
691 30-12-2019 18:00:00 0.90833 C 4.76 g/m*3 0.91 C 0 km/h
692 30-12-2019 19:00:00 0.28333 C 4.55 g/m*3 0.28 C 1.2 km/h
693 30-12-2019 20:00:00 0.18333 C 4.42 g/m*3 0.18 C 1.33333 km/h
694 30-12-2019 21:00:00 -0.175 C 4.41 g/m*3 -0.18 C 3.06667 km/h
695 30-12-2019 22:00:00 -0.23333 C 4.32 g/m*3 -0.23 C 1.86667 km/h
696 30-12-2019 23:00:00 -0.175 C 4.36 g/m*3 -0.18 C 1.73333 km/h
697 31-12-2019 00:00:00 -0.05 C 4.37 g/m*3 -0.05 C 1.2 km/h
698 31-12-2019 01:00:00 -0.15833 C 4.39 g/m*3 -0.16 C 1.33333 km/h
699 31-12-2019 02:00:00 -1.03333 C 4.18 g/m*3 -1.03 C 0.66667 km/h
700 31-12-2019 03:00:00 -0.9 C 4.28 g/m*3 -0.9 C 0.66667 km/h
Sensor: Nr:Datum:Temp:Abs-Feuchte:Windchill:Wind:
Aussen-T/F 701 31-12-2019 04:00:00 -1.53333 C 4.09 g/m*3 -1.53 C 0.4 km/h
702 31-12-2019 05:00:00 -1.70833 C 4.08 g/m*3 -1.71 C 0.26667 km/h
703 31-12-2019 06:00:00 -1.79167 C 4.06 g/m*3 -1.79 C 0.26667 km/h
704 31-12-2019 07:00:00 -1.70833 C 4.11 g/m*3 -1.71 C 0 km/h
705 31-12-2019 08:00:00 -0.70833 C 4.43 g/m*3 -0.71 C 1.86667 km/h
706 31-12-2019 09:00:00 -0.1 C 4.62 g/m*3 -0.1 C 0.53333 km/h
707 31-12-2019 10:00:00 0.46667 C 4.79 g/m*3 0.47 C 0.26667 km/h
708 31-12-2019 11:00:00 1.20833 C 4.95 g/m*3 1.21 C 0.13333 km/h
709 31-12-2019 12:00:00 2.275 C 5.23 g/m*3 2.28 C 1.33333 km/h
710 31-12-2019 13:00:00 2.84167 C 5.24 g/m*3 2.84 C 0.13333 km/h
711 31-12-2019 14:00:00 3.26667 C 5.31 g/m*3 3.27 C 0 km/h
712 31-12-2019 15:00:00 3.48333 C 5.37 g/m*3 3.48 C 0 km/h
713 31-12-2019 16:00:00 2.26667 C 5.05 g/m*3 2.27 C 0 km/h
714 31-12-2019 17:00:00 0.65833 C 4.69 g/m*3 0.66 C 0 km/h
715 31-12-2019 18:00:00 0.31667 C 4.67 g/m*3 0.32 C 0 km/h
716 31-12-2019 19:00:00 0.875 C 4.89 g/m*3 0.88 C 0 km/h
717 31-12-2019 20:00:00 1.26667 C 5.03 g/m*3 1.27 C 0 km/h
718 31-12-2019 21:00:00 1.23333 C 5.01 g/m*3 1.23 C 0.13333 km/h
719 31-12-2019 22:00:00 1.18333 C 4.99 g/m*3 1.18 C 0.13333 km/h
720 31-12-2019 23:00:00 0.90833 C 4.92 g/m*3 0.91 C 0 km/h
721 01-01-2020 00:00:00 0.98333 C 4.96 g/m*3 0.98 C 0.4 km/h
722 01-01-2020 01:00:00 0.35 C 4.75 g/m*3 0.35 C 0.4 km/h
723 01-01-2020 02:00:00 0.50833 C 4.82 g/m*3 0.51 C 0 km/h
724 01-01-2020 03:00:00 1.06667 C 5.01 g/m*3 1.07 C 0 km/h
725 01-01-2020 04:00:00 1.15 C 5.03 g/m*3 1.15 C 0.13333 km/h
Sensor: Nr:Datum:Temp:Abs-Feuchte:Windchill:Wind:
Aussen-T/F 726 01-01-2020 05:00:00 1.25 C 5.07 g/m*3 1.25 C 0 km/h
727 01-01-2020 06:00:00 1.26667 C 5.07 g/m*3 1.27 C 0.53333 km/h
728 01-01-2020 07:00:00 1.3 C 5.09 g/m*3 1.3 C 0 km/h
729 01-01-2020 08:00:00 1.425 C 5.13 g/m*3 1.43 C 0 km/h
730 01-01-2020 09:00:00 1.8 C 5.26 g/m*3 1.8 C 0 km/h
731 01-01-2020 10:00:00 2.53333 C 5.46 g/m*3 2.53 C 4.4 km/h
732 01-01-2020 11:00:00 3.125 C 5.5 g/m*3 1.71 C 5.60833 km/h
733 01-01-2020 12:00:00 3.375 C 5.49 g/m*3 3.38 C 2.53333 km/h
734 01-01-2020 13:00:00 2.70833 C 5.31 g/m*3 2.71 C 0.53333 km/h
735 01-01-2020 14:00:00 2.35833 C 5.33 g/m*3 2.36 C 0.13333 km/h
736 01-01-2020 15:00:00 2.25 C 5.32 g/m*3 2.25 C 0.93333 km/h
737 01-01-2020 16:00:00 1.33333 C 4.99 g/m*3 1.33 C 0 km/h
738 01-01-2020 17:00:00 0.21667 C 4.66 g/m*3 0.22 C 0 km/h
739 01-01-2020 18:00:00 -0.50833 C 4.46 g/m*3 -0.51 C 0 km/h
740 01-01-2020 19:00:00 -0.88333 C 4.37 g/m*3 -0.88 C 0 km/h
741 01-01-2020 20:00:00 -1.19167 C 4.28 g/m*3 -1.19 C 0 km/h
742 01-01-2020 21:00:00 -1.50833 C 4.19 g/m*3 -1.51 C 0 km/h
743 01-01-2020 22:00:00 -1.74167 C 4.12 g/m*3 -1.74 C 0 km/h
744 01-01-2020 23:00:00 -1.66667 C 4.16 g/m*3 -1.67 C 0 km/h
745 02-01-2020 00:00:00 -1.35 C 4.27 g/m*3 -1.35 C 0 km/h
746 02-01-2020 01:00:00 -1.11667 C 4.35 g/m*3 -1.12 C 0 km/h
747 02-01-2020 02:00:00 -0.65833 C 4.49 g/m*3 -0.66 C 0 km/h
748 02-01-2020 03:00:00 -0.26667 C 4.61 g/m*3 -0.27 C 0 km/h
749 02-01-2020 04:00:00 0.16667 C 4.75 g/m*3 0.17 C 0.8 km/h
750 02-01-2020 05:00:00 0.18333 C 4.76 g/m*3 0.18 C 4.28333 km/h
Sensor: Nr:Datum:Temp:Abs-Feuchte:Windchill:Wind:
Aussen-T/F 751 02-01-2020 06:00:00 0.10833 C 4.73 g/m*3 -2.46 C 7.525 km/h
752 02-01-2020 07:00:00 0.15833 C 4.69 g/m*3 0.16 C 4.95833 km/h
753 02-01-2020 08:00:00 0.45833 C 4.76 g/m*3 0.46 C 0.8 km/h
754 02-01-2020 09:00:00 0.925 C 4.91 g/m*3 0.93 C 2 km/h
755 02-01-2020 10:00:00 1.36667 C 5.06 g/m*3 1.37 C 0 km/h
756 02-01-2020 11:00:00 2.01667 C 5.22 g/m*3 2.02 C 0.4 km/h
757 02-01-2020 12:00:00 2.69167 C 5.37 g/m*3 2.69 C 0.93333 km/h
758 02-01-2020 13:00:00 3.19167 C 5.49 g/m*3 3.19 C 1.2 km/h
759 02-01-2020 14:00:00 3.6 C 5.68 g/m*3 3.6 C 0.8 km/h
760 02-01-2020 15:00:00 3.46667 C 5.65 g/m*3 3.47 C 1.6 km/h
761 02-01-2020 16:00:00 3.16667 C 5.59 g/m*3 3.17 C 0.4 km/h
762 02-01-2020 17:00:00 3.025 C 5.58 g/m*3 3.03 C 0 km/h
763 02-01-2020 18:00:00 2.9 C 5.56 g/m*3 2.9 C 0 km/h
764 02-01-2020 19:00:00 3.075 C 5.68 g/m*3 3.08 C 0 km/h
765 02-01-2020 20:00:00 3.2 C 5.72 g/m*3 3.2 C 0 km/h
766 02-01-2020 21:00:00 3.28333 C 5.76 g/m*3 3.28 C 0 km/h
767 02-01-2020 22:00:00 3.21667 C 5.77 g/m*3 3.22 C 0 km/h
768 02-01-2020 23:00:00 3.65833 C 5.97 g/m*3 3.66 C 0 km/h
769 03-01-2020 00:00:00 3.81667 C 6.03 g/m*3 3.82 C 0 km/h
770 03-01-2020 01:00:00 4.24167 C 6.2 g/m*3 4.24 C 0 km/h
771 03-01-2020 02:00:00 4.53333 C 6.32 g/m*3 4.53 C 0 km/h
772 03-01-2020 03:00:00 4.76667 C 6.48 g/m*3 4.77 C 0 km/h
773 03-01-2020 04:00:00 4.86667 C 6.53 g/m*3 4.87 C 0.66667 km/h
774 03-01-2020 05:00:00 5.08333 C 6.62 g/m*3 5.08 C 1.33333 km/h
775 03-01-2020 06:00:00 5.425 C 6.73 g/m*3 5.43 C 3.075 km/h
Sensor: Nr:Datum:Temp:Abs-Feuchte:Windchill:Wind:
Aussen-T/F 776 03-01-2020 07:00:00 7.875 C 7.54 g/m*3 5.73 C 12.08333 km/h
777 03-01-2020 08:00:00 8.34167 C 7.45 g/m*3 6.96 C 8.45833 km/h
778 03-01-2020 09:00:00 8.675 C 7.43 g/m*3 7.01 C 10.23333 km/h
779 03-01-2020 10:00:00 8.91667 C 7.42 g/m*3 6.41 C 16.36667 km/h
780 03-01-2020 11:00:00 8.99167 C 7.49 g/m*3 5.86 C 22.51667 km/h
781 03-01-2020 12:00:00 8.89167 C 7.51 g/m*3 5.91 C 20.64167 km/h
782 03-01-2020 13:00:00 8.91667 C 7.63 g/m*3 5.99 C 20.23333 km/h
783 03-01-2020 14:00:00 8.93333 C 7.75 g/m*3 6.72 C 14.1 km/h
784 03-01-2020 15:00:00 9.29167 C 7.94 g/m*3 7.18 C 13.96667 km/h
785 03-01-2020 16:00:00 9.38333 C 8.03 g/m*3 7.07 C 15.7 km/h
786 03-01-2020 17:00:00 9.29167 C 8.08 g/m*3 6.99 C 15.43333 km/h
787 03-01-2020 18:00:00 9.56667 C 8.23 g/m*3 7.34 C 15.3 km/h
788 03-01-2020 19:00:00 9.60833 C 8.33 g/m*3 7.91 C 11.56667 km/h
789 03-01-2020 20:00:00 9.58333 C 8.43 g/m*3 8.26 C 9.29167 km/h
790 03-01-2020 21:00:00 8.56667 C 7.91 g/m*3 6.04 C 15.83333 km/h
791 03-01-2020 22:00:00 7.21667 C 7.15 g/m*3 4.71 C 13.425 km/h
792 03-01-2020 23:00:00 6.68333 C 6.91 g/m*3 5.26 C 7.4 km/h
793 04-01-2020 00:00:00 6.34167 C 6.83 g/m*3 6.34 C 4.55 km/h
794 04-01-2020 01:00:00 5.70833 C 6.52 g/m*3 5.71 C 2.26667 km/h
795 04-01-2020 02:00:00 4.70833 C 6.13 g/m*3 4.71 C 2.675 km/h
796 04-01-2020 03:00:00 4.41667 C 6.1 g/m*3 4.42 C 2.13333 km/h
797 04-01-2020 04:00:00 4.15 C 5.95 g/m*3 4.15 C 2.66667 km/h
798 04-01-2020 05:00:00 3.30833 C 5.65 g/m*3 3.31 C 2 km/h
799 04-01-2020 06:00:00 2.90833 C 5.55 g/m*3 1.26 C 6.16667 km/h
800 04-01-2020 07:00:00 2.93333 C 5.5 g/m*3 2.93 C 4.675 km/h
Sensor: Nr:Datum:Temp:Abs-Feuchte:Windchill:Wind:
Aussen-T/F 801 04-01-2020 08:00:00 2.26667 C 5.3 g/m*3 2.27 C 2.26667 km/h
802 04-01-2020 09:00:00 2.075 C 5.29 g/m*3 2.08 C 2.13333 km/h
803 04-01-2020 10:00:00 3.32857 C 5.73 g/m*3 1.73 C 6.2 km/h
804 04-01-2020 11:00:00 5.73333 C 6.23 g/m*3 3.73 C 9.125 km/h
805 04-01-2020 12:00:00 6.48333 C 6.39 g/m*3 4.41 C 10.08333 km/h
806 04-01-2020 13:00:00 7.11667 C 6.55 g/m*3 4.72 C 12.63333 km/h
807 04-01-2020 14:00:00 7.48333 C 6.58 g/m*3 5.21 C 12.36667 km/h
808 04-01-2020 15:00:00 7.41667 C 6.6 g/m*3 5.63 C 9.55833 km/h
809 04-01-2020 16:00:00 7.25833 C 6.54 g/m*3 5.62 C 8.74167 km/h
810 04-01-2020 17:00:00 7.175 C 6.49 g/m*3 5.32 C 9.675 km/h
811 04-01-2020 18:00:00 7.08333 C 6.47 g/m*3 5.08 C 10.36667 km/h
812 04-01-2020 19:00:00 6.96667 C 6.53 g/m*3 5.22 C 8.99167 km/h
813 04-01-2020 20:00:00 6.54167 C 6.57 g/m*3 5.33 C 6.56667 km/h
814 04-01-2020 21:00:00 6.475 C 6.78 g/m*3 5.37 C 6.15833 km/h
815 04-01-2020 22:00:00 6.125 C 6.86 g/m*3 5.24 C 5.34167 km/h
816 04-01-2020 23:00:00 6.13333 C 6.83 g/m*3 5.25 C 5.34167 km/h
817 05-01-2020 00:00:00 6.14167 C 6.81 g/m*3 6.14 C 3.6 km/h
818 05-01-2020 01:00:00 5.9 C 6.76 g/m*3 5.9 C 3.2 km/h
819 05-01-2020 02:00:00 5.625 C 6.72 g/m*3 5.63 C 1.86667 km/h
820 05-01-2020 03:00:00 5.35 C 6.61 g/m*3 5.35 C 0.93333 km/h
821 05-01-2020 04:00:00 5.26667 C 6.64 g/m*3 5.27 C 0.93333 km/h
822 05-01-2020 05:00:00 5.31667 C 6.66 g/m*3 5.32 C 0.53333 km/h
823 05-01-2020 06:00:00 5.4 C 6.7 g/m*3 5.4 C 0.93333 km/h
824 05-01-2020 07:00:00 5.36667 C 6.68 g/m*3 5.37 C 0.26667 km/h
825 05-01-2020 08:00:00 5.19 C 6.61 g/m*3 5.19 C 0.64 km/h
Sensor: Nr:Datum:Temp:Abs-Feuchte:Windchill:Wind:
Aussen-T/F 826 05-01-2020 09:00:00 5.33 C 6.67 g/m*3 5.33 C 4.8 km/h
827 05-01-2020 10:00:00 5.8 C 6.82 g/m*3 4.68 C 5.88333 km/h
828 05-01-2020 11:00:00 6.25833 C 6.9 g/m*3 5.34 C 5.49167 km/h
829 05-01-2020 12:00:00 6.6 C 6.96 g/m*3 5.77 C 5.35 km/h
830 05-01-2020 13:00:00 6.93333 C 7.05 g/m*3 6.2 C 5.20833 km/h
831 05-01-2020 14:00:00 7.20833 C 7.08 g/m*3 7.21 C 2.8 km/h
832 05-01-2020 15:00:00 7.20833 C 7.11 g/m*3 7.21 C 0.8 km/h
833 05-01-2020 16:00:00 6.79167 C 7.02 g/m*3 6.79 C 0 km/h
834 05-01-2020 17:00:00 6.24167 C 6.77 g/m*3 6.24 C 1.73333 km/h
835 05-01-2020 18:00:00 6.16667 C 6.63 g/m*3 6.17 C 2.26667 km/h
836 05-01-2020 19:00:00 6.11667 C 6.56 g/m*3 6.12 C 0.4 km/h
837 05-01-2020 20:00:00 5.90833 C 6.51 g/m*3 5.91 C 0.4 km/h
838 05-01-2020 21:00:00 5.8 C 6.51 g/m*3 5.8 C 0 km/h
839 05-01-2020 22:00:00 5.58333 C 6.5 g/m*3 5.58 C 0 km/h
840 05-01-2020 23:00:00 5.30833 C 6.43 g/m*3 5.31 C 0 km/h
841 06-01-2020 00:00:00 5.11667 C 6.3 g/m*3 5.12 C 0 km/h
842 06-01-2020 01:00:00 4.98333 C 6.2 g/m*3 4.98 C 0 km/h
843 06-01-2020 02:00:00 4.84167 C 6.12 g/m*3 4.84 C 0 km/h
844 06-01-2020 03:00:00 4.71667 C 6.08 g/m*3 4.72 C 0 km/h
845 06-01-2020 04:00:00 4.61667 C 6.04 g/m*3 4.62 C 0.13333 km/h
846 06-01-2020 05:00:00 4.4 C 6 g/m*3 4.4 C 0 km/h
847 06-01-2020 06:00:00 4.15833 C 5.92 g/m*3 4.16 C 0 km/h
848 06-01-2020 07:00:00 3.76667 C 5.78 g/m*3 3.77 C 0 km/h
849 06-01-2020 08:00:00 3.36667 C 5.65 g/m*3 3.37 C 0 km/h
850 06-01-2020 09:00:00 3.475 C 5.69 g/m*3 3.48 C 0 km/h
Sensor: Nr:Datum:Temp:Abs-Feuchte:Windchill:Wind:
Aussen-T/F 851 06-01-2020 10:00:00 3.73333 C 5.7 g/m*3 3.73 C 0 km/h
852 06-01-2020 11:00:00 2.975 C 5.48 g/m*3 2.98 C 1.06667 km/h
853 06-01-2020 12:00:00 3.10833 C 5.57 g/m*3 3.11 C 1.2 km/h
854 06-01-2020 13:00:00 3.2 C 5.65 g/m*3 3.2 C 0.93333 km/h
855 06-01-2020 14:00:00 3.26667 C 5.69 g/m*3 3.27 C 0.53333 km/h
856 06-01-2020 15:00:00 3.4 C 5.74 g/m*3 3.4 C 2.53333 km/h
857 06-01-2020 16:00:00 2.925 C 5.56 g/m*3 2.93 C 1.73333 km/h
858 06-01-2020 17:00:00 1.85833 C 5.19 g/m*3 1.86 C 0.66667 km/h
859 06-01-2020 18:00:00 1.01667 C 4.92 g/m*3 1.02 C 0.93333 km/h
860 06-01-2020 19:00:00 0.39167 C 4.73 g/m*3 0.39 C 1.2 km/h
861 06-01-2020 20:00:00 -0.125 C 4.58 g/m*3 -0.13 C 0.53333 km/h
862 06-01-2020 21:00:00 -0.11667 C 4.61 g/m*3 -0.12 C 0 km/h
863 06-01-2020 22:00:00 0.98333 C 5 g/m*3 0.98 C 2.40833 km/h
864 06-01-2020 23:00:00 1.59167 C 5.19 g/m*3 1.59 C 1.06667 km/h
865 07-01-2020 00:00:00 2.34167 C 5.46 g/m*3 2.34 C 4.55 km/h
866 07-01-2020 01:00:00 3.15 C 5.69 g/m*3 1.95 C 5.09167 km/h
867 07-01-2020 02:00:00 3.71667 C 5.83 g/m*3 1.65 C 7.925 km/h
868 07-01-2020 03:00:00 3.7 C 5.86 g/m*3 1.66 C 7.8 km/h
869 07-01-2020 04:00:00 3.93333 C 5.96 g/m*3 1.55 C 9.275 km/h
870 07-01-2020 05:00:00 4.26667 C 6.08 g/m*3 1.76 C 10.08333 km/h
871 07-01-2020 06:00:00 4.6 C 6.21 g/m*3 2.07 C 10.5 km/h
872 07-01-2020 07:00:00 5 C 6.32 g/m*3 2.82 C 9.28333 km/h
873 07-01-2020 08:00:00 4.925 C 6.29 g/m*3 3.25 C 7.25 km/h
874 07-01-2020 09:00:00 4.725 C 6.31 g/m*3 3.54 C 5.625 km/h
875 07-01-2020 10:00:00 5.68333 C 6.66 g/m*3 4.18 C 7.10833 km/h
Sensor: Nr:Datum:Temp:Abs-Feuchte:Windchill:Wind:
Aussen-T/F 876 07-01-2020 11:00:00 6.6 C 6.95 g/m*3 4.75 C 9.15 km/h
877 07-01-2020 12:00:00 7.1 C 6.96 g/m*3 4.67 C 12.76667 km/h
878 07-01-2020 13:00:00 7.28333 C 6.98 g/m*3 5.35 C 10.20833 km/h
879 07-01-2020 14:00:00 7.38333 C 6.92 g/m*3 5.83 C 8.46667 km/h
880 07-01-2020 15:00:00 6.925 C 6.75 g/m*3 6.15 C 5.34167 km/h
881 07-01-2020 16:00:00 5.84167 C 6.46 g/m*3 5.84 C 2.13333 km/h
882 07-01-2020 17:00:00 4.54167 C 6.12 g/m*3 4.54 C 3.06667 km/h
883 07-01-2020 18:00:00 4.025 C 6 g/m*3 4.03 C 2.8 km/h
884 07-01-2020 19:00:00 3.65833 C 5.9 g/m*3 3.66 C 2.66667 km/h
885 07-01-2020 20:00:00 4.20833 C 6.16 g/m*3 4.21 C 4.55 km/h
886 07-01-2020 21:00:00 5.49167 C 6.5 g/m*3 3.66 C 8.2 km/h
887 07-01-2020 22:00:00 6.20833 C 6.52 g/m*3 5.1 C 6.04167 km/h
888 07-01-2020 23:00:00 6.56667 C 6.51 g/m*3 6.57 C 4.425 km/h
889 08-01-2020 00:00:00 6.26667 C 6.38 g/m*3 6.27 C 2.40833 km/h
890 08-01-2020 01:00:00 6.13333 C 6.3 g/m*3 6.13 C 2.8 km/h
891 08-01-2020 02:00:00 5.85833 C 6.32 g/m*3 5.86 C 2.53333 km/h
892 08-01-2020 03:00:00 6.45833 C 6.65 g/m*3 6.46 C 4.81667 km/h
893 08-01-2020 04:00:00 6.575 C 6.74 g/m*3 6.58 C 1.86667 km/h
894 08-01-2020 05:00:00 6.44167 C 6.82 g/m*3 6.44 C 0.13333 km/h
895 08-01-2020 06:00:00 6.7 C 7.05 g/m*3 6.7 C 2.13333 km/h
896 08-01-2020 07:00:00 7.04167 C 7.33 g/m*3 7.04 C 1.46667 km/h
897 08-01-2020 08:00:00 7.175 C 7.46 g/m*3 7.18 C 4.29167 km/h
898 08-01-2020 09:00:00 7.475 C 7.67 g/m*3 6.86 C 5.1 km/h
899 08-01-2020 10:00:00 7.85833 C 7.82 g/m*3 6.01 C 10.35833 km/h
900 08-01-2020 11:00:00 8.24167 C 7.9 g/m*3 6.9 C 8.20833 km/h
Sensor: Nr:Datum:Temp:Abs-Feuchte:Windchill:Wind:
Aussen-T/F 901 08-01-2020 12:00:00 8.375 C 7.96 g/m*3 8.38 C 2.26667 km/h
902 08-01-2020 13:00:00 9.05833 C 8.27 g/m*3 9.06 C 4.68333 km/h
903 08-01-2020 14:00:00 9.36667 C 8.39 g/m*3 9.37 C 3.075 km/h
904 08-01-2020 15:00:00 9.73333 C 8.51 g/m*3 8.68 C 8.05833 km/h
905 08-01-2020 16:00:00 9.78333 C 8.57 g/m*3 9.78 C 4.55 km/h
906 08-01-2020 17:00:00 9.8 C 8.63 g/m*3 8.88 C 7.51667 km/h
907 08-01-2020 18:00:00 9.71667 C 8.64 g/m*3 9.1 C 6.18333 km/h
908 08-01-2020 19:00:00 9.95833 C 8.81 g/m*3 9.56 C 5.49167 km/h
909 08-01-2020 20:00:00 10.175 C 8.93 g/m*3 9.6 C 6.3 km/h
910 08-01-2020 21:00:00 10.3 C 9 g/m*3 9.78 C 6.15833 km/h
911 08-01-2020 22:00:00 10.20833 C 8.99 g/m*3 10.21 C 4.41667 km/h
912 08-01-2020 23:00:00 10.1 C 8.98 g/m*3 10.1 C 1.6 km/h
913 09-01-2020 00:00:00 9.89167 C 8.88 g/m*3 9.89 C 0 km/h
914 09-01-2020 01:00:00 9.78333 C 8.9 g/m*3 9.78 C 0 km/h
915 09-01-2020 02:00:00 9.59167 C 8.79 g/m*3 9.59 C 1.46667 km/h
916 09-01-2020 03:00:00 9.425 C 8.7 g/m*3 9.43 C 1.6 km/h
917 09-01-2020 04:00:00 9.23333 C 8.62 g/m*3 9.23 C 0.13333 km/h
918 09-01-2020 05:00:00 9.25 C 8.69 g/m*3 9.25 C 0.26667 km/h
919 09-01-2020 06:00:00 9.21667 C 8.67 g/m*3 9.22 C 0.26667 km/h
920 09-01-2020 07:00:00 9.48333 C 8.82 g/m*3 9.48 C 1.2 km/h
921 09-01-2020 08:00:00 9.79167 C 9.04 g/m*3 9.79 C 1.475 km/h
922 09-01-2020 09:00:00 10.53333 C 9.49 g/m*3 10.53 C 4.28333 km/h
923 09-01-2020 10:00:00 11.11667 C 9.71 g/m*3 11.12 C 5.61667 km/h
924 09-01-2020 11:00:00 12.125 C 9.98 g/m*3 12.13 C 10.48333 km/h
925 09-01-2020 12:00:00 12.95833 C 10.08 g/m*3 12.96 C 13.83333 km/h
Sensor: Nr:Datum:Temp:Abs-Feuchte:Windchill:Wind:
Aussen-T/F 926 09-01-2020 13:00:00 13.325 C 10.1 g/m*3 13.33 C 15.43333 km/h
927 09-01-2020 14:00:00 13.11667 C 10.03 g/m*3 13.12 C 9.95 km/h
928 09-01-2020 15:00:00 12.925 C 9.96 g/m*3 12.93 C 9.81667 km/h
929 09-01-2020 16:00:00 12.79167 C 9.85 g/m*3 12.79 C 6.43333 km/h
930 09-01-2020 17:00:00 12.59167 C 9.67 g/m*3 12.59 C 5.08333 km/h
931 09-01-2020 18:00:00 12.05833 C 9.47 g/m*3 12.06 C 4.68333 km/h
932 09-01-2020 19:00:00 11.73333 C 9.24 g/m*3 11.73 C 4.01667 km/h
933 09-01-2020 20:00:00 10.9 C 9.07 g/m*3 10.9 C 3.61667 km/h
934 09-01-2020 21:00:00 10.21667 C 8.83 g/m*3 10.22 C 2.94167 km/h
935 09-01-2020 22:00:00 9.875 C 8.72 g/m*3 9.88 C 1.2 km/h
936 09-01-2020 23:00:00 10.275 C 8.6 g/m*3 9.82 C 5.89167 km/h
937 10-01-2020 00:00:00 10.5 C 8.57 g/m*3 10.5 C 3.625 km/h
938 10-01-2020 01:00:00 10.28333 C 8.51 g/m*3 10.28 C 3.875 km/h
939 10-01-2020 02:00:00 10.23333 C 8.46 g/m*3 9.32 C 7.79167 km/h
940 10-01-2020 03:00:00 10.29167 C 8.36 g/m*3 9.4 C 7.775 km/h
941 10-01-2020 04:00:00 10.325 C 8.01 g/m*3 8.88 C 10.89167 km/h
942 10-01-2020 05:00:00 10.025 C 7.85 g/m*3 9.22 C 7.13333 km/h
943 10-01-2020 06:00:00 9.55 C 8.02 g/m*3 9.55 C 2 km/h
944 10-01-2020 07:00:00 8.71667 C 8.05 g/m*3 8.72 C 0.26667 km/h
945 10-01-2020 08:00:00 8.43333 C 7.98 g/m*3 8.43 C 0.26667 km/h
946 10-01-2020 09:00:00 8.99167 C 8.03 g/m*3 8.99 C 2.81667 km/h
947 10-01-2020 10:00:00 9.675 C 8.11 g/m*3 9.68 C 2.94167 km/h
948 10-01-2020 11:00:00 10.39167 C 8.28 g/m*3 9.09 C 10.075 km/h
949 10-01-2020 12:00:00 10.70833 C 8.47 g/m*3 8.82 C 14.76667 km/h
950 10-01-2020 13:00:00 9.41667 C 8.18 g/m*3 9.42 C 4.28333 km/h
Sensor: Nr:Datum:Temp:Abs-Feuchte:Windchill:Wind:
Aussen-T/F 951 10-01-2020 14:00:00 9.1 C 7.86 g/m*3 7.91 C 8.19167 km/h
952 10-01-2020 15:00:00 9.15833 C 7.53 g/m*3 7.79 C 9.13333 km/h
953 10-01-2020 16:00:00 8.51667 C 7.51 g/m*3 6.68 C 11.01667 km/h
954 10-01-2020 17:00:00 7.75 C 7.23 g/m*3 5.95 C 9.95833 km/h
955 10-01-2020 18:00:00 7.7 C 7.16 g/m*3 6.32 C 7.91667 km/h
956 10-01-2020 19:00:00 7.225 C 7.1 g/m*3 5.61 C 8.59167 km/h
957 10-01-2020 20:00:00 6.9 C 6.92 g/m*3 5.98 C 5.75833 km/h
958 10-01-2020 21:00:00 6.66667 C 6.72 g/m*3 6.67 C 2.675 km/h
959 10-01-2020 22:00:00 6.66667 C 6.65 g/m*3 6.67 C 4.68333 km/h
960 10-01-2020 23:00:00 6.775 C 6.63 g/m*3 5.84 C 5.75 km/h
961 11-01-2020 00:00:00 6.20833 C 6.41 g/m*3 6.21 C 3.2 km/h
962 11-01-2020 01:00:00 4.93333 C 6.14 g/m*3 4.93 C 0.26667 km/h
963 11-01-2020 02:00:00 4.4 C 5.99 g/m*3 4.4 C 0.66667 km/h
964 11-01-2020 03:00:00 3.59167 C 5.79 g/m*3 3.59 C 1.06667 km/h
965 11-01-2020 04:00:00 3.80833 C 5.96 g/m*3 3.81 C 0.8 km/h
966 11-01-2020 05:00:00 3.725 C 5.91 g/m*3 3.73 C 1.46667 km/h
967 11-01-2020 06:00:00 3.59167 C 5.88 g/m*3 3.59 C 3.34167 km/h
968 11-01-2020 07:00:00 3.31667 C 5.73 g/m*3 3.32 C 2.66667 km/h
969 11-01-2020 08:00:00 1.94167 C 5.21 g/m*3 1.94 C 1.74167 km/h
970 11-01-2020 09:00:00 2.15833 C 5.36 g/m*3 0.77 C 5.20833 km/h
971 11-01-2020 10:00:00 2.85 C 5.59 g/m*3 2.85 C 4.55833 km/h
972 11-01-2020 11:00:00 3.94167 C 5.95 g/m*3 3.94 C 0.8 km/h
973 11-01-2020 12:00:00 5.89167 C 6.19 g/m*3 5.89 C 3.2 km/h
974 11-01-2020 13:00:00 7.15833 C 5.92 g/m*3 5.3 C 9.66667 km/h
975 11-01-2020 14:00:00 7.075 C 5.87 g/m*3 5.62 C 7.78333 km/h
Sensor: Nr:Datum:Temp:Abs-Feuchte:Windchill:Wind:
Aussen-T/F 976 11-01-2020 15:00:00 6.925 C 5.93 g/m*3 6.93 C 3.60833 km/h
977 11-01-2020 16:00:00 6.76667 C 5.93 g/m*3 5.91 C 5.5 km/h
978 11-01-2020 17:00:00 6.26667 C 5.82 g/m*3 6.27 C 3.88333 km/h
979 11-01-2020 18:00:00 5.44167 C 5.75 g/m*3 5.44 C 1.33333 km/h
980 11-01-2020 19:00:00 3.95 C 5.57 g/m*3 3.95 C 2.26667 km/h
981 11-01-2020 20:00:00 3.19167 C 5.42 g/m*3 3.19 C 2.53333 km/h
982 11-01-2020 21:00:00 2.675 C 5.3 g/m*3 2.68 C 2.13333 km/h
983 11-01-2020 22:00:00 2.29167 C 5.23 g/m*3 2.29 C 0.8 km/h
984 11-01-2020 23:00:00 2.11667 C 5.18 g/m*3 2.12 C 1.34167 km/h
985 12-01-2020 00:00:00 1.95 C 5.15 g/m*3 1.95 C 2.93333 km/h
986 12-01-2020 01:00:00 1.99167 C 5.17 g/m*3 1.99 C 2.26667 km/h
987 12-01-2020 02:00:00 2.46667 C 5.31 g/m*3 2.47 C 2.4 km/h
988 12-01-2020 03:00:00 2.48333 C 5.28 g/m*3 2.48 C 2.53333 km/h
989 12-01-2020 04:00:00 2.59167 C 5.38 g/m*3 2.59 C 0.66667 km/h
990 12-01-2020 05:00:00 3.73333 C 5.63 g/m*3 3.73 C 2.80833 km/h
991 12-01-2020 06:00:00 4.275 C 5.65 g/m*3 2.34 C 7.78333 km/h
992 12-01-2020 07:00:00 4.325 C 5.64 g/m*3 1.55 C 11.425 km/h
993 12-01-2020 08:00:00 4.425 C 5.61 g/m*3 1.47 C 12.49167 km/h
994 12-01-2020 09:00:00 4.825 C 5.69 g/m*3 1.55 C 14.9 km/h
995 12-01-2020 10:00:00 5.325 C 5.8 g/m*3 2.42 C 13.3 km/h
996 12-01-2020 11:00:00 5.7 C 5.87 g/m*3 2.95 C 12.88333 km/h
997 12-01-2020 12:00:00 6.26667 C 6.03 g/m*3 3.19 C 15.83333 km/h
998 12-01-2020 13:00:00 6.75833 C 6.24 g/m*3 4.19 C 13.16667 km/h
999 12-01-2020 14:00:00 7.18333 C 6.45 g/m*3 4.49 C 14.63333 km/h
1000 12-01-2020 15:00:00 7.18333 C 6.57 g/m*3 4.07 C 17.84167 km/h
Sensor: Nr:Datum:Temp:Abs-Feuchte:Windchill:Wind:
Aussen-T/F 1001 12-01-2020 16:00:00 6.88333 C 6.56 g/m*3 3.48 C 19.7 km/h
1002 12-01-2020 17:00:00 6.525 C 6.57 g/m*3 2.92 C 20.63333 km/h
1003 12-01-2020 18:00:00 6.15833 C 6.51 g/m*3 3.35 C 13.83333 km/h
1004 12-01-2020 19:00:00 6.16667 C 6.6 g/m*3 4.52 C 7.93333 km/h
1005 12-01-2020 20:00:00 6.4 C 6.73 g/m*3 4.15 C 10.9 km/h
1006 12-01-2020 21:00:00 6.65 C 6.89 g/m*3 4.36 C 11.41667 km/h
1007 12-01-2020 22:00:00 6.80833 C 6.94 g/m*3 4.97 C 9.26667 km/h
1008 12-01-2020 23:00:00 6.35 C 6.79 g/m*3 5.07 C 6.69167 km/h
1009 13-01-2020 00:00:00 6.81667 C 6.97 g/m*3 4.78 C 10.225 km/h
1010 13-01-2020 01:00:00 6.775 C 7.04 g/m*3 6.78 C 3.88333 km/h
1011 13-01-2020 02:00:00 6.56667 C 7.07 g/m*3 6.57 C 3.73333 km/h
1012 13-01-2020 03:00:00 6.03333 C 6.8 g/m*3 6.03 C 0.8 km/h
1013 13-01-2020 04:00:00 4.80833 C 6.32 g/m*3 4.81 C 2.53333 km/h
1014 13-01-2020 05:00:00 5.08333 C 6.54 g/m*3 5.08 C 1.33333 km/h
1015 13-01-2020 06:00:00 5.28333 C 6.61 g/m*3 5.28 C 0.94167 km/h
1016 13-01-2020 07:00:00 4.76667 C 6.36 g/m*3 4.77 C 2.675 km/h
1017 13-01-2020 08:00:00 4.88333 C 6.43 g/m*3 4.88 C 1.2 km/h
1018 13-01-2020 09:00:00 5.65833 C 6.74 g/m*3 5.66 C 3.06667 km/h
1019 13-01-2020 10:00:00 6.63333 C 7.03 g/m*3 6.63 C 4.95 km/h
1020 13-01-2020 11:00:00 7.65 C 7.27 g/m*3 7.06 C 5.075 km/h
1021 13-01-2020 12:00:00 8.25833 C 7.38 g/m*3 8.26 C 2.66667 km/h
1022 13-01-2020 13:00:00 8.15833 C 7.4 g/m*3 8.16 C 3.74167 km/h
1023 13-01-2020 14:00:00 7.875 C 7.44 g/m*3 7.88 C 1.06667 km/h
1024 13-01-2020 15:00:00 7.95833 C 7.2 g/m*3 7.96 C 2 km/h
1025 13-01-2020 16:00:00 7.81667 C 7.04 g/m*3 7.82 C 1.33333 km/h
Sensor: Nr:Datum:Temp:Abs-Feuchte:Windchill:Wind:
Aussen-T/F 1026 13-01-2020 17:00:00 7.14167 C 6.84 g/m*3 7.14 C 0.4 km/h
1027 13-01-2020 18:00:00 6.35833 C 6.7 g/m*3 6.36 C 1.06667 km/h
1028 13-01-2020 19:00:00 6.525 C 6.79 g/m*3 6.53 C 1.06667 km/h
1029 13-01-2020 20:00:00 6.39167 C 6.79 g/m*3 6.39 C 0 km/h
1030 13-01-2020 21:00:00 6.3 C 6.81 g/m*3 6.3 C 0 km/h
1031 13-01-2020 22:00:00 6.425 C 6.94 g/m*3 6.43 C 0.66667 km/h
1032 13-01-2020 23:00:00 6.84167 C 7.12 g/m*3 6.84 C 1.34167 km/h
1033 14-01-2020 00:00:00 7.15833 C 7.28 g/m*3 7.16 C 1.33333 km/h
1034 14-01-2020 01:00:00 6.76667 C 7.07 g/m*3 6.77 C 0.66667 km/h
1035 14-01-2020 02:00:00 6.925 C 7.07 g/m*3 6.93 C 2.13333 km/h
1036 14-01-2020 03:00:00 7.25 C 7.04 g/m*3 7.25 C 1.2 km/h
1037 14-01-2020 04:00:00 7.53333 C 7.07 g/m*3 7.53 C 2.8 km/h
1038 14-01-2020 05:00:00 8.18333 C 7.12 g/m*3 7.58 C 5.35 km/h
1039 14-01-2020 06:00:00 8.175 C 6.97 g/m*3 8.18 C 4.425 km/h
1040 14-01-2020 07:00:00 8.01667 C 6.85 g/m*3 8.02 C 4.68333 km/h
1041 14-01-2020 08:00:00 8.46667 C 6.84 g/m*3 6.81 C 9.95833 km/h
1042 14-01-2020 09:00:00 8.89167 C 7.05 g/m*3 7.22 C 10.49167 km/h
1043 14-01-2020 10:00:00 9.48333 C 7.21 g/m*3 7.93 C 10.475 km/h
1044 14-01-2020 11:00:00 9.84167 C 7.1 g/m*3 9.05 C 6.96667 km/h
1045 14-01-2020 12:00:00 10.20833 C 6.98 g/m*3 9.44 C 7.10833 km/h
1046 14-01-2020 13:00:00 10.7 C 7.21 g/m*3 10.7 C 3.88333 km/h
1047 14-01-2020 14:00:00 11.95833 C 7.17 g/m*3 11.96 C 8.2 km/h
1048 14-01-2020 15:00:00 12.11667 C 7.08 g/m*3 12.12 C 8.30833 km/h
1049 14-01-2020 16:00:00 11.425 C 6.85 g/m*3 11.43 C 6.58333 km/h
1050 14-01-2020 17:00:00 11.23333 C 6.84 g/m*3 11.23 C 10.075 km/h
Sensor: Nr:Datum:Temp:Abs-Feuchte:Windchill:Wind:
Aussen-T/F 1051 14-01-2020 18:00:00 11.31667 C 7.23 g/m*3 11.32 C 9.25833 km/h
1052 14-01-2020 19:00:00 11.46667 C 7.76 g/m*3 11.47 C 13.025 km/h
1053 14-01-2020 20:00:00 11.475 C 7.61 g/m*3 11.48 C 13.96667 km/h
1054 14-01-2020 21:00:00 11.95833 C 7.4 g/m*3 11.96 C 13.69167 km/h
1055 14-01-2020 22:00:00 11.96667 C 7.52 g/m*3 11.97 C 6.96667 km/h
1056 14-01-2020 23:00:00 12 C 7.74 g/m*3 12 C 8.875 km/h
1057 15-01-2020 00:00:00 11.875 C 7.51 g/m*3 11.88 C 8.2 km/h
1058 15-01-2020 01:00:00 11.54167 C 7.46 g/m*3 11.54 C 6.7 km/h
1059 15-01-2020 02:00:00 10.95 C 7.65 g/m*3 10.73 C 5.35833 km/h
1060 15-01-2020 03:00:00 10.48333 C 7.83 g/m*3 10.48 C 2.675 km/h
1061 15-01-2020 04:00:00 9.68333 C 7.74 g/m*3 9.68 C 1.2 km/h
1062 15-01-2020 05:00:00 9.69167 C 7.58 g/m*3 9.69 C 4.28333 km/h
1063 15-01-2020 06:00:00 10.225 C 7.35 g/m*3 9.98 C 5.09167 km/h
1064 15-01-2020 07:00:00 8.39167 C 6.9 g/m*3 8.39 C 1.2 km/h
1065 15-01-2020 08:00:00 6.98333 C 6.68 g/m*3 6.98 C 0.66667 km/h
1066 15-01-2020 09:00:00 7.49167 C 6.89 g/m*3 7.49 C 1.73333 km/h
1067 15-01-2020 10:00:00 8.01667 C 7.12 g/m*3 8.02 C 1.73333 km/h
1068 15-01-2020 11:00:00 9.96667 C 7.39 g/m*3 9.97 C 3.475 km/h
1069 15-01-2020 12:00:00 11.725 C 7.43 g/m*3 11.73 C 4.95833 km/h
1070 15-01-2020 13:00:00 12.575 C 7.48 g/m*3 12.58 C 7.25 km/h
1071 15-01-2020 14:00:00 12.3 C 7.57 g/m*3 12.3 C 5.625 km/h
1072 15-01-2020 15:00:00 13.20833 C 7.5 g/m*3 13.21 C 13.55 km/h
1073 15-01-2020 16:00:00 13.09167 C 7.58 g/m*3 13.09 C 5.63333 km/h
1074 15-01-2020 17:00:00 12.38333 C 7.69 g/m*3 12.38 C 3.20833 km/h
1075 15-01-2020 18:00:00 12 C 7.67 g/m*3 12 C 3.075 km/h
Sensor: Nr:Datum:Temp:Abs-Feuchte:Windchill:Wind:
Aussen-T/F 1076 15-01-2020 19:00:00 12.68333 C 7.77 g/m*3 12.68 C 7.375 km/h
1077 15-01-2020 20:00:00 12.91667 C 7.95 g/m*3 12.92 C 13.16667 km/h
1078 15-01-2020 21:00:00 12.66667 C 8.21 g/m*3 12.67 C 12.48333 km/h
1079 15-01-2020 22:00:00 10.80833 C 8.69 g/m*3 10.81 C 2.8 km/h
1080 15-01-2020 23:00:00 9.71667 C 8.46 g/m*3 9.72 C 4.26667 km/h
1081 16-01-2020 00:00:00 9.25833 C 8.23 g/m*3 9.26 C 2.95833 km/h
1082 16-01-2020 01:00:00 9.5 C 8.47 g/m*3 9.5 C 1.2 km/h
1083 16-01-2020 02:00:00 9.35833 C 8.42 g/m*3 9.36 C 0.26667 km/h
1084 16-01-2020 03:00:00 9.4 C 8.56 g/m*3 9.4 C 0.8 km/h
1085 16-01-2020 04:00:00 9.275 C 8.52 g/m*3 9.28 C 0 km/h
1086 16-01-2020 05:00:00 8.83333 C 8.32 g/m*3 8.83 C 0.26667 km/h
1087 16-01-2020 06:00:00 8.20833 C 8.02 g/m*3 8.21 C 0.13333 km/h
1088 16-01-2020 07:00:00 7.375 C 7.59 g/m*3 7.38 C 0 km/h
1089 16-01-2020 08:00:00 7.00833 C 7.44 g/m*3 7.01 C 0 km/h
1090 16-01-2020 09:00:00 6.24167 C 7.09 g/m*3 6.24 C 0 km/h
1091 16-01-2020 10:00:00 7.1 C 7.57 g/m*3 7.1 C 0 km/h
1092 16-01-2020 11:00:00 7.475 C 7.75 g/m*3 7.48 C 0 km/h
1093 16-01-2020 12:00:00 7.28333 C 7.66 g/m*3 7.28 C 1.2 km/h
1094 16-01-2020 13:00:00 8.19167 C 8.15 g/m*3 8.19 C 3.34167 km/h
1095 16-01-2020 14:00:00 8.74167 C 8.41 g/m*3 8.74 C 2 km/h
1096 16-01-2020 15:00:00 8.80833 C 8.32 g/m*3 8.81 C 2.8 km/h
1097 16-01-2020 16:00:00 8.375 C 8.01 g/m*3 8.38 C 0.66667 km/h
1098 16-01-2020 17:00:00 7.64167 C 7.67 g/m*3 7.64 C 3.73333 km/h
1099 16-01-2020 18:00:00 7.09167 C 7.41 g/m*3 7.09 C 2.26667 km/h
1100 16-01-2020 19:00:00 6.65 C 7.26 g/m*3 6.65 C 1.46667 km/h
Sensor: Nr:Datum:Temp:Abs-Feuchte:Windchill:Wind:
Aussen-T/F 1101 16-01-2020 20:00:00 6.53333 C 7.22 g/m*3 6.53 C 2.26667 km/h
1102 16-01-2020 21:00:00 6.23333 C 7.08 g/m*3 6.23 C 1.06667 km/h
1103 16-01-2020 22:00:00 6.10833 C 7.02 g/m*3 6.11 C 2.4 km/h
1104 16-01-2020 23:00:00 6.79167 C 7.26 g/m*3 6.79 C 4.675 km/h
1105 17-01-2020 00:00:00 6.4 C 6.97 g/m*3 6.4 C 2.4 km/h
1106 17-01-2020 01:00:00 5.7 C 6.71 g/m*3 5.7 C 1.06667 km/h
1107 17-01-2020 02:00:00 5.41667 C 6.6 g/m*3 5.42 C 3.08333 km/h
1108 17-01-2020 03:00:00 4.675 C 6.32 g/m*3 4.68 C 1.46667 km/h
1109 17-01-2020 04:00:00 4.58333 C 6.35 g/m*3 4.58 C 1.06667 km/h
1110 17-01-2020 05:00:00 3.86667 C 6.05 g/m*3 3.87 C 0 km/h
1111 17-01-2020 06:00:00 3.10833 C 5.75 g/m*3 3.11 C 0 km/h
1112 17-01-2020 07:00:00 2.54167 C 5.53 g/m*3 2.54 C 0 km/h
1113 17-01-2020 08:00:00 2.84167 C 5.71 g/m*3 2.84 C 1.2 km/h
1114 17-01-2020 09:00:00 3.20833 C 5.85 g/m*3 3.21 C 0.4 km/h
1115 17-01-2020 10:00:00 4.05 C 6.19 g/m*3 4.05 C 0.26667 km/h
1116 17-01-2020 11:00:00 5.11667 C 6.65 g/m*3 5.12 C 0.13333 km/h
1117 17-01-2020 12:00:00 6.56667 C 7.29 g/m*3 6.57 C 0.66667 km/h
1118 17-01-2020 13:00:00 8.19167 C 7.92 g/m*3 8.19 C 3.20833 km/h
1119 17-01-2020 14:00:00 9.74167 C 8.27 g/m*3 9.2 C 5.9 km/h
1120 17-01-2020 15:00:00 9.31667 C 8.24 g/m*3 9.32 C 4.14167 km/h
1121 17-01-2020 16:00:00 8.85 C 8.1 g/m*3 8.85 C 3.875 km/h
1122 17-01-2020 17:00:00 8.84167 C 8.09 g/m*3 7.55 C 8.45833 km/h
1123 17-01-2020 18:00:00 8.825 C 7.94 g/m*3 7.5 C 8.59167 km/h
1124 17-01-2020 19:00:00 7.48333 C 7.34 g/m*3 7.48 C 3.75 km/h
1125 17-01-2020 20:00:00 7.275 C 7.35 g/m*3 7.28 C 4.29167 km/h
Sensor: Nr:Datum:Temp:Abs-Feuchte:Windchill:Wind:
Aussen-T/F 1126 17-01-2020 21:00:00 7.61667 C 7.02 g/m*3 6.11 C 8.45 km/h
1127 17-01-2020 22:00:00 6.05833 C 6.36 g/m*3 6.06 C 1.73333 km/h
1128 17-01-2020 23:00:00 4.65 C 6.05 g/m*3 4.65 C 0.66667 km/h
1129 18-01-2020 00:00:00 4.04167 C 5.94 g/m*3 4.04 C 1.35 km/h
1130 18-01-2020 01:00:00 4.55833 C 6.16 g/m*3 4.56 C 1.86667 km/h
1131 18-01-2020 02:00:00 4.475 C 6.1 g/m*3 4.47 C 2.275 km/h
1132 18-01-2020 03:00:00 4.925 C 6.09 g/m*3 3.03 C 8.05833 km/h
1133 18-01-2020 04:00:00 4.68333 C 5.94 g/m*3 2.78 C 7.91667 km/h
1134 18-01-2020 05:00:00 4.3 C 5.77 g/m*3 2.6 C 6.975 km/h
1135 18-01-2020 06:00:00 4.04167 C 5.67 g/m*3 1.92 C 8.325 km/h
1136 18-01-2020 07:00:00 4.05 C 5.67 g/m*3 4.05 C 4.94167 km/h
1137 18-01-2020 08:00:00 4.34167 C 5.76 g/m*3 2.73 C 6.70833 km/h
1138 18-01-2020 09:00:00 4.66667 C 5.84 g/m*3 1.99 C 11.29167 km/h
1139 18-01-2020 10:00:00 5.24167 C 5.97 g/m*3 3.3 C 8.475 km/h
1140 18-01-2020 11:00:00 5.8 C 6.08 g/m*3 3.31 C 11.55833 km/h
1141 18-01-2020 12:00:00 6.2 C 6.13 g/m*3 4.02 C 10.34167 km/h
1142 18-01-2020 13:00:00 6.30833 C 6.12 g/m*3 4.37 C 9.28333 km/h
1143 18-01-2020 14:00:00 6.375 C 6.07 g/m*3 4.64 C 8.45 km/h
1144 18-01-2020 15:00:00 6.69167 C 6.06 g/m*3 4.92 C 8.86667 km/h
1145 18-01-2020 16:00:00 5.825 C 5.91 g/m*3 4.75 C 5.75833 km/h
1146 18-01-2020 17:00:00 4.88333 C 5.75 g/m*3 4.88 C 3.86667 km/h
1147 18-01-2020 18:00:00 3.55833 C 5.47 g/m*3 3.56 C 3.20833 km/h
1148 18-01-2020 19:00:00 2.825 C 5.25 g/m*3 2.83 C 0.93333 km/h
1149 18-01-2020 20:00:00 1.65 C 4.98 g/m*3 1.65 C 0.93333 km/h
1150 18-01-2020 21:00:00 1.725 C 5.11 g/m*3 1.73 C 1.33333 km/h
Sensor: Nr:Datum:Temp:Abs-Feuchte:Windchill:Wind:
Aussen-T/F 1151 18-01-2020 22:00:00 2.23333 C 5.25 g/m*3 2.23 C 2.80833 km/h
1152 18-01-2020 23:00:00 3.175 C 5.53 g/m*3 3.18 C 4.00833 km/h
1153 19-01-2020 00:00:00 3.325 C 5.62 g/m*3 3.33 C 2.54167 km/h
1154 19-01-2020 01:00:00 3.18333 C 5.61 g/m*3 3.18 C 2.41667 km/h
1155 19-01-2020 02:00:00 2.83333 C 5.54 g/m*3 2.83 C 0.93333 km/h
1156 19-01-2020 03:00:00 2.84167 C 5.59 g/m*3 2.84 C 0.8 km/h
1157 19-01-2020 04:00:00 3.025 C 5.7 g/m*3 3.03 C 0.53333 km/h
1158 19-01-2020 05:00:00 3.00833 C 5.71 g/m*3 3.01 C 0.53333 km/h
1159 19-01-2020 06:00:00 3.1 C 5.75 g/m*3 3.1 C 0 km/h
1160 19-01-2020 07:00:00 3.18333 C 5.78 g/m*3 3.18 C 0.8 km/h
1161 19-01-2020 08:00:00 3.24167 C 5.8 g/m*3 3.24 C 1.46667 km/h
1162 19-01-2020 09:00:00 3.39167 C 5.85 g/m*3 3.39 C 2.675 km/h
1163 19-01-2020 10:00:00 3.64167 C 5.87 g/m*3 3.64 C 4.675 km/h
1164 19-01-2020 11:00:00 4 C 5.93 g/m*3 4 C 4.14167 km/h
1165 19-01-2020 12:00:00 4.29167 C 6.02 g/m*3 4.29 C 1.46667 km/h
1166 19-01-2020 13:00:00 4.5 C 6.05 g/m*3 4.5 C 3.74167 km/h
1167 19-01-2020 14:00:00 4.86667 C 6.12 g/m*3 4.87 C 4.15 km/h
1168 19-01-2020 15:00:00 5.00833 C 6.08 g/m*3 3.91 C 5.48333 km/h
1169 19-01-2020 16:00:00 4.975 C 6.1 g/m*3 4.97 C 3.475 km/h
1170 19-01-2020 17:00:00 4.48333 C 6.1 g/m*3 4.48 C 0.66667 km/h
1171 19-01-2020 18:00:00 4.23333 C 6.12 g/m*3 4.23 C 1.06667 km/h
1172 19-01-2020 19:00:00 4.2 C 6.15 g/m*3 4.2 C 1.06667 km/h
1173 19-01-2020 20:00:00 4.10833 C 6.13 g/m*3 4.11 C 0 km/h
1174 19-01-2020 21:00:00 3.99167 C 6.1 g/m*3 3.99 C 0 km/h
1175 19-01-2020 22:00:00 3.95 C 6.08 g/m*3 3.95 C 0 km/h
Sensor: Nr:Datum:Temp:Abs-Feuchte:Windchill:Wind:
Aussen-T/F 1176 19-01-2020 23:00:00 3.45833 C 5.88 g/m*3 3.46 C 0.8 km/h
1177 20-01-2020 00:00:00 3.08333 C 5.74 g/m*3 3.08 C 0.4 km/h
1178 20-01-2020 01:00:00 3.21667 C 5.79 g/m*3 3.22 C 0 km/h
1179 20-01-2020 02:00:00 2.8 C 5.64 g/m*3 2.8 C 0.26667 km/h
1180 20-01-2020 03:00:00 2.425 C 5.5 g/m*3 2.42 C 1.2 km/h
1181 20-01-2020 04:00:00 2.3 C 5.49 g/m*3 2.3 C 0.26667 km/h
1182 20-01-2020 05:00:00 2.35833 C 5.51 g/m*3 2.36 C 0 km/h
1183 20-01-2020 06:00:00 2.15833 C 5.45 g/m*3 2.16 C 0 km/h
1184 20-01-2020 07:00:00 1.98333 C 5.38 g/m*3 1.98 C 0 km/h
1185 20-01-2020 08:00:00 1.39167 C 5.16 g/m*3 1.39 C 0.13333 km/h
1186 20-01-2020 09:00:00 2.36667 C 5.53 g/m*3 2.37 C 0 km/h
1187 20-01-2020 10:00:00 3.39167 C 5.93 g/m*3 3.39 C 0 km/h
1188 20-01-2020 11:00:00 3.89167 C 6.08 g/m*3 3.89 C 0.26667 km/h
1189 20-01-2020 12:00:00 4.875 C 5.81 g/m*3 4.88 C 4.7 km/h
1190 20-01-2020 13:00:00 5.61667 C 5.4 g/m*3 4.06 C 7.24167 km/h
1191 20-01-2020 14:00:00 5.78333 C 5.33 g/m*3 5.78 C 4.68333 km/h
1192 20-01-2020 15:00:00 5.575 C 5.35 g/m*3 5.58 C 1.2 km/h
1193 20-01-2020 16:00:00 4.71667 C 5.5 g/m*3 4.72 C 0.66667 km/h
1194 20-01-2020 17:00:00 2.59167 C 5.02 g/m*3 2.59 C 3.2 km/h
1195 20-01-2020 18:00:00 1.23333 C 4.76 g/m*3 1.23 C 0.26667 km/h
1196 20-01-2020 19:00:00 0.35 C 4.58 g/m*3 0.35 C 0 km/h
1197 20-01-2020 20:00:00 -0.275 C 4.46 g/m*3 -0.28 C 0 km/h
1198 20-01-2020 21:00:00 -0.9 C 4.28 g/m*3 -0.9 C 0 km/h
1199 20-01-2020 22:00:00 -1.21667 C 4.22 g/m*3 -1.22 C 0 km/h
1200 20-01-2020 23:00:00 -1.53333 C 4.14 g/m*3 -1.53 C 0 km/h
Sensor: Nr:Datum:Temp:Abs-Feuchte:Windchill:Wind:
Aussen-T/F 1201 21-01-2020 00:00:00 -1.75833 C 4.07 g/m*3 -1.76 C 0 km/h
1202 21-01-2020 01:00:00 -1.925 C 4.04 g/m*3 -1.93 C 0 km/h
1203 21-01-2020 02:00:00 -2.36667 C 3.91 g/m*3 -2.37 C 0 km/h
1204 21-01-2020 03:00:00 -2.6 C 3.87 g/m*3 -2.6 C 0 km/h
1205 21-01-2020 04:00:00 -2.98333 C 3.76 g/m*3 -2.98 C 0.26667 km/h
1206 21-01-2020 05:00:00 -3.175 C 3.71 g/m*3 -3.18 C 0 km/h
1207 21-01-2020 06:00:00 -2.8 C 3.82 g/m*3 -2.8 C 0 km/h
1208 21-01-2020 07:00:00 -2.55833 C 3.89 g/m*3 -2.56 C 0.4 km/h
1209 21-01-2020 08:00:00 -2.74167 C 3.84 g/m*3 -2.74 C 0.93333 km/h
1210 21-01-2020 09:00:00 -2.975 C 3.78 g/m*3 -2.98 C 1.73333 km/h
1211 21-01-2020 10:00:00 -2.76667 C 3.83 g/m*3 -2.77 C 0.4 km/h
1212 21-01-2020 11:00:00 -2.18333 C 4.03 g/m*3 -2.18 C 0 km/h
1213 21-01-2020 12:00:00 -1.21667 C 4.32 g/m*3 -1.22 C 2.4 km/h
1214 21-01-2020 13:00:00 -0.6 C 4.51 g/m*3 -0.6 C 3.73333 km/h
1215 21-01-2020 14:00:00 -0.175 C 4.64 g/m*3 -0.18 C 1.46667 km/h
1216 21-01-2020 15:00:00 0.03333 C 4.71 g/m*3 0.03 C 1.86667 km/h
1217 21-01-2020 16:00:00 -0.175 C 4.64 g/m*3 -0.18 C 0.13333 km/h
1218 21-01-2020 17:00:00 -0.58333 C 4.51 g/m*3 -0.58 C 0 km/h
1219 21-01-2020 18:00:00 -1.04167 C 4.37 g/m*3 -1.04 C 0 km/h
1220 21-01-2020 19:00:00 -1.3 C 4.29 g/m*3 -1.3 C 0.13333 km/h
1221 21-01-2020 20:00:00 -1.45 C 4.25 g/m*3 -1.45 C 0 km/h
1222 21-01-2020 21:00:00 -1.80833 C 4.14 g/m*3 -1.81 C 0 km/h
1223 21-01-2020 22:00:00 -1.89167 C 4.12 g/m*3 -1.89 C 0 km/h
1224 21-01-2020 23:00:00 -2.21667 C 4.03 g/m*3 -2.22 C 0 km/h
1225 22-01-2020 00:00:00 -2.40833 C 3.97 g/m*3 -2.41 C 0.53333 km/h
Sensor: Nr:Datum:Temp:Abs-Feuchte:Windchill:Wind:
Aussen-T/F 1226 22-01-2020 01:00:00 -2.63333 C 3.91 g/m*3 -2.63 C 0.4 km/h
1227 22-01-2020 02:00:00 -2.775 C 3.86 g/m*3 -2.78 C 0.8 km/h
1228 22-01-2020 03:00:00 -2.99167 C 3.77 g/m*3 -2.99 C 1.2 km/h
1229 22-01-2020 04:00:00 -2.91667 C 3.79 g/m*3 -2.92 C 0.8 km/h
1230 22-01-2020 05:00:00 -2.975 C 3.78 g/m*3 -2.98 C 0.93333 km/h
1231 22-01-2020 06:00:00 -2.93333 C 3.79 g/m*3 -2.93 C 1.73333 km/h
1232 22-01-2020 07:00:00 -2.71667 C 3.87 g/m*3 -2.72 C 0.4 km/h
1233 22-01-2020 08:00:00 -2.41667 C 3.95 g/m*3 -2.42 C 3.075 km/h
1234 22-01-2020 09:00:00 -2.29167 C 4.01 g/m*3 -2.29 C 1.46667 km/h
1235 22-01-2020 10:00:00 -2.31667 C 4 g/m*3 -2.32 C 3.20833 km/h
1236 22-01-2020 11:00:00 -1.75 C 4.16 g/m*3 -1.75 C 1.33333 km/h
1237 22-01-2020 12:00:00 -0.925 C 4.41 g/m*3 -0.93 C 1.73333 km/h
1238 22-01-2020 13:00:00 -0.43333 C 4.58 g/m*3 -0.43 C 0.8 km/h
1239 22-01-2020 14:00:00 -0.16667 C 4.66 g/m*3 -0.17 C 0.13333 km/h
1240 22-01-2020 15:00:00 0.09167 C 4.75 g/m*3 0.09 C 0 km/h
1241 22-01-2020 16:00:00 0.28333 C 4.81 g/m*3 0.28 C 0 km/h
1242 22-01-2020 17:00:00 0.3 C 4.85 g/m*3 0.3 C 0 km/h
1243 22-01-2020 18:00:00 0.25833 C 4.82 g/m*3 0.26 C 0 km/h
1244 22-01-2020 19:00:00 0.35 C 4.86 g/m*3 0.35 C 0 km/h
1245 22-01-2020 20:00:00 0.55833 C 4.93 g/m*3 0.56 C 0 km/h
1246 22-01-2020 21:00:00 0.66667 C 4.97 g/m*3 0.67 C 0 km/h
1247 22-01-2020 22:00:00 0.725 C 4.99 g/m*3 0.73 C 0 km/h
1248 22-01-2020 23:00:00 0.8 C 5.02 g/m*3 0.8 C 0 km/h
1249 23-01-2020 00:00:00 0.85833 C 5.04 g/m*3 0.86 C 0 km/h
1250 23-01-2020 01:00:00 0.9 C 5.05 g/m*3 0.9 C 0 km/h
Sensor: Nr:Datum:Temp:Abs-Feuchte:Windchill:Wind:
Aussen-T/F 1251 23-01-2020 02:00:00 1 C 5.09 g/m*3 1 C 0 km/h
1252 23-01-2020 03:00:00 1.1 C 5.12 g/m*3 1.1 C 0 km/h
1253 23-01-2020 04:00:00 1.10833 C 5.12 g/m*3 1.11 C 0 km/h
1254 23-01-2020 05:00:00 1.2 C 5.16 g/m*3 1.2 C 0 km/h
1255 23-01-2020 06:00:00 1.25 C 5.17 g/m*3 1.25 C 0 km/h
1256 23-01-2020 07:00:00 1.34167 C 5.21 g/m*3 1.34 C 0 km/h
1257 23-01-2020 08:00:00 1.5 C 5.26 g/m*3 1.5 C 0 km/h
1258 23-01-2020 09:00:00 1.70833 C 5.34 g/m*3 1.71 C 1.33333 km/h
1259 23-01-2020 10:00:00 1.85833 C 5.39 g/m*3 1.86 C 1.33333 km/h
1260 23-01-2020 11:00:00 2.09167 C 5.48 g/m*3 2.09 C 1.33333 km/h
1261 23-01-2020 12:00:00 2.20833 C 5.52 g/m*3 2.21 C 2.66667 km/h
1262 23-01-2020 13:00:00 2.40833 C 5.56 g/m*3 2.41 C 0.4 km/h
1263 23-01-2020 14:00:00 2.575 C 5.58 g/m*3 2.58 C 1.46667 km/h
1264 23-01-2020 15:00:00 2.65833 C 5.56 g/m*3 2.66 C 0.26667 km/h
1265 23-01-2020 16:00:00 2.6 C 5.5 g/m*3 2.6 C 1.61667 km/h
1266 23-01-2020 17:00:00 2.16667 C 5.33 g/m*3 2.17 C 0.26667 km/h
1267 23-01-2020 18:00:00 0.575 C 4.77 g/m*3 0.57 C 0 km/h
1268 23-01-2020 19:00:00 -0.09167 C 4.6 g/m*3 -0.09 C 0 km/h
1269 23-01-2020 20:00:00 -0.59167 C 4.46 g/m*3 -0.59 C 0 km/h
1270 23-01-2020 21:00:00 -0.09167 C 4.67 g/m*3 -0.09 C 0 km/h
1271 23-01-2020 22:00:00 0.36667 C 4.82 g/m*3 0.37 C 0 km/h
1272 23-01-2020 23:00:00 0.68333 C 4.93 g/m*3 0.68 C 0 km/h
1273 24-01-2020 00:00:00 0.79167 C 4.96 g/m*3 0.79 C 0.66667 km/h
1274 24-01-2020 01:00:00 0.70833 C 4.89 g/m*3 0.71 C 3.20833 km/h
1275 24-01-2020 02:00:00 0.69167 C 4.82 g/m*3 0.69 C 0.8 km/h
Sensor: Nr:Datum:Temp:Abs-Feuchte:Windchill:Wind:
Aussen-T/F 1276 24-01-2020 03:00:00 0.75833 C 4.78 g/m*3 0.76 C 1.33333 km/h
1277 24-01-2020 04:00:00 0.8 C 4.77 g/m*3 0.8 C 1.74167 km/h
1278 24-01-2020 05:00:00 0.725 C 4.74 g/m*3 0.73 C 1.06667 km/h
1279 24-01-2020 06:00:00 0.7 C 4.73 g/m*3 0.7 C 1.86667 km/h
1280 24-01-2020 07:00:00 0.61667 C 4.7 g/m*3 0.62 C 1.6 km/h
1281 24-01-2020 08:00:00 0.58333 C 4.64 g/m*3 0.58 C 2.13333 km/h
1282 24-01-2020 09:00:00 0.625 C 4.65 g/m*3 0.63 C 1.33333 km/h
1283 24-01-2020 10:00:00 0.9 C 4.7 g/m*3 0.9 C 2.93333 km/h
1284 24-01-2020 11:00:00 1.26667 C 4.78 g/m*3 1.27 C 3.2 km/h
1285 24-01-2020 12:00:00 1.78333 C 4.86 g/m*3 0.39 C 5.1 km/h
1286 24-01-2020 13:00:00 2.24167 C 4.92 g/m*3 2.24 C 4.94167 km/h
1287 24-01-2020 14:00:00 2.54167 C 4.98 g/m*3 2.54 C 4.80833 km/h
1288 24-01-2020 15:00:00 2.625 C 5.04 g/m*3 2.63 C 2.93333 km/h
1289 24-01-2020 16:00:00 2.59167 C 5.07 g/m*3 2.59 C 0.66667 km/h
1290 24-01-2020 17:00:00 2.39167 C 5.06 g/m*3 2.39 C 0.13333 km/h
1291 24-01-2020 18:00:00 2.11667 C 5.06 g/m*3 2.12 C 0 km/h
1292 24-01-2020 19:00:00 2.00833 C 5.08 g/m*3 2.01 C 0.66667 km/h
1293 24-01-2020 20:00:00 2.10833 C 5.15 g/m*3 2.11 C 0.53333 km/h
1294 24-01-2020 21:00:00 1.99091 C 5.11 g/m*3 1.99 C 0.14545 km/h
1295 24-01-2020 22:00:00 1.5 C 4.94 g/m*3 1.5 C 0.26667 km/h
1296 24-01-2020 23:00:00 1.4 C 4.92 g/m*3 1.4 C 0.4 km/h
1297 25-01-2020 00:00:00 1.4 C 4.96 g/m*3 1.4 C 0 km/h
1298 25-01-2020 01:00:00 1.5 C 4.99 g/m*3 1.5 C 0.68571 km/h
1299 25-01-2020 02:00:00 1.39167 C 4.98 g/m*3 1.39 C 0.26667 km/h
1300 25-01-2020 03:00:00 1.31667 C 4.94 g/m*3 1.32 C 0.93333 km/h
Sensor: Nr:Datum:Temp:Abs-Feuchte:Windchill:Wind:
Aussen-T/F 1301 25-01-2020 04:00:00 1.225 C 4.93 g/m*3 1.23 C 0.53333 km/h
1302 25-01-2020 05:00:00 1.19167 C 4.89 g/m*3 1.19 C 0.66667 km/h
1303 25-01-2020 06:00:00 1.11667 C 4.87 g/m*3 1.12 C 0 km/h
1304 25-01-2020 07:00:00 1.23333 C 4.93 g/m*3 1.23 C 0 km/h
1305 25-01-2020 08:00:00 1.30833 C 4.98 g/m*3 1.31 C 0 km/h
1306 25-01-2020 09:00:00 1.575 C 5.11 g/m*3 1.58 C 0 km/h
1307 25-01-2020 10:00:00 2 C 5.29 g/m*3 2 C 0 km/h
1308 25-01-2020 11:00:00 2.51667 C 5.52 g/m*3 2.52 C 0 km/h
1309 25-01-2020 12:00:00 3.25 C 5.77 g/m*3 3.25 C 1.46667 km/h
1310 25-01-2020 13:00:00 3.76667 C 5.89 g/m*3 3.77 C 2.26667 km/h
1311 25-01-2020 14:00:00 4.2 C 6.06 g/m*3 4.2 C 0.13333 km/h
1312 25-01-2020 15:00:00 4.51667 C 6.12 g/m*3 4.52 C 0 km/h
1313 25-01-2020 16:00:00 4.54167 C 6.13 g/m*3 4.54 C 0 km/h
1314 25-01-2020 17:00:00 4.35833 C 6.08 g/m*3 4.36 C 1.33333 km/h
1315 25-01-2020 18:00:00 4.16667 C 6.04 g/m*3 4.17 C 0 km/h
1316 25-01-2020 19:00:00 3.91667 C 5.94 g/m*3 3.92 C 0.53333 km/h
1317 25-01-2020 20:00:00 3.79167 C 5.95 g/m*3 3.79 C 0.26667 km/h
1318 25-01-2020 21:00:00 3.21667 C 5.7 g/m*3 3.22 C 1.33333 km/h
1319 25-01-2020 22:00:00 2.54167 C 5.46 g/m*3 2.54 C 3.2 km/h
1320 25-01-2020 23:00:00 2.06667 C 5.3 g/m*3 2.07 C 2.13333 km/h
1321 26-01-2020 00:00:00 1.8 C 5.21 g/m*3 1.8 C 0 km/h
1322 26-01-2020 01:00:00 1.58333 C 5.18 g/m*3 1.58 C 0 km/h
1323 26-01-2020 02:00:00 1.5 C 5.16 g/m*3 1.5 C 0 km/h
1324 26-01-2020 03:00:00 1.41667 C 5.13 g/m*3 1.42 C 0.4 km/h
1325 26-01-2020 04:00:00 1.3 C 5.09 g/m*3 1.3 C 0 km/h
Sensor: Nr:Datum:Temp:Abs-Feuchte:Windchill:Wind:
Aussen-T/F 1326 26-01-2020 05:00:00 1.3 C 5.09 g/m*3 1.3 C 0 km/h
1327 26-01-2020 06:00:00 1.3 C 5.09 g/m*3 1.3 C 0 km/h
1328 26-01-2020 07:00:00 1.4 C 5.12 g/m*3 1.4 C 0 km/h
1329 26-01-2020 08:00:00 1.4 C 5.12 g/m*3 1.4 C 0 km/h
1330 26-01-2020 09:00:00 1.49167 C 5.15 g/m*3 1.49 C 0 km/h
1331 26-01-2020 10:00:00 1.725 C 5.23 g/m*3 1.73 C 0 km/h
1332 26-01-2020 11:00:00 2.625 C 5.52 g/m*3 2.63 C 0 km/h
1333 26-01-2020 12:00:00 3.93333 C 5.99 g/m*3 3.93 C 0.26667 km/h
1334 26-01-2020 13:00:00 4.73333 C 6.28 g/m*3 4.73 C 0 km/h
1335 26-01-2020 14:00:00 5.29167 C 6.52 g/m*3 5.29 C 0.26667 km/h
1336 26-01-2020 15:00:00 6.24167 C 6.83 g/m*3 6.24 C 2.4 km/h
1337 26-01-2020 16:00:00 5.14167 C 6.32 g/m*3 5.14 C 1.33333 km/h
1338 26-01-2020 17:00:00 4.325 C 6.07 g/m*3 4.33 C 4.8 km/h
1339 26-01-2020 18:00:00 4.4 C 6.13 g/m*3 4.4 C 3.86667 km/h
1340 26-01-2020 19:00:00 4.025 C 5.96 g/m*3 4.03 C 1.33333 km/h
1341 26-01-2020 20:00:00 3.74167 C 5.88 g/m*3 3.74 C 0 km/h
1342 26-01-2020 21:00:00 3.125 C 5.68 g/m*3 3.13 C 0 km/h
1343 26-01-2020 22:00:00 1.95833 C 5.26 g/m*3 1.96 C 0.13333 km/h
1344 26-01-2020 23:00:00 1.68333 C 5.21 g/m*3 1.68 C 0.4 km/h
1345 27-01-2020 00:00:00 2.59167 C 5.6 g/m*3 2.59 C 0 km/h
1346 27-01-2020 01:00:00 2.24167 C 5.43 g/m*3 2.24 C 0 km/h
1347 27-01-2020 02:00:00 2.29167 C 5.48 g/m*3 2.29 C 0 km/h
1348 27-01-2020 03:00:00 3.15 C 5.83 g/m*3 3.15 C 0.26667 km/h
1349 27-01-2020 04:00:00 3.975 C 6.18 g/m*3 3.98 C 0.66667 km/h
1350 27-01-2020 05:00:00 4.6 C 6.45 g/m*3 4.6 C 0 km/h
Sensor: Nr:Datum:Temp:Abs-Feuchte:Windchill:Wind:
Aussen-T/F 1351 27-01-2020 06:00:00 5.66667 C 6.95 g/m*3 5.67 C 3.08333 km/h
1352 27-01-2020 07:00:00 6.66667 C 7.41 g/m*3 6.67 C 2.54167 km/h
1353 27-01-2020 08:00:00 6.5 C 7.27 g/m*3 6.5 C 2.4 km/h
1354 27-01-2020 09:00:00 7.21667 C 7.54 g/m*3 7.22 C 3.49167 km/h
1355 27-01-2020 10:00:00 8.36667 C 7.63 g/m*3 8.37 C 4 km/h
1356 27-01-2020 11:00:00 8.65 C 7.67 g/m*3 8.65 C 3.88333 km/h
1357 27-01-2020 12:00:00 9.1 C 7.76 g/m*3 8.18 C 6.99167 km/h
1358 27-01-2020 13:00:00 8.975 C 7.66 g/m*3 7.52 C 9.39167 km/h
1359 27-01-2020 14:00:00 8.08333 C 7.63 g/m*3 8.08 C 3.34167 km/h
1360 27-01-2020 15:00:00 7.75833 C 7.52 g/m*3 7.76 C 4.69167 km/h
1361 27-01-2020 16:00:00 7.45 C 7.41 g/m*3 7.45 C 2 km/h
1362 27-01-2020 17:00:00 7.25 C 7.33 g/m*3 7.25 C 2.66667 km/h
1363 27-01-2020 18:00:00 7.24167 C 7.27 g/m*3 7.24 C 2.275 km/h
1364 27-01-2020 19:00:00 7.28333 C 7.29 g/m*3 7.28 C 1.33333 km/h
1365 27-01-2020 20:00:00 6.78333 C 7.18 g/m*3 6.78 C 1.46667 km/h
1366 27-01-2020 21:00:00 6.33333 C 7.04 g/m*3 6.33 C 1.34167 km/h
1367 27-01-2020 22:00:00 6.25833 C 7.01 g/m*3 6.26 C 3.475 km/h
1368 27-01-2020 23:00:00 6.53333 C 7.12 g/m*3 6.53 C 4.41667 km/h
1369 28-01-2020 00:00:00 6.9 C 7.15 g/m*3 5.63 C 6.96667 km/h
1370 28-01-2020 01:00:00 7.61667 C 7.3 g/m*3 5.53 C 11.40833 km/h
1371 28-01-2020 02:00:00 7.79167 C 7.34 g/m*3 5.44 C 13.29167 km/h
1372 28-01-2020 03:00:00 8.03333 C 7.33 g/m*3 5.43 C 15.43333 km/h
1373 28-01-2020 04:00:00 6.81667 C 7.02 g/m*3 5.26 C 8.04167 km/h
1374 28-01-2020 05:00:00 6.63333 C 6.99 g/m*3 5.55 C 6.15833 km/h
1375 28-01-2020 06:00:00 6.425 C 6.87 g/m*3 3.74 C 13.43333 km/h
Sensor: Nr:Datum:Temp:Abs-Feuchte:Windchill:Wind:
Aussen-T/F 1376 28-01-2020 07:00:00 5.25 C 6.47 g/m*3 3.03 C 9.65833 km/h
1377 28-01-2020 08:00:00 5.01667 C 6.38 g/m*3 2.81 C 9.41667 km/h
1378 28-01-2020 09:00:00 4.94167 C 6.33 g/m*3 1.98 C 13.14167 km/h
1379 28-01-2020 10:00:00 4.8 C 6.2 g/m*3 2.1 C 11.56667 km/h
1380 28-01-2020 11:00:00 5.45833 C 6.3 g/m*3 1.99 C 17.3 km/h
1381 28-01-2020 12:00:00 6.2 C 6.09 g/m*3 2.84 C 17.83333 km/h
1382 28-01-2020 13:00:00 6.64167 C 5.88 g/m*3 3.43 C 17.56667 km/h
1383 28-01-2020 14:00:00 6.33333 C 5.71 g/m*3 2.71 C 20.375 km/h
1384 28-01-2020 15:00:00 6.35833 C 5.64 g/m*3 2.94 C 18.64167 km/h
1385 28-01-2020 16:00:00 5.35833 C 5.42 g/m*3 2.31 C 14.225 km/h
1386 28-01-2020 17:00:00 4.65 C 5.17 g/m*3 1.72 C 12.63333 km/h
1387 28-01-2020 18:00:00 4.21667 C 5.18 g/m*3 1.45 C 11.275 km/h
1388 28-01-2020 19:00:00 4.34167 C 5.19 g/m*3 1 C 14.63333 km/h
1389 28-01-2020 20:00:00 4.34167 C 5.31 g/m*3 0.5 C 17.96667 km/h
1390 28-01-2020 21:00:00 4.14167 C 5.33 g/m*3 1.07 C 12.76667 km/h
1391 28-01-2020 22:00:00 4.05833 C 5.41 g/m*3 1.9 C 8.46667 km/h
1392 28-01-2020 23:00:00 4.375 C 5.57 g/m*3 2.42 C 7.91667 km/h
1393 29-01-2020 00:00:00 4.45833 C 5.62 g/m*3 1.66 C 11.7 km/h
1394 29-01-2020 01:00:00 4 C 5.67 g/m*3 1.48 C 9.94167 km/h
1395 29-01-2020 02:00:00 3.91667 C 5.71 g/m*3 0.92 C 12.1 km/h
1396 29-01-2020 03:00:00 3.59167 C 5.69 g/m*3 2.23 C 5.64167 km/h
1397 29-01-2020 04:00:00 3.475 C 5.64 g/m*3 3.48 C 4.425 km/h
1398 29-01-2020 05:00:00 4.05833 C 5.65 g/m*3 1.67 C 9.40833 km/h
1399 29-01-2020 06:00:00 3.975 C 5.59 g/m*3 1.95 C 7.93333 km/h
1400 29-01-2020 07:00:00 4.18333 C 5.61 g/m*3 1.72 C 9.825 km/h
Sensor: Nr:Datum:Temp:Abs-Feuchte:Windchill:Wind:
Aussen-T/F 1401 29-01-2020 08:00:00 4.425 C 5.6 g/m*3 1.81 C 10.75 km/h
1402 29-01-2020 09:00:00 4.725 C 5.67 g/m*3 1.67 C 13.43333 km/h
1403 29-01-2020 10:00:00 4.80833 C 5.79 g/m*3 2.11 C 11.56667 km/h
1404 29-01-2020 11:00:00 5.45833 C 5.95 g/m*3 2.63 C 13.03333 km/h
1405 29-01-2020 12:00:00 6.59167 C 5.99 g/m*3 3.75 C 14.76667 km/h
1406 29-01-2020 13:00:00 7.16667 C 5.47 g/m*3 3.97 C 18.5 km/h
1407 29-01-2020 14:00:00 7.5 C 5.2 g/m*3 4.44 C 18.1 km/h
1408 29-01-2020 15:00:00 7.25833 C 5.05 g/m*3 4.05 C 18.775 km/h
1409 29-01-2020 16:00:00 7.275 C 5.1 g/m*3 4.66 C 14.23333 km/h
1410 29-01-2020 17:00:00 6.14167 C 5.17 g/m*3 4.43 C 8.18333 km/h
1411 29-01-2020 18:00:00 4.31667 C 5.1 g/m*3 4.32 C 4.66667 km/h
1412 29-01-2020 19:00:00 3.375 C 5.11 g/m*3 3.38 C 4 km/h
1413 29-01-2020 20:00:00 2.86667 C 5.14 g/m*3 2.87 C 2.66667 km/h
1414 29-01-2020 21:00:00 3.11667 C 5.37 g/m*3 3.12 C 4.275 km/h
1415 29-01-2020 22:00:00 3.475 C 5.6 g/m*3 3.48 C 4.55 km/h
1416 29-01-2020 23:00:00 5.05 C 6.08 g/m*3 3.6 C 6.55833 km/h
1417 30-01-2020 00:00:00 5.8 C 6.19 g/m*3 3.89 C 8.75 km/h
1418 30-01-2020 01:00:00 6.19167 C 6.27 g/m*3 3.85 C 11.15833 km/h
1419 30-01-2020 02:00:00 6.25833 C 6.3 g/m*3 5.21 C 5.88333 km/h
1420 30-01-2020 03:00:00 6.2 C 6.37 g/m*3 4.53 C 8.05 km/h
1421 30-01-2020 04:00:00 6.15 C 6.31 g/m*3 3.75 C 11.425 km/h
1422 30-01-2020 05:00:00 5.425 C 6.19 g/m*3 3.03 C 10.63333 km/h
1423 30-01-2020 06:00:00 5.35 C 6.17 g/m*3 2.86 C 11.03333 km/h
1424 30-01-2020 07:00:00 5.475 C 6.14 g/m*3 3.18 C 10.21667 km/h
1425 30-01-2020 08:00:00 5.23333 C 6.15 g/m*3 5.23 C 2.55 km/h
Sensor: Nr:Datum:Temp:Abs-Feuchte:Windchill:Wind:
Aussen-T/F 1426 30-01-2020 09:00:00 6.05 C 6.42 g/m*3 6.05 C 4.01667 km/h
1427 30-01-2020 10:00:00 7 C 6.65 g/m*3 4.96 C 10.475 km/h
1428 30-01-2020 11:00:00 7.78333 C 6.98 g/m*3 5.77 C 11.15833 km/h
1429 30-01-2020 12:00:00 8.53333 C 7.16 g/m*3 5.97 C 16.1 km/h
1430 30-01-2020 13:00:00 9.58333 C 7.24 g/m*3 7.8 C 12.09167 km/h
1431 30-01-2020 14:00:00 10.39167 C 7.19 g/m*3 10.39 C 2.80833 km/h
1432 30-01-2020 15:00:00 10.75833 C 7.12 g/m*3 10.76 C 2.53333 km/h
1433 30-01-2020 16:00:00 10.04167 C 7.03 g/m*3 10.04 C 3.06667 km/h
1434 30-01-2020 17:00:00 9.40833 C 7.22 g/m*3 9.41 C 4.81667 km/h
1435 30-01-2020 18:00:00 9.56667 C 7.51 g/m*3 8.57 C 7.65 km/h
1436 30-01-2020 19:00:00 9.3 C 7.92 g/m*3 8.14 C 8.19167 km/h
1437 30-01-2020 20:00:00 9.725 C 8.13 g/m*3 7.71 C 13.96667 km/h
1438 30-01-2020 21:00:00 10.15833 C 8.38 g/m*3 8.12 C 14.9 km/h
1439 30-01-2020 22:00:00 10.575 C 8.69 g/m*3 8.18 C 19.16667 km/h
1440 30-01-2020 23:00:00 11.00833 C 9.04 g/m*3 11.01 C 13.43333 km/h
1441 31-01-2020 00:00:00 11.85 C 9.48 g/m*3 11.85 C 14.63333 km/h
1442 31-01-2020 01:00:00 12.7 C 9.9 g/m*3 12.7 C 19.175 km/h
1443 31-01-2020 02:00:00 13.225 C 10.05 g/m*3 13.23 C 22.24167 km/h
1444 31-01-2020 03:00:00 13.23333 C 10.04 g/m*3 13.23 C 12.75833 km/h
1445 31-01-2020 04:00:00 13.11667 C 10.05 g/m*3 13.12 C 11.825 km/h
1446 31-01-2020 05:00:00 12.94167 C 9.95 g/m*3 12.94 C 9.00833 km/h
1447 31-01-2020 06:00:00 12.85833 C 9.85 g/m*3 12.86 C 7.10833 km/h
1448 31-01-2020 07:00:00 12.49167 C 9.68 g/m*3 12.49 C 5.49167 km/h
1449 31-01-2020 08:00:00 12.66667 C 9.7 g/m*3 12.67 C 7.65833 km/h
1450 31-01-2020 09:00:00 13.075 C 9.7 g/m*3 13.08 C 11.56667 km/h
Sensor: Nr:Datum:Temp:Abs-Feuchte:Windchill:Wind:
Aussen-T/F 1451 31-01-2020 10:00:00 13.46667 C 9.69 g/m*3 13.47 C 12.76667 km/h
1452 31-01-2020 11:00:00 13.73333 C 9.58 g/m*3 13.73 C 15.43333 km/h
1453 31-01-2020 12:00:00 13.775 C 9.4 g/m*3 13.78 C 17.3 km/h
1454 31-01-2020 13:00:00 14.40833 C 9.55 g/m*3 14.41 C 19.175 km/h
1455 31-01-2020 14:00:00 14.30833 C 9.62 g/m*3 14.31 C 15.16667 km/h
1456 31-01-2020 15:00:00 13.79167 C 9.43 g/m*3 13.79 C 18.90833 km/h
1457 31-01-2020 16:00:00 13 C 9.18 g/m*3 13 C 15.16667 km/h
1458 31-01-2020 17:00:00 12.5 C 8.98 g/m*3 12.5 C 16.9 km/h
1459 31-01-2020 18:00:00 12.3 C 9.08 g/m*3 12.3 C 15.3 km/h
1460 31-01-2020 19:00:00 12.70833 C 9.27 g/m*3 12.71 C 14.1 km/h
1461 31-01-2020 20:00:00 12.61667 C 9.33 g/m*3 12.62 C 13.95833 km/h
1462 31-01-2020 21:00:00 12.55833 C 9.39 g/m*3 12.56 C 18.50833 km/h
1463 31-01-2020 22:00:00 12.78333 C 9.32 g/m*3 12.78 C 21.3 km/h
1464 31-01-2020 23:00:00 12.8 C 9.37 g/m*3 12.8 C 15.55833 km/h
1465 01-02-2020 00:00:00 12.76667 C 9.39 g/m*3 12.77 C 14.76667 km/h
1466 01-02-2020 01:00:00 12.54167 C 9.28 g/m*3 12.54 C 10.48333 km/h
1467 01-02-2020 02:00:00 12.15833 C 8.93 g/m*3 12.16 C 11.69167 km/h
1468 01-02-2020 03:00:00 12.21667 C 9 g/m*3 12.22 C 14.89167 km/h
1469 01-02-2020 04:00:00 12.25833 C 9.07 g/m*3 12.26 C 11.81667 km/h
1470 01-02-2020 05:00:00 12.05833 C 9.13 g/m*3 12.06 C 8.05 km/h
1471 01-02-2020 06:00:00 12.14167 C 9.3 g/m*3 12.14 C 8.46667 km/h
1472 01-02-2020 07:00:00 12.325 C 9.47 g/m*3 12.33 C 10.75 km/h
1473 01-02-2020 08:00:00 12.025 C 9.69 g/m*3 12.03 C 7.25 km/h
1474 01-02-2020 09:00:00 12.05833 C 9.86 g/m*3 12.06 C 7.79167 km/h
1475 01-02-2020 10:00:00 12.63333 C 10.13 g/m*3 12.63 C 12.35833 km/h
Sensor: Nr:Datum:Temp:Abs-Feuchte:Windchill:Wind:
Aussen-T/F 1476 01-02-2020 11:00:00 12.66667 C 10.22 g/m*3 12.67 C 13.3 km/h
1477 01-02-2020 12:00:00 12.6 C 10.24 g/m*3 12.6 C 13.96667 km/h
1478 01-02-2020 13:00:00 12.53333 C 10.26 g/m*3 12.53 C 12.23333 km/h
1479 01-02-2020 14:00:00 11.93333 C 10.03 g/m*3 11.93 C 8.725 km/h
1480 01-02-2020 15:00:00 11.1 C 9.49 g/m*3 11.1 C 4.275 km/h
1481 01-02-2020 16:00:00 11.06667 C 9.36 g/m*3 11.07 C 5.48333 km/h
1482 01-02-2020 17:00:00 11.16667 C 9.22 g/m*3 11.17 C 8.875 km/h
1483 01-02-2020 18:00:00 11.41667 C 8.94 g/m*3 11.42 C 9.14167 km/h
1484 01-02-2020 19:00:00 11.20833 C 9.04 g/m*3 11.21 C 11.53333 km/h
1485 01-02-2020 20:00:00 10.55 C 8.72 g/m*3 9.44 C 9.13333 km/h
1486 01-02-2020 21:00:00 10 C 7.63 g/m*3 7.96 C 14.63333 km/h
1487 01-02-2020 22:00:00 9.39167 C 7.16 g/m*3 7.54 C 12.23333 km/h
1488 01-02-2020 23:00:00 8.58333 C 6.79 g/m*3 7.13 C 8.99167 km/h
1489 02-02-2020 00:00:00 8.15 C 6.69 g/m*3 6.56 C 9.26667 km/h
1490 02-02-2020 01:00:00 8.18333 C 6.73 g/m*3 6.52 C 9.66667 km/h
1491 02-02-2020 02:00:00 8.15 C 6.78 g/m*3 6.23 C 11.03333 km/h
1492 02-02-2020 03:00:00 8.18333 C 6.71 g/m*3 5.91 C 13.3 km/h
1493 02-02-2020 04:00:00 7.83333 C 6.6 g/m*3 5.86 C 11.01667 km/h
1494 02-02-2020 05:00:00 7.325 C 6.54 g/m*3 5.55 C 9.40833 km/h
1495 02-02-2020 06:00:00 7.2 C 6.67 g/m*3 7.2 C 4.28333 km/h
1496 02-02-2020 07:00:00 7.10833 C 7.07 g/m*3 7.11 C 0.66667 km/h
1497 02-02-2020 08:00:00 7.1 C 7.32 g/m*3 7.1 C 0.13333 km/h
1498 02-02-2020 09:00:00 7.01667 C 7.37 g/m*3 7.02 C 0.13333 km/h
1499 02-02-2020 10:00:00 7.44167 C 7.66 g/m*3 7.44 C 0 km/h
1500 02-02-2020 11:00:00 8.03333 C 7.96 g/m*3 8.03 C 1.475 km/h
Sensor: Nr:Datum:Temp:Abs-Feuchte:Windchill:Wind:
Aussen-T/F 1501 02-02-2020 12:00:00 10.01667 C 9.16 g/m*3 9.1 C 7.65 km/h
1502 02-02-2020 13:00:00 12.39167 C 10.24 g/m*3 12.39 C 18.63333 km/h
1503 02-02-2020 14:00:00 13.28333 C 10.48 g/m*3 13.28 C 17.43333 km/h
1504 02-02-2020 15:00:00 13.625 C 10.55 g/m*3 13.63 C 9.4 km/h
1505 02-02-2020 16:00:00 14.01667 C 9.84 g/m*3 14.02 C 16.76667 km/h
1506 02-02-2020 17:00:00 13.90833 C 9.11 g/m*3 13.91 C 16.63333 km/h
1507 02-02-2020 18:00:00 13.26667 C 8.93 g/m*3 13.27 C 14.63333 km/h
1508 02-02-2020 19:00:00 13.09167 C 8.49 g/m*3 13.09 C 19.725 km/h
1509 02-02-2020 20:00:00 12.63333 C 8.54 g/m*3 12.63 C 13.15833 km/h
1510 02-02-2020 21:00:00 12.34167 C 8.38 g/m*3 12.34 C 14.5 km/h
1511 02-02-2020 22:00:00 12.21667 C 8.31 g/m*3 12.22 C 12.5 km/h
1512 02-02-2020 23:00:00 11.95 C 8.27 g/m*3 11.95 C 8.875 km/h
1513 03-02-2020 00:00:00 11.3 C 8.02 g/m*3 11.3 C 12.48333 km/h
1514 03-02-2020 01:00:00 10.14167 C 8.02 g/m*3 8.79 C 10.09167 km/h
1515 03-02-2020 02:00:00 10.475 C 8.04 g/m*3 8.05 C 19.18333 km/h
1516 03-02-2020 03:00:00 10.70833 C 8.19 g/m*3 8.32 C 19.45 km/h
1517 03-02-2020 04:00:00 10.35833 C 8.35 g/m*3 8.48 C 13.96667 km/h
1518 03-02-2020 05:00:00 10.45 C 8.41 g/m*3 9.45 C 8.45 km/h
1519 03-02-2020 06:00:00 10.56667 C 8.34 g/m*3 9.06 C 11.56667 km/h
1520 03-02-2020 07:00:00 10.625 C 8.24 g/m*3 9.19 C 11.16667 km/h
1521 03-02-2020 08:00:00 10.36667 C 8.13 g/m*3 8.8 C 11.7 km/h
1522 03-02-2020 09:00:00 10.49167 C 8.17 g/m*3 8.96 C 11.68333 km/h
1523 03-02-2020 10:00:00 10.95 C 8.24 g/m*3 9.38 C 12.625 km/h
1524 03-02-2020 11:00:00 12.05833 C 7.85 g/m*3 12.06 C 17.56667 km/h
1525 03-02-2020 12:00:00 12.29167 C 7.73 g/m*3 12.29 C 17.16667 km/h
Sensor: Nr:Datum:Temp:Abs-Feuchte:Windchill:Wind:
Aussen-T/F 1526 03-02-2020 13:00:00 12.26667 C 7.83 g/m*3 12.27 C 14.9 km/h
1527 03-02-2020 14:00:00 12.175 C 8.06 g/m*3 12.18 C 15.83333 km/h
1528 03-02-2020 15:00:00 12.1 C 7.97 g/m*3 12.1 C 13.43333 km/h
1529 03-02-2020 16:00:00 11.99167 C 7.57 g/m*3 11.99 C 13.7 km/h
1530 03-02-2020 17:00:00 11.45 C 7.67 g/m*3 11.45 C 8.31667 km/h
1531 03-02-2020 18:00:00 10.95 C 7.69 g/m*3 10.01 C 8.58333 km/h
1532 03-02-2020 19:00:00 9.875 C 7.94 g/m*3 9.12 C 6.85 km/h
1533 03-02-2020 20:00:00 8.83333 C 8.06 g/m*3 8.83 C 0.8 km/h
1534 03-02-2020 21:00:00 8.56667 C 8.07 g/m*3 8.57 C 0.26667 km/h
1535 03-02-2020 22:00:00 8.09167 C 7.89 g/m*3 8.09 C 0.93333 km/h
1536 03-02-2020 23:00:00 7.41667 C 7.56 g/m*3 7.42 C 4.29167 km/h
1537 04-02-2020 00:00:00 6.43333 C 7.06 g/m*3 5.63 C 5.23333 km/h
1538 04-02-2020 01:00:00 5.775 C 6.7 g/m*3 3.57 C 10.05833 km/h
1539 04-02-2020 02:00:00 4.95833 C 6.27 g/m*3 1.61 C 15.56667 km/h
1540 04-02-2020 03:00:00 4.80833 C 6.22 g/m*3 2.06 C 11.825 km/h
1541 04-02-2020 04:00:00 4.8 C 6.15 g/m*3 2 C 12.08333 km/h
1542 04-02-2020 05:00:00 4.56667 C 6.05 g/m*3 2.61 C 8.04167 km/h
1543 04-02-2020 06:00:00 4.99167 C 5.95 g/m*3 3.14 C 7.94167 km/h
1544 04-02-2020 07:00:00 4.81667 C 5.87 g/m*3 2.22 C 11.03333 km/h
1545 04-02-2020 08:00:00 4.34167 C 5.79 g/m*3 1.24 C 13.16667 km/h
1546 04-02-2020 09:00:00 4.4 C 5.85 g/m*3 1.7 C 11.15833 km/h
1547 04-02-2020 10:00:00 4.50833 C 6.02 g/m*3 3.44 C 5.21667 km/h
1548 04-02-2020 11:00:00 5.20833 C 6.16 g/m*3 2.47 C 12.23333 km/h
1549 04-02-2020 12:00:00 4.675 C 6.02 g/m*3 1.95 C 11.525 km/h
1550 04-02-2020 13:00:00 5.15 C 6.03 g/m*3 2.14 C 13.69167 km/h
Sensor: Nr:Datum:Temp:Abs-Feuchte:Windchill:Wind:
Aussen-T/F 1551 04-02-2020 14:00:00 6.19167 C 5.82 g/m*3 3.27 C 14.63333 km/h
1552 04-02-2020 15:00:00 5.85 C 5.92 g/m*3 2.93 C 14.1 km/h
1553 04-02-2020 16:00:00 5.29167 C 6.02 g/m*3 2.72 C 11.43333 km/h
1554 04-02-2020 17:00:00 5.1 C 6.06 g/m*3 3.24 C 8.05833 km/h
1555 04-02-2020 18:00:00 4.98333 C 6.04 g/m*3 2.8 C 9.275 km/h
1556 04-02-2020 19:00:00 5.05833 C 6.07 g/m*3 5.06 C 3.60833 km/h
1557 04-02-2020 20:00:00 4.75833 C 6.09 g/m*3 4.76 C 3.2 km/h
1558 04-02-2020 21:00:00 4.7 C 6.12 g/m*3 4.7 C 1.33333 km/h
1559 04-02-2020 22:00:00 4.675 C 6.16 g/m*3 4.68 C 2.4 km/h
1560 04-02-2020 23:00:00 4.675 C 6.1 g/m*3 4.68 C 2.13333 km/h
1561 05-02-2020 00:00:00 4.79167 C 6.08 g/m*3 4.79 C 2.68333 km/h
1562 05-02-2020 01:00:00 5.2 C 6.01 g/m*3 3.32 C 8.19167 km/h
1563 05-02-2020 02:00:00 5.44167 C 6.04 g/m*3 3.71 C 7.775 km/h
1564 05-02-2020 03:00:00 5.3 C 6.2 g/m*3 3.81 C 6.83333 km/h
1565 05-02-2020 04:00:00 4.625 C 5.98 g/m*3 2.98 C 6.99167 km/h
1566 05-02-2020 05:00:00 4.15833 C 5.83 g/m*3 4.16 C 4.675 km/h
1567 05-02-2020 06:00:00 4.45833 C 5.99 g/m*3 4.46 C 4.95833 km/h
1568 05-02-2020 07:00:00 4.04167 C 5.73 g/m*3 4.04 C 4.425 km/h
1569 05-02-2020 08:00:00 3.1 C 5.48 g/m*3 3.1 C 0.93333 km/h
1570 05-02-2020 09:00:00 2.83333 C 5.48 g/m*3 2.83 C 1.73333 km/h
1571 05-02-2020 10:00:00 4.36667 C 5.82 g/m*3 2.98 C 6.05 km/h
1572 05-02-2020 11:00:00 5.425 C 5.7 g/m*3 3.45 C 8.75 km/h
1573 05-02-2020 12:00:00 5.85833 C 5.67 g/m*3 4 C 8.6 km/h
1574 05-02-2020 13:00:00 6.09167 C 5.58 g/m*3 4.73 C 6.84167 km/h
1575 05-02-2020 14:00:00 6.35833 C 5.64 g/m*3 6.36 C 4.41667 km/h
Sensor: Nr:Datum:Temp:Abs-Feuchte:Windchill:Wind:
Aussen-T/F 1576 05-02-2020 15:00:00 5.56667 C 5.71 g/m*3 5.57 C 2.93333 km/h
1577 05-02-2020 16:00:00 4.86667 C 5.69 g/m*3 4.87 C 3.86667 km/h
1578 05-02-2020 17:00:00 3.675 C 5.46 g/m*3 2.45 C 5.33333 km/h
1579 05-02-2020 18:00:00 2.45833 C 5.13 g/m*3 2.46 C 2.8 km/h
1580 05-02-2020 19:00:00 1.30833 C 4.87 g/m*3 1.31 C 0.26667 km/h
1581 05-02-2020 20:00:00 0.525 C 4.68 g/m*3 0.53 C 0 km/h
1582 05-02-2020 21:00:00 0.21667 C 4.62 g/m*3 0.22 C 0.13333 km/h
1583 05-02-2020 22:00:00 -0.16667 C 4.53 g/m*3 -0.17 C 0 km/h
1584 05-02-2020 23:00:00 -0.16667 C 4.55 g/m*3 -0.17 C 0.8 km/h
1585 06-02-2020 00:00:00 -0.35 C 4.49 g/m*3 -0.35 C 0.8 km/h
1586 06-02-2020 01:00:00 -0.125 C 4.59 g/m*3 -0.13 C 0.4 km/h
1587 06-02-2020 02:00:00 -0.15833 C 4.56 g/m*3 -0.16 C 0.66667 km/h
1588 06-02-2020 03:00:00 -0.64167 C 4.4 g/m*3 -0.64 C 0.13333 km/h
1589 06-02-2020 04:00:00 -0.73333 C 4.41 g/m*3 -0.73 C 0 km/h
1590 06-02-2020 05:00:00 -0.85 C 4.39 g/m*3 -0.85 C 0 km/h
1591 06-02-2020 06:00:00 -1.04167 C 4.33 g/m*3 -1.04 C 0.26667 km/h
1592 06-02-2020 07:00:00 -1.275 C 4.26 g/m*3 -1.27 C 0.4 km/h
1593 06-02-2020 08:00:00 -0.93333 C 4.36 g/m*3 -0.93 C 0.26667 km/h
1594 06-02-2020 09:00:00 -0.5 C 4.5 g/m*3 -0.5 C 1.73333 km/h
1595 06-02-2020 10:00:00 -0.10833 C 4.65 g/m*3 -0.11 C 3.06667 km/h
1596 06-02-2020 11:00:00 0.425 C 4.84 g/m*3 0.43 C 3.74167 km/h
1597 06-02-2020 12:00:00 1.63333 C 5.26 g/m*3 1.63 C 1.2 km/h
1598 06-02-2020 13:00:00 2.98333 C 5.63 g/m*3 2.98 C 1.33333 km/h
1599 06-02-2020 14:00:00 4.50833 C 5.94 g/m*3 4.51 C 0.66667 km/h
1600 06-02-2020 15:00:00 5.35833 C 5.98 g/m*3 5.36 C 0.4 km/h
Sensor: Nr:Datum:Temp:Abs-Feuchte:Windchill:Wind:
Aussen-T/F 1601 06-02-2020 16:00:00 5.75833 C 5.72 g/m*3 5.76 C 0 km/h
1602 06-02-2020 17:00:00 4.125 C 5.44 g/m*3 4.13 C 2.93333 km/h
1603 06-02-2020 18:00:00 2.14167 C 5.03 g/m*3 2.14 C 3.33333 km/h
1604 06-02-2020 19:00:00 1.01667 C 4.77 g/m*3 1.02 C 0.13333 km/h
1605 06-02-2020 20:00:00 0.09167 C 4.56 g/m*3 0.09 C 0 km/h
1606 06-02-2020 21:00:00 -0.45833 C 4.42 g/m*3 -0.46 C 0 km/h
1607 06-02-2020 22:00:00 -0.84167 C 4.34 g/m*3 -0.84 C 0 km/h
1608 06-02-2020 23:00:00 -1.2 C 4.24 g/m*3 -1.2 C 0 km/h
1609 07-02-2020 00:00:00 -1.51667 C 4.15 g/m*3 -1.52 C 0 km/h
1610 07-02-2020 01:00:00 -1.69167 C 4.1 g/m*3 -1.69 C 0 km/h
1611 07-02-2020 02:00:00 -1.49167 C 4.19 g/m*3 -1.49 C 0 km/h
1612 07-02-2020 03:00:00 -1.2 C 4.28 g/m*3 -1.2 C 0.26667 km/h
1613 07-02-2020 04:00:00 -1.19167 C 4.28 g/m*3 -1.19 C 0.26667 km/h
1614 07-02-2020 05:00:00 -1.35 C 4.24 g/m*3 -1.35 C 0.13333 km/h
1615 07-02-2020 06:00:00 -1.50833 C 4.21 g/m*3 -1.51 C 1.06667 km/h
1616 07-02-2020 07:00:00 -1.625 C 4.17 g/m*3 -1.63 C 0 km/h
1617 07-02-2020 08:00:00 -1.63333 C 4.19 g/m*3 -1.63 C 0.26667 km/h
1618 07-02-2020 09:00:00 -1.41667 C 4.26 g/m*3 -1.42 C 0 km/h
1619 07-02-2020 10:00:00 -1.08333 C 4.36 g/m*3 -1.08 C 0 km/h
1620 07-02-2020 11:00:00 -0.5 C 4.54 g/m*3 -0.5 C 0 km/h
1621 07-02-2020 12:00:00 0.725 C 4.94 g/m*3 0.73 C 2.93333 km/h
1622 07-02-2020 13:00:00 1.83333 C 5.36 g/m*3 1.83 C 4.66667 km/h
1623 07-02-2020 14:00:00 3.05 C 5.83 g/m*3 3.05 C 3.6 km/h
1624 07-02-2020 15:00:00 3.83333 C 5.99 g/m*3 3.83 C 4.68333 km/h
1625 07-02-2020 16:00:00 3.96667 C 5.73 g/m*3 3.97 C 4.26667 km/h
Sensor: Nr:Datum:Temp:Abs-Feuchte:Windchill:Wind:
Aussen-T/F 1626 07-02-2020 17:00:00 3 C 5.39 g/m*3 3 C 4.93333 km/h
1627 07-02-2020 18:00:00 2 C 5.07 g/m*3 2 C 2.8 km/h
1628 07-02-2020 19:00:00 1.41667 C 4.93 g/m*3 1.42 C 3.86667 km/h
1629 07-02-2020 20:00:00 1.08333 C 4.85 g/m*3 1.08 C 3.33333 km/h
1630 07-02-2020 21:00:00 0.85833 C 4.8 g/m*3 0.86 C 2.66667 km/h
1631 07-02-2020 22:00:00 0.5 C 4.7 g/m*3 0.5 C 2.4 km/h
1632 07-02-2020 23:00:00 0.08333 C 4.59 g/m*3 0.08 C 0.93333 km/h
1633 08-02-2020 00:00:00 -0.28333 C 4.49 g/m*3 -0.28 C 0.4 km/h
1634 08-02-2020 01:00:00 -0.76667 C 4.36 g/m*3 -0.77 C 0.13333 km/h
1635 08-02-2020 02:00:00 -1.08333 C 4.27 g/m*3 -1.08 C 0.4 km/h
1636 08-02-2020 03:00:00 -1.30833 C 4.21 g/m*3 -1.31 C 0 km/h
1637 08-02-2020 04:00:00 -1.29167 C 4.24 g/m*3 -1.29 C 0.13333 km/h
1638 08-02-2020 05:00:00 -1.4 C 4.22 g/m*3 -1.4 C 0.53333 km/h
1639 08-02-2020 06:00:00 -1.34167 C 4.24 g/m*3 -1.34 C 0 km/h
1640 08-02-2020 07:00:00 -1.15 C 4.29 g/m*3 -1.15 C 0.13333 km/h
1641 08-02-2020 08:00:00 -0.775 C 4.41 g/m*3 -0.78 C 0.26667 km/h
1642 08-02-2020 09:00:00 0.06667 C 4.72 g/m*3 0.07 C 0 km/h
1643 08-02-2020 10:00:00 1.06667 C 5.04 g/m*3 1.07 C 0.13333 km/h
1644 08-02-2020 11:00:00 1.94167 C 5.31 g/m*3 1.94 C 0 km/h
1645 08-02-2020 12:00:00 2.64167 C 5.54 g/m*3 2.64 C 0.26667 km/h
1646 08-02-2020 13:00:00 3.3 C 5.68 g/m*3 3.3 C 0 km/h
1647 08-02-2020 14:00:00 4.3 C 5.92 g/m*3 4.3 C 0 km/h
1648 08-02-2020 15:00:00 5.19167 C 6.14 g/m*3 5.19 C 0 km/h
1649 08-02-2020 16:00:00 5.36667 C 6.2 g/m*3 5.37 C 0 km/h
1650 08-02-2020 17:00:00 4.94167 C 6.16 g/m*3 4.94 C 0 km/h
Sensor: Nr:Datum:Temp:Abs-Feuchte:Windchill:Wind:
Aussen-T/F 1651 08-02-2020 18:00:00 4.63333 C 6.15 g/m*3 4.63 C 0 km/h
1652 08-02-2020 19:00:00 4.40833 C 6.1 g/m*3 4.41 C 0 km/h
1653 08-02-2020 20:00:00 4.25833 C 6.07 g/m*3 4.26 C 0 km/h
1654 08-02-2020 21:00:00 3.73333 C 5.87 g/m*3 3.73 C 0 km/h
1655 08-02-2020 22:00:00 3.01667 C 5.63 g/m*3 3.02 C 0 km/h
1656 08-02-2020 23:00:00 3.18333 C 5.72 g/m*3 3.18 C 0 km/h
1657 09-02-2020 00:00:00 3.375 C 5.85 g/m*3 3.38 C 0 km/h
1658 09-02-2020 01:00:00 3.2 C 5.75 g/m*3 3.2 C 0 km/h
1659 09-02-2020 02:00:00 2.975 C 5.69 g/m*3 2.98 C 1.2 km/h
1660 09-02-2020 03:00:00 2.48333 C 5.48 g/m*3 2.48 C 0 km/h
1661 09-02-2020 04:00:00 2.525 C 5.55 g/m*3 2.53 C 0 km/h
1662 09-02-2020 05:00:00 3.29167 C 5.87 g/m*3 3.29 C 0.93333 km/h
1663 09-02-2020 06:00:00 3.09167 C 5.76 g/m*3 3.09 C 0.13333 km/h
1664 09-02-2020 07:00:00 4.30833 C 6.31 g/m*3 4.31 C 4.29167 km/h
1665 09-02-2020 08:00:00 7.7 C 7.57 g/m*3 6.09 C 8.99167 km/h
1666 09-02-2020 09:00:00 10.23333 C 7.84 g/m*3 8.06 C 16.23333 km/h
1667 09-02-2020 10:00:00 10.71667 C 7.75 g/m*3 8.26 C 20.24167 km/h
1668 09-02-2020 11:00:00 11.60833 C 7.63 g/m*3 11.61 C 17.3 km/h
1669 09-02-2020 12:00:00 11.65 C 7.44 g/m*3 11.65 C 17.43333 km/h
1670 09-02-2020 13:00:00 11.29167 C 7.18 g/m*3 11.29 C 10.74167 km/h
1671 09-02-2020 14:00:00 11.95 C 7.3 g/m*3 11.95 C 14.35833 km/h
1672 09-02-2020 15:00:00 12.36667 C 7.31 g/m*3 12.37 C 17.575 km/h
1673 09-02-2020 16:00:00 12.475 C 7.51 g/m*3 12.48 C 16.375 km/h
1674 09-02-2020 17:00:00 12.9 C 7.65 g/m*3 12.9 C 21.325 km/h
1675 09-02-2020 18:00:00 12.75 C 7.84 g/m*3 12.75 C 19.44167 km/h
Sensor: Nr:Datum:Temp:Abs-Feuchte:Windchill:Wind:
Aussen-T/F 1676 09-02-2020 19:00:00 12.51667 C 8.12 g/m*3 12.52 C 26.41667 km/h
1677 09-02-2020 20:00:00 12.775 C 8.21 g/m*3 12.78 C 22.925 km/h
1678 09-02-2020 21:00:00 12.26667 C 8.72 g/m*3 12.27 C 23.325 km/h
1679 09-02-2020 22:00:00 11.80833 C 8.99 g/m*3 11.81 C 23.73333 km/h
1680 09-02-2020 23:00:00 11.59167 C 9.18 g/m*3 11.59 C 25.05833 km/h
1681 10-02-2020 00:00:00 11.75 C 9.29 g/m*3 11.75 C 29.76667 km/h
1682 10-02-2020 01:00:00 11.43333 C 9.46 g/m*3 11.43 C 23.575 km/h
1683 10-02-2020 02:00:00 9.24167 C 8.26 g/m*3 6.24 C 21.84167 km/h
1684 10-02-2020 03:00:00 8.85 C 7.9 g/m*3 6.46 C 15.3 km/h
1685 10-02-2020 04:00:00 9.79167 C 7.86 g/m*3 7.41 C 17.16667 km/h
1686 10-02-2020 05:00:00 9.975 C 7.67 g/m*3 7.53 C 18.11667 km/h
1687 10-02-2020 06:00:00 9.23333 C 7.53 g/m*3 6.11 C 23.20833 km/h
1688 10-02-2020 07:00:00 9.125 C 6.94 g/m*3 5.52 C 28.825 km/h
1689 10-02-2020 08:00:00 8.49167 C 6.85 g/m*3 4.35 C 33.65 km/h
1690 10-02-2020 09:00:00 7.76667 C 6.16 g/m*3 3.37 C 34.05833 km/h
1691 10-02-2020 10:00:00 8.05 C 6.12 g/m*3 4.27 C 26.95 km/h
1692 10-02-2020 11:00:00 9.125 C 5.92 g/m*3 5.52 C 28.85 km/h
1693 10-02-2020 12:00:00 7.16667 C 6.31 g/m*3 3.5 C 22.94167 km/h
1694 10-02-2020 13:00:00 8.66667 C 6.13 g/m*3 4.76 C 31.1 km/h
1695 10-02-2020 14:00:00 8.375 C 6.35 g/m*3 4.78 C 25.875 km/h
1696 10-02-2020 15:00:00 8.49167 C 6.29 g/m*3 4.82 C 27.21667 km/h
1697 10-02-2020 16:00:00 7.99167 C 6.36 g/m*3 4.6 C 22.375 km/h
1698 10-02-2020 17:00:00 7.225 C 6.45 g/m*3 3.88 C 19.975 km/h
1699 10-02-2020 18:00:00 6.21667 C 6.61 g/m*3 4.04 C 10.35 km/h
1700 10-02-2020 19:00:00 6.15833 C 6.7 g/m*3 4.14 C 9.54167 km/h
Sensor: Nr:Datum:Temp:Abs-Feuchte:Windchill:Wind:
Aussen-T/F 1701 10-02-2020 20:00:00 5.51667 C 6.56 g/m*3 5.52 C 1.86667 km/h
1702 10-02-2020 21:00:00 5.375 C 6.58 g/m*3 3.85 C 6.975 km/h
1703 10-02-2020 22:00:00 7.26667 C 6.84 g/m*3 3.77 C 21.44167 km/h
1704 10-02-2020 23:00:00 7.78333 C 6.26 g/m*3 4.17 C 24.125 km/h
1705 11-02-2020 00:00:00 6.85833 C 5.99 g/m*3 2.57 C 28.84167 km/h
1706 11-02-2020 01:00:00 5.08333 C 5.65 g/m*3 1.57 C 16.9 km/h
1707 11-02-2020 02:00:00 5.60833 C 5.26 g/m*3 1.17 C 26.28333 km/h
1708 11-02-2020 03:00:00 5.71667 C 5.15 g/m*3 1.48 C 24.53333 km/h
1709 11-02-2020 04:00:00 6.03333 C 4.91 g/m*3 1.76 C 25.875 km/h
1710 11-02-2020 05:00:00 5.475 C 5.38 g/m*3 1.57 C 20.78333 km/h
1711 11-02-2020 06:00:00 5.14167 C 5.18 g/m*3 1.66 C 16.76667 km/h
1712 11-02-2020 07:00:00 4.76667 C 5.3 g/m*3 1.48 C 14.9 km/h
1713 11-02-2020 08:00:00 4.98333 C 5.31 g/m*3 1.3 C 17.975 km/h
1714 11-02-2020 09:00:00 5.05 C 5.53 g/m*3 1.48 C 17.3 km/h
1715 11-02-2020 10:00:00 6.025 C 5.34 g/m*3 1.9 C 24.26667 km/h
1716 11-02-2020 11:00:00 6.73333 C 5.15 g/m*3 2.86 C 23.73333 km/h
1717 11-02-2020 12:00:00 7.10833 C 5.09 g/m*3 3.29 C 24.26667 km/h
1718 11-02-2020 13:00:00 6.76667 C 5.07 g/m*3 3.18 C 21.04167 km/h
1719 11-02-2020 14:00:00 5.90833 C 5.5 g/m*3 2.2 C 20.10833 km/h
1720 11-02-2020 15:00:00 6.23333 C 5.36 g/m*3 2.74 C 19.04167 km/h
1721 11-02-2020 16:00:00 7 C 5.38 g/m*3 3.29 C 22.90833 km/h
1722 11-02-2020 17:00:00 6.25833 C 5.32 g/m*3 2.97 C 17.43333 km/h
1723 11-02-2020 18:00:00 5.975 C 5.14 g/m*3 2.74 C 16.50833 km/h
1724 11-02-2020 19:00:00 5.36667 C 5.24 g/m*3 1.96 C 16.63333 km/h
1725 11-02-2020 20:00:00 5.575 C 4.88 g/m*3 1.94 C 18.76667 km/h
Sensor: Nr:Datum:Temp:Abs-Feuchte:Windchill:Wind:
Aussen-T/F 1726 11-02-2020 21:00:00 5.225 C 4.71 g/m*3 1.39 C 19.7 km/h
1727 11-02-2020 22:00:00 4.9 C 4.78 g/m*3 1.64 C 14.9 km/h
1728 11-02-2020 23:00:00 4.81667 C 4.81 g/m*3 1.97 C 12.36667 km/h
1729 12-02-2020 00:00:00 5.25 C 4.88 g/m*3 2.69 C 11.29167 km/h
1730 12-02-2020 01:00:00 5.11667 C 5.14 g/m*3 2.19 C 13.16667 km/h
1731 12-02-2020 02:00:00 4.99167 C 5.11 g/m*3 2.43 C 11.025 km/h
1732 12-02-2020 03:00:00 4.73333 C 5.08 g/m*3 2.32 C 10.08333 km/h
1733 12-02-2020 04:00:00 4.78333 C 5.15 g/m*3 2.19 C 11.01667 km/h
1734 12-02-2020 05:00:00 5.00833 C 5.26 g/m*3 1.99 C 13.56667 km/h
1735 12-02-2020 06:00:00 5.00833 C 5.33 g/m*3 2.06 C 13.16667 km/h
1736 12-02-2020 07:00:00 4.19167 C 5.5 g/m*3 1.02 C 13.41667 km/h
1737 12-02-2020 08:00:00 3.85 C 5.51 g/m*3 1.14 C 10.63333 km/h
1738 12-02-2020 09:00:00 4.34167 C 5.51 g/m*3 1.44 C 12.1 km/h
1739 12-02-2020 10:00:00 4.9 C 5.83 g/m*3 2.55 C 9.94167 km/h
1740 12-02-2020 11:00:00 5.58333 C 5.9 g/m*3 2.05 C 17.975 km/h
1741 12-02-2020 12:00:00 5.35 C 5.84 g/m*3 2.39 C 13.69167 km/h
1742 12-02-2020 13:00:00 6.41667 C 5.89 g/m*3 3.32 C 16.25 km/h
1743 12-02-2020 14:00:00 6.83333 C 5.63 g/m*3 3.99 C 15.16667 km/h
1744 12-02-2020 15:00:00 7.1 C 5.69 g/m*3 4.24 C 15.7 km/h
1745 12-02-2020 16:00:00 6.64167 C 5.7 g/m*3 4.21 C 12.225 km/h
1746 12-02-2020 17:00:00 5.825 C 5.45 g/m*3 3.29 C 11.81667 km/h
1747 12-02-2020 18:00:00 4.54167 C 5.48 g/m*3 2.06 C 10.225 km/h
1748 12-02-2020 19:00:00 4.21667 C 5.45 g/m*3 1.79 C 9.68333 km/h
1749 12-02-2020 20:00:00 3.21667 C 5.33 g/m*3 1.66 C 6.03333 km/h
1750 12-02-2020 21:00:00 2.78333 C 5.32 g/m*3 1.21 C 5.9 km/h
Sensor: Nr:Datum:Temp:Abs-Feuchte:Windchill:Wind:
Aussen-T/F 1751 12-02-2020 22:00:00 2.56667 C 5.27 g/m*3 2.57 C 4.53333 km/h
1752 12-02-2020 23:00:00 2.4 C 5.3 g/m*3 2.4 C 3.875 km/h
1753 13-02-2020 00:00:00 2.45833 C 5.33 g/m*3 2.46 C 2.8 km/h
1754 13-02-2020 01:00:00 2.39167 C 5.31 g/m*3 2.39 C 0.4 km/h
1755 13-02-2020 02:00:00 1.65 C 5.05 g/m*3 1.65 C 1.46667 km/h
1756 13-02-2020 03:00:00 0.975 C 4.86 g/m*3 0.98 C 1.2 km/h
1757 13-02-2020 04:00:00 0.6 C 4.76 g/m*3 0.6 C 0 km/h
1758 13-02-2020 05:00:00 0.15833 C 4.65 g/m*3 0.16 C 0 km/h
1759 13-02-2020 06:00:00 0.56667 C 4.82 g/m*3 0.57 C 0.26667 km/h
1760 13-02-2020 07:00:00 0.85 C 4.93 g/m*3 0.85 C 0.8 km/h
1761 13-02-2020 08:00:00 2 C 5.33 g/m*3 2 C 1.73333 km/h
1762 13-02-2020 09:00:00 3.28333 C 5.74 g/m*3 3.28 C 4.95 km/h
1763 13-02-2020 10:00:00 4.61667 C 5.82 g/m*3 2.67 C 8.05833 km/h
1764 13-02-2020 11:00:00 6 C 5.81 g/m*3 4.1 C 8.85833 km/h
1765 13-02-2020 12:00:00 6.29167 C 6.05 g/m*3 3.9 C 11.55833 km/h
1766 13-02-2020 13:00:00 5.4 C 6.29 g/m*3 5.4 C 4.40833 km/h
1767 13-02-2020 14:00:00 5.35833 C 6.44 g/m*3 5.36 C 3.2 km/h
1768 13-02-2020 15:00:00 5.80833 C 6.76 g/m*3 5.81 C 1.2 km/h
1769 13-02-2020 16:00:00 6.59167 C 7.11 g/m*3 6.59 C 1.06667 km/h
1770 13-02-2020 17:00:00 6.31667 C 6.97 g/m*3 6.32 C 0.53333 km/h
1771 13-02-2020 18:00:00 5.41667 C 6.61 g/m*3 5.42 C 1.33333 km/h
1772 13-02-2020 19:00:00 5.21667 C 6.55 g/m*3 5.22 C 0.93333 km/h
1773 13-02-2020 20:00:00 5.375 C 6.64 g/m*3 5.38 C 1.06667 km/h
1774 13-02-2020 21:00:00 5.63333 C 6.8 g/m*3 5.63 C 0.53333 km/h
1775 13-02-2020 22:00:00 6.43333 C 7.17 g/m*3 4.49 C 9.40833 km/h
Sensor: Nr:Datum:Temp:Abs-Feuchte:Windchill:Wind:
Aussen-T/F 1776 13-02-2020 23:00:00 6.86667 C 7.23 g/m*3 6.17 C 5.09167 km/h
1777 14-02-2020 00:00:00 6.59167 C 7.17 g/m*3 5.42 C 6.44167 km/h
1778 14-02-2020 01:00:00 6.275 C 7.02 g/m*3 4.98 C 6.7 km/h
1779 14-02-2020 02:00:00 6.30833 C 7.02 g/m*3 5.13 C 6.3 km/h
1780 14-02-2020 03:00:00 6.375 C 7 g/m*3 6.38 C 3.33333 km/h
1781 14-02-2020 04:00:00 5.95 C 6.87 g/m*3 5.95 C 2.26667 km/h
1782 14-02-2020 05:00:00 5.65 C 6.77 g/m*3 5.65 C 1.46667 km/h
1783 14-02-2020 06:00:00 5.64167 C 6.81 g/m*3 5.64 C 0.93333 km/h
1784 14-02-2020 07:00:00 5.49167 C 6.74 g/m*3 5.49 C 2.93333 km/h
1785 14-02-2020 08:00:00 5.31667 C 6.66 g/m*3 5.32 C 4.14167 km/h
1786 14-02-2020 09:00:00 5.81667 C 6.75 g/m*3 4.26 C 7.375 km/h
1787 14-02-2020 10:00:00 6.18333 C 6.71 g/m*3 3.7 C 11.96667 km/h
1788 14-02-2020 11:00:00 6.69167 C 6.81 g/m*3 4.51 C 10.89167 km/h
1789 14-02-2020 12:00:00 7.21667 C 6.88 g/m*3 5.63 C 8.46667 km/h
1790 14-02-2020 13:00:00 7.71667 C 6.77 g/m*3 6.51 C 7.25 km/h
1791 14-02-2020 14:00:00 8.16667 C 6.79 g/m*3 7.07 C 7.1 km/h
1792 14-02-2020 15:00:00 8.25 C 6.58 g/m*3 7.3 C 6.56667 km/h
1793 14-02-2020 16:00:00 8.39167 C 6.83 g/m*3 8.39 C 0.93333 km/h
1794 14-02-2020 17:00:00 7.725 C 7.05 g/m*3 7.73 C 0.13333 km/h
1795 14-02-2020 18:00:00 6.8 C 6.89 g/m*3 6.8 C 0 km/h
1796 14-02-2020 19:00:00 5.975 C 6.55 g/m*3 5.98 C 2.4 km/h
1797 14-02-2020 20:00:00 4.91667 C 6.25 g/m*3 4.92 C 1.2 km/h
1798 14-02-2020 21:00:00 4.23333 C 6.06 g/m*3 4.23 C 0 km/h
1799 14-02-2020 22:00:00 3.49167 C 5.81 g/m*3 3.49 C 0 km/h
1800 14-02-2020 23:00:00 3.13333 C 5.7 g/m*3 3.13 C 0 km/h
Sensor: Nr:Datum:Temp:Abs-Feuchte:Windchill:Wind:
Aussen-T/F 1801 15-02-2020 00:00:00 2.75 C 5.57 g/m*3 2.75 C 0 km/h
1802 15-02-2020 01:00:00 3.19167 C 5.78 g/m*3 3.19 C 0.13333 km/h
1803 15-02-2020 02:00:00 3.25833 C 5.81 g/m*3 3.26 C 0 km/h
1804 15-02-2020 03:00:00 2.69167 C 5.59 g/m*3 2.69 C 0 km/h
1805 15-02-2020 04:00:00 2.46667 C 5.52 g/m*3 2.47 C 0 km/h
1806 15-02-2020 05:00:00 2.25 C 5.44 g/m*3 2.25 C 0 km/h
1807 15-02-2020 06:00:00 1.85833 C 5.3 g/m*3 1.86 C 0 km/h
1808 15-02-2020 07:00:00 1.725 C 5.28 g/m*3 1.73 C 0.8 km/h
1809 15-02-2020 08:00:00 2.34167 C 5.52 g/m*3 2.34 C 0.26667 km/h
1810 15-02-2020 09:00:00 3.675 C 6.04 g/m*3 3.68 C 0 km/h
1811 15-02-2020 10:00:00 4.83333 C 6.56 g/m*3 4.83 C 0.26667 km/h
1812 15-02-2020 11:00:00 6.5 C 7.3 g/m*3 6.5 C 0.13333 km/h
1813 15-02-2020 12:00:00 8.80833 C 8 g/m*3 8.81 C 2.8 km/h
1814 15-02-2020 13:00:00 11.19167 C 7.86 g/m*3 11.19 C 9.4 km/h
1815 15-02-2020 14:00:00 11.45 C 7.6 g/m*3 11.45 C 8.475 km/h
1816 15-02-2020 15:00:00 11.50833 C 7.6 g/m*3 11.51 C 7.79167 km/h
1817 15-02-2020 16:00:00 10.95 C 7.63 g/m*3 10.95 C 2.4 km/h
1818 15-02-2020 17:00:00 8.89167 C 7.33 g/m*3 8.89 C 1.86667 km/h
1819 15-02-2020 18:00:00 7.575 C 7.12 g/m*3 7.58 C 3.2 km/h
1820 15-02-2020 19:00:00 7.35 C 7.11 g/m*3 7.35 C 1.86667 km/h
1821 15-02-2020 20:00:00 7.61667 C 7.16 g/m*3 7.62 C 2.26667 km/h
1822 15-02-2020 21:00:00 8.1 C 7.16 g/m*3 8.1 C 0.8 km/h
1823 15-02-2020 22:00:00 8.64167 C 7.16 g/m*3 8.64 C 2.00833 km/h
1824 15-02-2020 23:00:00 10 C 7.3 g/m*3 9.73 C 5.08333 km/h
1825 16-02-2020 00:00:00 10.275 C 7.33 g/m*3 9.43 C 7.5 km/h
Sensor: Nr:Datum:Temp:Abs-Feuchte:Windchill:Wind:
Aussen-T/F 1826 16-02-2020 01:00:00 10.58333 C 7.47 g/m*3 9.97 C 6.7 km/h
1827 16-02-2020 02:00:00 11.20833 C 7.73 g/m*3 11.21 C 5.90833 km/h
1828 16-02-2020 03:00:00 12.35833 C 7.89 g/m*3 12.36 C 8.46667 km/h
1829 16-02-2020 04:00:00 12.58333 C 7.77 g/m*3 12.58 C 7.76667 km/h
1830 16-02-2020 05:00:00 12.15833 C 7.68 g/m*3 12.16 C 4.69167 km/h
1831 16-02-2020 06:00:00 13.19167 C 7.74 g/m*3 13.19 C 11.69167 km/h
1832 16-02-2020 07:00:00 13.9 C 8.33 g/m*3 13.9 C 19.45 km/h
1833 16-02-2020 08:00:00 13.75833 C 8.79 g/m*3 13.76 C 21.58333 km/h
1834 16-02-2020 09:00:00 13.95833 C 8.75 g/m*3 13.96 C 19.04167 km/h
1835 16-02-2020 10:00:00 14.4 C 8.62 g/m*3 14.4 C 14.1 km/h
1836 16-02-2020 11:00:00 15.44167 C 8.48 g/m*3 15.44 C 13.425 km/h
1837 16-02-2020 12:00:00 16.43333 C 8.17 g/m*3 16.43 C 13.56667 km/h
1838 16-02-2020 13:00:00 17.26667 C 8.03 g/m*3 17.27 C 18.76667 km/h
1839 16-02-2020 14:00:00 17.83333 C 7.96 g/m*3 17.83 C 19.3 km/h
1840 16-02-2020 15:00:00 17.69167 C 8.04 g/m*3 17.69 C 11.29167 km/h
1841 16-02-2020 16:00:00 17.75833 C 7.91 g/m*3 17.76 C 17.43333 km/h
1842 16-02-2020 17:00:00 16.25 C 7.9 g/m*3 16.25 C 7.93333 km/h
1843 16-02-2020 18:00:00 15.45833 C 7.67 g/m*3 15.46 C 12.1 km/h
1844 16-02-2020 19:00:00 15.81667 C 7.68 g/m*3 15.82 C 11.95833 km/h
1845 16-02-2020 20:00:00 16.125 C 7.86 g/m*3 16.13 C 16.9 km/h
1846 16-02-2020 21:00:00 16.425 C 8.07 g/m*3 16.43 C 28.68333 km/h
1847 16-02-2020 22:00:00 16.33333 C 8.47 g/m*3 16.33 C 26.95 km/h
1848 16-02-2020 23:00:00 12.95833 C 8.88 g/m*3 12.96 C 18.775 km/h
1849 17-02-2020 00:00:00 9.95833 C 8.26 g/m*3 8.66 C 9.53333 km/h
1850 17-02-2020 01:00:00 9.46667 C 7.94 g/m*3 7.74 C 11.55 km/h
Sensor: Nr:Datum:Temp:Abs-Feuchte:Windchill:Wind:
Aussen-T/F 1851 17-02-2020 02:00:00 8.51667 C 7.35 g/m*3 5.96 C 15.95833 km/h
1852 17-02-2020 03:00:00 8.31667 C 6.94 g/m*3 6.1 C 13.15833 km/h
1853 17-02-2020 04:00:00 8.28333 C 6.95 g/m*3 6.12 C 12.75833 km/h
1854 17-02-2020 05:00:00 8.03333 C 7 g/m*3 6.66 C 8.18333 km/h
1855 17-02-2020 06:00:00 8.05 C 7.1 g/m*3 6.47 C 9.13333 km/h
1856 17-02-2020 07:00:00 8.175 C 7.14 g/m*3 7.21 C 6.58333 km/h
1857 17-02-2020 08:00:00 8.1 C 7.14 g/m*3 7.57 C 5.08333 km/h
1858 17-02-2020 09:00:00 8.7 C 7.22 g/m*3 7.69 C 7.10833 km/h
1859 17-02-2020 10:00:00 8.96667 C 7.26 g/m*3 7.58 C 9.00833 km/h
1860 17-02-2020 11:00:00 9.43333 C 7.15 g/m*3 7.19 C 15.16667 km/h
1861 17-02-2020 12:00:00 9.55833 C 6.94 g/m*3 7.43 C 14.5 km/h
1862 17-02-2020 13:00:00 10.03333 C 6.94 g/m*3 7.74 C 16.9 km/h
1863 17-02-2020 14:00:00 10.45833 C 7.15 g/m*3 7.92 C 20.375 km/h
1864 17-02-2020 15:00:00 10.73333 C 7.22 g/m*3 8.58 C 17.16667 km/h
1865 17-02-2020 16:00:00 10.96667 C 7.18 g/m*3 8.9 C 16.9 km/h
1866 17-02-2020 17:00:00 9.54167 C 7.05 g/m*3 7.31 C 15.3 km/h
1867 17-02-2020 18:00:00 7.29167 C 6.65 g/m*3 4.46 C 15.84167 km/h
1868 17-02-2020 19:00:00 6.71667 C 6.5 g/m*3 4.8 C 9.54167 km/h
1869 17-02-2020 20:00:00 5.5 C 6.25 g/m*3 5.5 C 2 km/h
1870 17-02-2020 21:00:00 5.35833 C 6.47 g/m*3 5.36 C 1.86667 km/h
1871 17-02-2020 22:00:00 6.875 C 6.93 g/m*3 4.86 C 10.2 km/h
1872 17-02-2020 23:00:00 8.01667 C 6.92 g/m*3 5.96 C 11.69167 km/h
1873 18-02-2020 00:00:00 8.025 C 6.65 g/m*3 5.68 C 13.55 km/h
1874 18-02-2020 01:00:00 8.06667 C 6.6 g/m*3 6.02 C 11.69167 km/h
1875 18-02-2020 02:00:00 7.58333 C 6.53 g/m*3 5.48 C 11.43333 km/h
Sensor: Nr:Datum:Temp:Abs-Feuchte:Windchill:Wind:
Aussen-T/F 1876 18-02-2020 03:00:00 7.41667 C 6.47 g/m*3 5.13 C 12.35833 km/h
1877 18-02-2020 04:00:00 6.81667 C 6.3 g/m*3 4.44 C 12.09167 km/h
1878 18-02-2020 05:00:00 6.38333 C 6.17 g/m*3 3.23 C 16.63333 km/h
1879 18-02-2020 06:00:00 6.13333 C 6.17 g/m*3 3.3 C 13.96667 km/h
1880 18-02-2020 07:00:00 5.84167 C 6.09 g/m*3 3.36 C 11.56667 km/h
1881 18-02-2020 08:00:00 5.75 C 6.08 g/m*3 3.33 C 11.14167 km/h
1882 18-02-2020 09:00:00 6.11667 C 6.18 g/m*3 3.72 C 11.41667 km/h
1883 18-02-2020 10:00:00 6.775 C 6.14 g/m*3 3.86 C 15.56667 km/h
1884 18-02-2020 11:00:00 7.45 C 6.22 g/m*3 4.73 C 15.3 km/h
1885 18-02-2020 12:00:00 8.06667 C 6.29 g/m*3 5.44 C 15.7 km/h
1886 18-02-2020 13:00:00 8.55833 C 6.36 g/m*3 5.66 C 19.04167 km/h
1887 18-02-2020 14:00:00 8.29167 C 6.34 g/m*3 5.52 C 17.3 km/h
1888 18-02-2020 15:00:00 8.6 C 6.27 g/m*3 6.15 C 15.3 km/h
1889 18-02-2020 16:00:00 8.40833 C 6.24 g/m*3 6.5 C 11.29167 km/h
1890 18-02-2020 17:00:00 8.125 C 6.31 g/m*3 6.53 C 9.275 km/h
1891 18-02-2020 18:00:00 7.40833 C 6.29 g/m*3 6.01 C 7.79167 km/h
1892 18-02-2020 19:00:00 6.325 C 6.15 g/m*3 6.33 C 1.86667 km/h
1893 18-02-2020 20:00:00 6.54167 C 6.24 g/m*3 5.1 C 7.38333 km/h
1894 18-02-2020 21:00:00 6.84167 C 6.31 g/m*3 5.49 C 7.25 km/h
1895 18-02-2020 22:00:00 7.29167 C 6.51 g/m*3 6.05 C 7.11667 km/h
1896 18-02-2020 23:00:00 7.175 C 6.54 g/m*3 5.58 C 8.46667 km/h
1897 19-02-2020 00:00:00 7.31667 C 6.46 g/m*3 4.57 C 15.29167 km/h
1898 19-02-2020 01:00:00 7.43333 C 6.38 g/m*3 5.02 C 13.15 km/h
1899 19-02-2020 02:00:00 7.60833 C 6.46 g/m*3 4.67 C 17.3 km/h
1900 19-02-2020 03:00:00 7.38333 C 6.57 g/m*3 4.47 C 16.63333 km/h
Sensor: Nr:Datum:Temp:Abs-Feuchte:Windchill:Wind:
Aussen-T/F 1901 19-02-2020 04:00:00 6.85833 C 6.72 g/m*3 3.94 C 15.7 km/h
1902 19-02-2020 05:00:00 6.825 C 6.62 g/m*3 3.67 C 17.44167 km/h
1903 19-02-2020 06:00:00 6.41667 C 6.3 g/m*3 4.03 C 11.7 km/h
1904 19-02-2020 07:00:00 6 C 6.09 g/m*3 3.22 C 13.43333 km/h
1905 19-02-2020 08:00:00 5.575 C 5.87 g/m*3 2.96 C 11.96667 km/h
1906 19-02-2020 09:00:00 5.55 C 5.83 g/m*3 4.14 C 6.69167 km/h
1907 19-02-2020 10:00:00 5.66667 C 5.84 g/m*3 3.74 C 8.725 km/h
1908 19-02-2020 11:00:00 6.5 C 5.72 g/m*3 3.75 C 13.96667 km/h
1909 19-02-2020 12:00:00 7.01667 C 5.46 g/m*3 4.25 C 14.9 km/h
1910 19-02-2020 13:00:00 7.39167 C 5.26 g/m*3 4.38 C 17.43333 km/h
1911 19-02-2020 14:00:00 7.70833 C 5.25 g/m*3 4.94 C 16.1 km/h
1912 19-02-2020 15:00:00 7.88333 C 5.21 g/m*3 5.28 C 15.16667 km/h
1913 19-02-2020 16:00:00 7.91667 C 5.16 g/m*3 5.55 C 13.56667 km/h
1914 19-02-2020 17:00:00 7.06667 C 5.06 g/m*3 5.36 C 8.86667 km/h
1915 19-02-2020 18:00:00 5.05 C 5.18 g/m*3 5.05 C 0 km/h
1916 19-02-2020 19:00:00 3.35833 C 5.03 g/m*3 3.36 C 0 km/h
1917 19-02-2020 20:00:00 2.76667 C 4.93 g/m*3 2.77 C 0.4 km/h
1918 19-02-2020 21:00:00 3.59167 C 5.11 g/m*3 3.59 C 2.8 km/h
1919 19-02-2020 22:00:00 5.49167 C 5.44 g/m*3 2.56 C 13.68333 km/h
1920 19-02-2020 23:00:00 5.50833 C 5.93 g/m*3 2.9 C 11.825 km/h
1921 20-02-2020 00:00:00 5.675 C 6.15 g/m*3 3.06 C 12.09167 km/h
1922 20-02-2020 01:00:00 5.85833 C 6.36 g/m*3 4.66 C 6.16667 km/h
1923 20-02-2020 02:00:00 6.225 C 6.39 g/m*3 4.14 C 9.93333 km/h
1924 20-02-2020 03:00:00 6.675 C 6.52 g/m*3 4.44 C 11.15833 km/h
1925 20-02-2020 04:00:00 6.95833 C 6.65 g/m*3 4.8 C 11.025 km/h
Sensor: Nr:Datum:Temp:Abs-Feuchte:Windchill:Wind:
Aussen-T/F 1926 20-02-2020 05:00:00 7.09167 C 6.72 g/m*3 5.3 C 9.28333 km/h
1927 20-02-2020 06:00:00 7.16667 C 6.85 g/m*3 6.51 C 5.09167 km/h
1928 20-02-2020 07:00:00 7.2 C 6.95 g/m*3 7.2 C 2.81667 km/h
1929 20-02-2020 08:00:00 7.23333 C 7.05 g/m*3 7.23 C 0.66667 km/h
1930 20-02-2020 09:00:00 7.80833 C 7.21 g/m*3 7.81 C 4.15 km/h
1931 20-02-2020 10:00:00 8.65833 C 7.21 g/m*3 7.45 C 7.91667 km/h
1932 20-02-2020 11:00:00 9.56667 C 7.25 g/m*3 7.57 C 13.55833 km/h
1933 20-02-2020 12:00:00 9.65 C 7.18 g/m*3 8.06 C 10.89167 km/h
1934 20-02-2020 13:00:00 9.725 C 7.41 g/m*3 8.14 C 11 km/h
1935 20-02-2020 14:00:00 10.15833 C 7.16 g/m*3 7.98 C 16.1 km/h
1936 20-02-2020 15:00:00 9.98333 C 7.18 g/m*3 8.11 C 13.3 km/h
1937 20-02-2020 16:00:00 9.575 C 7 g/m*3 7.81 C 11.95 km/h
1938 20-02-2020 17:00:00 9.39167 C 6.86 g/m*3 7.56 C 12.1 km/h
1939 20-02-2020 18:00:00 9.34167 C 6.86 g/m*3 7.59 C 11.54167 km/h
1940 20-02-2020 19:00:00 8.66667 C 6.79 g/m*3 6.65 C 12.33333 km/h
1941 20-02-2020 20:00:00 9.5 C 6.78 g/m*3 6.91 C 18.36667 km/h
1942 20-02-2020 21:00:00 9.13333 C 7 g/m*3 6.09 C 21.975 km/h
1943 20-02-2020 22:00:00 8.13333 C 7.14 g/m*3 5.11 C 19.175 km/h
1944 20-02-2020 23:00:00 6.6 C 6.56 g/m*3 3.96 C 13.425 km/h
1945 21-02-2020 00:00:00 5.43333 C 6.11 g/m*3 2.2 C 15.56667 km/h
1946 21-02-2020 01:00:00 4.84167 C 5.58 g/m*3 1.95 C 12.63333 km/h
1947 21-02-2020 02:00:00 4.225 C 5.43 g/m*3 2.06 C 8.60833 km/h
1948 21-02-2020 03:00:00 3.83333 C 5.36 g/m*3 2.32 C 6.16667 km/h
1949 21-02-2020 04:00:00 2.85833 C 5.26 g/m*3 1.35 C 5.75833 km/h
1950 21-02-2020 05:00:00 2.81667 C 5.26 g/m*3 1.25 C 5.9 km/h
Sensor: Nr:Datum:Temp:Abs-Feuchte:Windchill:Wind:
Aussen-T/F 1951 21-02-2020 06:00:00 2.6 C 5.17 g/m*3 1.06 C 5.75 km/h
1952 21-02-2020 07:00:00 2.89167 C 5.15 g/m*3 0.8 C 7.525 km/h
1953 21-02-2020 08:00:00 2.6 C 5.08 g/m*3 2.6 C 3.74167 km/h
1954 21-02-2020 09:00:00 3.33333 C 5.33 g/m*3 1.48 C 6.975 km/h
1955 21-02-2020 10:00:00 4.35833 C 5.52 g/m*3 2.16 C 8.85833 km/h
1956 21-02-2020 11:00:00 5.825 C 5.83 g/m*3 3.19 C 12.36667 km/h
1957 21-02-2020 12:00:00 7.175 C 6.11 g/m*3 4.37 C 15.43333 km/h
1958 21-02-2020 13:00:00 7.76667 C 6.18 g/m*3 4.85 C 17.43333 km/h
1959 21-02-2020 14:00:00 7.99167 C 6.22 g/m*3 5.58 C 13.95833 km/h
1960 21-02-2020 15:00:00 8.36667 C 6.17 g/m*3 6.24 C 12.625 km/h
1961 21-02-2020 16:00:00 8.225 C 6.05 g/m*3 6.45 C 10.35 km/h
1962 21-02-2020 17:00:00 7.73333 C 5.89 g/m*3 6.6 C 6.96667 km/h
1963 21-02-2020 18:00:00 6.16667 C 5.75 g/m*3 6.17 C 2.8 km/h
1964 21-02-2020 19:00:00 4.98333 C 5.61 g/m*3 4.98 C 2.40833 km/h
1965 21-02-2020 20:00:00 5.35 C 5.62 g/m*3 3.99 C 6.43333 km/h
1966 21-02-2020 21:00:00 5.73333 C 5.69 g/m*3 4.88 C 5.08333 km/h
1967 21-02-2020 22:00:00 4.68333 C 5.62 g/m*3 4.68 C 2.4 km/h
1968 21-02-2020 23:00:00 4.43333 C 5.69 g/m*3 4.43 C 3.475 km/h
1969 22-02-2020 00:00:00 4.54167 C 5.71 g/m*3 4.54 C 4.14167 km/h
1970 22-02-2020 01:00:00 4.55833 C 5.69 g/m*3 4.56 C 3.74167 km/h
1971 22-02-2020 02:00:00 5.025 C 5.78 g/m*3 2.32 C 11.81667 km/h
1972 22-02-2020 03:00:00 5.41667 C 5.79 g/m*3 2.61 C 12.875 km/h
1973 22-02-2020 04:00:00 5.28333 C 5.76 g/m*3 3.01 C 9.94167 km/h
1974 22-02-2020 05:00:00 5.70833 C 5.87 g/m*3 2.3 C 17.3 km/h
1975 22-02-2020 06:00:00 5.825 C 5.88 g/m*3 2.41 C 17.575 km/h
Sensor: Nr:Datum:Temp:Abs-Feuchte:Windchill:Wind:
Aussen-T/F 1976 22-02-2020 07:00:00 5.78333 C 5.86 g/m*3 2.96 C 13.425 km/h
1977 22-02-2020 08:00:00 6.04167 C 5.91 g/m*3 3.39 C 12.76667 km/h
1978 22-02-2020 09:00:00 6.69167 C 6 g/m*3 3.46 C 17.83333 km/h
1979 22-02-2020 10:00:00 7.43333 C 6.02 g/m*3 3.9 C 22.25 km/h
1980 22-02-2020 11:00:00 7.9 C 6.06 g/m*3 4.94 C 18.10833 km/h
1981 22-02-2020 12:00:00 8.80833 C 6.05 g/m*3 7.75 C 7.36667 km/h
1982 22-02-2020 13:00:00 9.89167 C 6.22 g/m*3 8.76 C 8.60833 km/h
1983 22-02-2020 14:00:00 10.29167 C 6.29 g/m*3 8.16 C 15.96667 km/h
1984 22-02-2020 15:00:00 10.59167 C 6.58 g/m*3 8.35 C 17.7 km/h
1985 22-02-2020 16:00:00 10.71667 C 6.85 g/m*3 8.46 C 18.1 km/h
1986 22-02-2020 17:00:00 10.31667 C 6.93 g/m*3 8.22 C 15.7 km/h
1987 22-02-2020 18:00:00 10.11667 C 7.17 g/m*3 8.01 C 15.43333 km/h
1988 22-02-2020 19:00:00 9.94167 C 7.49 g/m*3 7.67 C 16.5 km/h
1989 22-02-2020 20:00:00 10.23333 C 7.76 g/m*3 8.18 C 15.16667 km/h
1990 22-02-2020 21:00:00 10.39167 C 7.93 g/m*3 8.46 C 14.49167 km/h
1991 22-02-2020 22:00:00 10.8 C 8.1 g/m*3 8.53 C 18.5 km/h
1992 22-02-2020 23:00:00 10.9 C 8.16 g/m*3 8.89 C 16.23333 km/h
1993 23-02-2020 00:00:00 10.8 C 8.14 g/m*3 8.94 C 14.625 km/h
1994 23-02-2020 01:00:00 9.90833 C 8.34 g/m*3 8.27 C 11.56667 km/h
1995 23-02-2020 02:00:00 10.1 C 8.3 g/m*3 8.24 C 13.43333 km/h
1996 23-02-2020 03:00:00 10.2 C 8.09 g/m*3 8.26 C 14.23333 km/h
1997 23-02-2020 04:00:00 10.25833 C 7.98 g/m*3 8.36 C 13.96667 km/h
1998 23-02-2020 05:00:00 10.34167 C 8.21 g/m*3 8.36 C 14.76667 km/h
1999 23-02-2020 06:00:00 10.28333 C 8.17 g/m*3 8.53 C 12.89167 km/h
2000 23-02-2020 07:00:00 10.25 C 8.31 g/m*3 8.02 C 16.78333 km/h
Sensor: Nr:Datum:Temp:Abs-Feuchte:Windchill:Wind:
Aussen-T/F 2001 23-02-2020 08:00:00 10.525 C 8.55 g/m*3 7.92 C 21.3 km/h
2002 23-02-2020 09:00:00 10.58333 C 8.64 g/m*3 8.32 C 17.825 km/h
2003 23-02-2020 10:00:00 10.91667 C 8.73 g/m*3 8.34 C 22.24167 km/h
2004 23-02-2020 11:00:00 11.325 C 8.79 g/m*3 11.33 C 20.91667 km/h
2005 23-02-2020 12:00:00 11.775 C 8.97 g/m*3 11.78 C 24.66667 km/h
2006 23-02-2020 13:00:00 12.03333 C 8.98 g/m*3 12.03 C 23.175 km/h
2007 23-02-2020 14:00:00 12.05833 C 9.09 g/m*3 12.06 C 23.74167 km/h
2008 23-02-2020 15:00:00 12.175 C 9.27 g/m*3 12.18 C 23.30833 km/h
2009 23-02-2020 16:00:00 12.1 C 9.29 g/m*3 12.1 C 18.5 km/h
2010 23-02-2020 17:00:00 11.9 C 9.36 g/m*3 11.9 C 18.24167 km/h
2011 23-02-2020 18:00:00 11.34167 C 9.46 g/m*3 11.34 C 13.83333 km/h
2012 23-02-2020 19:00:00 10.65 C 9.11 g/m*3 8.62 C 15.825 km/h
2013 23-02-2020 20:00:00 8.6 C 7.84 g/m*3 6.2 C 14.9 km/h
2014 23-02-2020 21:00:00 8.30833 C 7.44 g/m*3 5.79 C 15.3 km/h
2015 23-02-2020 22:00:00 8.175 C 7.09 g/m*3 5.84 C 13.7 km/h
2016 23-02-2020 23:00:00 7.55 C 6.48 g/m*3 6.02 C 8.46667 km/h
2017 24-02-2020 00:00:00 7.13333 C 6.25 g/m*3 7.13 C 4.80833 km/h
2018 24-02-2020 01:00:00 6.325 C 6.15 g/m*3 6.33 C 4.68333 km/h
2019 24-02-2020 02:00:00 5.21667 C 5.91 g/m*3 5.22 C 1.73333 km/h
2020 24-02-2020 03:00:00 5.175 C 5.92 g/m*3 5.18 C 1.875 km/h
2021 24-02-2020 04:00:00 5.075 C 5.93 g/m*3 5.08 C 0.66667 km/h
2022 24-02-2020 05:00:00 4.68333 C 6.02 g/m*3 4.68 C 0 km/h
2023 24-02-2020 06:00:00 4.68333 C 6.11 g/m*3 4.68 C 0 km/h
2024 24-02-2020 07:00:00 4.85833 C 6.19 g/m*3 4.86 C 0.53333 km/h
2025 24-02-2020 08:00:00 5.61667 C 6.36 g/m*3 5.62 C 3.34167 km/h
Sensor: Nr:Datum:Temp:Abs-Feuchte:Windchill:Wind:
Aussen-T/F 2026 24-02-2020 09:00:00 6.49167 C 6.47 g/m*3 6.49 C 1.86667 km/h
2027 24-02-2020 10:00:00 6.525 C 6.69 g/m*3 6.53 C 1.46667 km/h
2028 24-02-2020 11:00:00 6.39167 C 6.92 g/m*3 6.39 C 1.2 km/h
2029 24-02-2020 12:00:00 6.88333 C 7.27 g/m*3 6.88 C 1.46667 km/h
2030 24-02-2020 13:00:00 7.90833 C 7.82 g/m*3 7.91 C 0.4 km/h
2031 24-02-2020 14:00:00 9.40833 C 8.66 g/m*3 8.74 C 6.175 km/h
2032 24-02-2020 15:00:00 11.13333 C 9.25 g/m*3 11.13 C 19.3 km/h
2033 24-02-2020 16:00:00 11.9 C 9.37 g/m*3 11.9 C 21.575 km/h
2034 24-02-2020 17:00:00 11.68333 C 8.92 g/m*3 11.68 C 24.93333 km/h
2035 24-02-2020 18:00:00 11.375 C 8.48 g/m*3 11.38 C 22.78333 km/h
2036 24-02-2020 19:00:00 11.26667 C 8.3 g/m*3 11.27 C 17.56667 km/h
2037 24-02-2020 20:00:00 11.40833 C 8.09 g/m*3 11.41 C 19.03333 km/h
2038 24-02-2020 21:00:00 11.16667 C 8.21 g/m*3 11.17 C 18.24167 km/h
2039 24-02-2020 22:00:00 11.15 C 8.29 g/m*3 11.15 C 20.23333 km/h
2040 24-02-2020 23:00:00 11.175 C 8.39 g/m*3 11.18 C 21.84167 km/h
2041 25-02-2020 00:00:00 10.89167 C 8.48 g/m*3 9.17 C 13.69167 km/h
2042 25-02-2020 01:00:00 10.8 C 8.5 g/m*3 8.99 C 14.23333 km/h
2043 25-02-2020 02:00:00 10.70833 C 8.52 g/m*3 9.03 C 13.03333 km/h
2044 25-02-2020 03:00:00 10.38333 C 8.46 g/m*3 9.05 C 10.225 km/h
2045 25-02-2020 04:00:00 10.3 C 8.39 g/m*3 8.55 C 12.9 km/h
2046 25-02-2020 05:00:00 10.14167 C 8.26 g/m*3 8.25 C 13.7 km/h
2047 25-02-2020 06:00:00 9.925 C 8.15 g/m*3 7.22 C 20.65 km/h
2048 25-02-2020 07:00:00 9.50833 C 8.11 g/m*3 7.41 C 14.23333 km/h
2049 25-02-2020 08:00:00 8.81667 C 8.14 g/m*3 7.69 C 7.66667 km/h
2050 25-02-2020 09:00:00 8.71667 C 8.09 g/m*3 8.03 C 5.89167 km/h
Sensor: Nr:Datum:Temp:Abs-Feuchte:Windchill:Wind:
Aussen-T/F 2051 25-02-2020 10:00:00 8.59167 C 7.21 g/m*3 6.41 C 13.3 km/h
2052 25-02-2020 11:00:00 8.73333 C 6.81 g/m*3 6.64 C 12.9 km/h
2053 25-02-2020 12:00:00 9.51667 C 6.55 g/m*3 7.47 C 13.825 km/h
2054 25-02-2020 13:00:00 10.15 C 6.68 g/m*3 7.8 C 17.7 km/h
2055 25-02-2020 14:00:00 10.28333 C 6.43 g/m*3 7.93 C 17.96667 km/h
2056 25-02-2020 15:00:00 10.125 C 6.42 g/m*3 8.25 C 13.56667 km/h
2057 25-02-2020 16:00:00 10.43333 C 6.33 g/m*3 8.81 C 12.23333 km/h
2058 25-02-2020 17:00:00 9.875 C 6.38 g/m*3 8.09 C 12.48333 km/h
2059 25-02-2020 18:00:00 8.85 C 6.37 g/m*3 7.22 C 10.21667 km/h
2060 25-02-2020 19:00:00 7.40833 C 6.54 g/m*3 7.41 C 3.21667 km/h
2061 25-02-2020 20:00:00 6.54167 C 6.72 g/m*3 6.54 C 3.88333 km/h
2062 25-02-2020 21:00:00 6.38333 C 6.58 g/m*3 4.92 C 7.36667 km/h
2063 25-02-2020 22:00:00 5.85833 C 5.67 g/m*3 2.97 C 13.94167 km/h
2064 25-02-2020 23:00:00 4.93333 C 5.58 g/m*3 3.42 C 6.70833 km/h
2065 26-02-2020 00:00:00 5.7 C 5.83 g/m*3 5.7 C 3.89167 km/h
2066 26-02-2020 01:00:00 5.9 C 6.01 g/m*3 3.26 C 12.48333 km/h
2067 26-02-2020 02:00:00 5.575 C 5.71 g/m*3 2.82 C 12.76667 km/h
2068 26-02-2020 03:00:00 5.01667 C 5.33 g/m*3 2.23 C 12.23333 km/h
2069 26-02-2020 04:00:00 4.36667 C 5.27 g/m*3 1.14 C 13.96667 km/h
2070 26-02-2020 05:00:00 4.41667 C 5.18 g/m*3 0.6 C 17.96667 km/h
2071 26-02-2020 06:00:00 4.28333 C 5.03 g/m*3 -0.01 C 21.45 km/h
2072 26-02-2020 07:00:00 3.95 C 5.06 g/m*3 0.01 C 17.975 km/h
2073 26-02-2020 08:00:00 4.09167 C 5.15 g/m*3 0.13 C 18.36667 km/h
2074 26-02-2020 09:00:00 3.90833 C 5.29 g/m*3 0.03 C 17.43333 km/h
2075 26-02-2020 10:00:00 4.25833 C 5.48 g/m*3 0.43 C 17.7 km/h
Sensor: Nr:Datum:Temp:Abs-Feuchte:Windchill:Wind:
Aussen-T/F 2076 26-02-2020 11:00:00 5.23333 C 5.56 g/m*3 1.51 C 18.76667 km/h
2077 26-02-2020 12:00:00 6.025 C 5.62 g/m*3 2.44 C 19.3 km/h
2078 26-02-2020 13:00:00 6.00833 C 5.6 g/m*3 2.45 C 19.03333 km/h
2079 26-02-2020 14:00:00 5.69167 C 5.77 g/m*3 2.35 C 16.76667 km/h
2080 26-02-2020 15:00:00 6.28333 C 5.77 g/m*3 2.83 C 18.775 km/h
2081 26-02-2020 16:00:00 5.96667 C 5.42 g/m*3 2.64 C 17.16667 km/h
2082 26-02-2020 17:00:00 5.55 C 5.31 g/m*3 2.38 C 15.3 km/h
2083 26-02-2020 18:00:00 4.53333 C 5.23 g/m*3 1.83 C 11.3 km/h
2084 26-02-2020 19:00:00 4.425 C 5.34 g/m*3 2.34 C 8.46667 km/h
2085 26-02-2020 20:00:00 4.01667 C 5.26 g/m*3 1.75 C 8.875 km/h
2086 26-02-2020 21:00:00 3.99167 C 5.31 g/m*3 2.09 C 7.50833 km/h
2087 26-02-2020 22:00:00 3.9 C 5.36 g/m*3 2.14 C 6.96667 km/h
2088 26-02-2020 23:00:00 3.625 C 5.37 g/m*3 1.39 C 8.475 km/h
2089 27-02-2020 00:00:00 3.5 C 5.29 g/m*3 1.28 C 8.325 km/h
2090 27-02-2020 01:00:00 3.01667 C 5.16 g/m*3 1.8 C 5.08333 km/h
2091 27-02-2020 02:00:00 3.19167 C 5.23 g/m*3 0.45 C 10.225 km/h
2092 27-02-2020 03:00:00 3.51667 C 5.42 g/m*3 0.66 C 11.025 km/h
2093 27-02-2020 04:00:00 3.3 C 5.38 g/m*3 0.8 C 9.275 km/h
2094 27-02-2020 05:00:00 2.725 C 5.21 g/m*3 1.36 C 5.34167 km/h
2095 27-02-2020 06:00:00 2.725 C 5.15 g/m*3 0.37 C 8.33333 km/h
2096 27-02-2020 07:00:00 3.08333 C 5.22 g/m*3 3.08 C 4.55 km/h
2097 27-02-2020 08:00:00 3.50833 C 5.44 g/m*3 3.51 C 0.53333 km/h
2098 27-02-2020 09:00:00 4.6 C 5.6 g/m*3 4.6 C 3.06667 km/h
2099 27-02-2020 10:00:00 5.33333 C 5.62 g/m*3 5.33 C 3.475 km/h
2100 27-02-2020 11:00:00 5.00833 C 5.67 g/m*3 3.77 C 5.89167 km/h
Sensor: Nr:Datum:Temp:Abs-Feuchte:Windchill:Wind:
Aussen-T/F 2101 27-02-2020 12:00:00 4.475 C 5.82 g/m*3 3.07 C 6.15 km/h
2102 27-02-2020 13:00:00 3.725 C 5.7 g/m*3 3.73 C 4.41667 km/h
2103 27-02-2020 14:00:00 3.23333 C 5.63 g/m*3 1.36 C 6.975 km/h
2104 27-02-2020 15:00:00 2.98333 C 5.58 g/m*3 1.07 C 6.98333 km/h
2105 27-02-2020 16:00:00 2.15833 C 5.28 g/m*3 2.16 C 0.66667 km/h
2106 27-02-2020 17:00:00 1.18333 C 4.96 g/m*3 1.18 C 0.53333 km/h
2107 27-02-2020 18:00:00 1.175 C 5.01 g/m*3 1.18 C 0.4 km/h
2108 27-02-2020 19:00:00 1.58333 C 5.18 g/m*3 -0.55 C 6.975 km/h
2109 27-02-2020 20:00:00 1.725 C 5.18 g/m*3 -0.3 C 6.71667 km/h
2110 27-02-2020 21:00:00 1.69167 C 5.17 g/m*3 0.07 C 5.625 km/h
2111 27-02-2020 22:00:00 1.725 C 5.21 g/m*3 1.73 C 3.73333 km/h
2112 27-02-2020 23:00:00 2.30833 C 5.4 g/m*3 -0.48 C 9.675 km/h
2113 28-02-2020 00:00:00 2.75 C 5.42 g/m*3 0.52 C 7.90833 km/h
2114 28-02-2020 01:00:00 2.425 C 5.35 g/m*3 2.42 C 3.6 km/h
2115 28-02-2020 02:00:00 2.16667 C 5.29 g/m*3 2.17 C 4.13333 km/h
2116 28-02-2020 03:00:00 1.9 C 5.19 g/m*3 1.9 C 4.80833 km/h
2117 28-02-2020 04:00:00 1.81667 C 5.16 g/m*3 1.82 C 4.675 km/h
2118 28-02-2020 05:00:00 1.73333 C 5.13 g/m*3 -0.19 C 6.43333 km/h
2119 28-02-2020 06:00:00 1.41667 C 5 g/m*3 -0.97 C 7.65 km/h
2120 28-02-2020 07:00:00 1.15833 C 4.88 g/m*3 -0.95 C 6.70833 km/h
2121 28-02-2020 08:00:00 1.15 C 4.92 g/m*3 -0.38 C 5.20833 km/h
2122 28-02-2020 09:00:00 1.975 C 5.17 g/m*3 -0.39 C 7.91667 km/h
2123 28-02-2020 10:00:00 3.00833 C 5.35 g/m*3 0.1 C 10.76667 km/h
2124 28-02-2020 11:00:00 3.78333 C 5.43 g/m*3 0.56 C 13.16667 km/h
2125 28-02-2020 12:00:00 4.6 C 5.62 g/m*3 1.4 C 14.1 km/h
Sensor: Nr:Datum:Temp:Abs-Feuchte:Windchill:Wind:
Aussen-T/F 2126 28-02-2020 13:00:00 6.05833 C 5.81 g/m*3 3.62 C 11.56667 km/h
2127 28-02-2020 14:00:00 7.36667 C 5.84 g/m*3 5.3 C 11.01667 km/h
2128 28-02-2020 15:00:00 7.45 C 5.76 g/m*3 5.97 C 8.19167 km/h
2129 28-02-2020 16:00:00 7.225 C 5.92 g/m*3 7.23 C 3.75 km/h
2130 28-02-2020 17:00:00 6.425 C 6.08 g/m*3 6.43 C 1.46667 km/h
2131 28-02-2020 18:00:00 5.375 C 5.76 g/m*3 5.38 C 3.34167 km/h
2132 28-02-2020 19:00:00 5.64167 C 5.62 g/m*3 5.64 C 4.425 km/h
2133 28-02-2020 20:00:00 5.5 C 5.72 g/m*3 4.08 C 6.71667 km/h
2134 28-02-2020 21:00:00 5.025 C 5.9 g/m*3 4.08 C 5.09167 km/h
2135 28-02-2020 22:00:00 4.975 C 5.96 g/m*3 4.97 C 3.46667 km/h
2136 28-02-2020 23:00:00 4.41667 C 6.06 g/m*3 4.42 C 2.4 km/h
2137 29-02-2020 00:00:00 5.13333 C 6.42 g/m*3 5.13 C 4.95833 km/h
2138 29-02-2020 01:00:00 5.69167 C 6.66 g/m*3 5.69 C 1.6 km/h
2139 29-02-2020 02:00:00 6.10833 C 6.94 g/m*3 6.11 C 3.74167 km/h
2140 29-02-2020 03:00:00 8.4 C 7.83 g/m*3 6.54 C 11.03333 km/h
2141 29-02-2020 04:00:00 9.725 C 8.1 g/m*3 7.41 C 16.36667 km/h
2142 29-02-2020 05:00:00 9.60833 C 7.9 g/m*3 8.32 C 9.14167 km/h
2143 29-02-2020 06:00:00 9.30833 C 7.73 g/m*3 8.24 C 7.78333 km/h
2144 29-02-2020 07:00:00 8.775 C 7.55 g/m*3 8.78 C 4.54167 km/h
2145 29-02-2020 08:00:00 8.23333 C 7.5 g/m*3 8.23 C 2.13333 km/h
2146 29-02-2020 09:00:00 8.975 C 7.69 g/m*3 8.98 C 3.61667 km/h
2147 29-02-2020 10:00:00 10.13333 C 7.37 g/m*3 10.13 C 4.00833 km/h
2148 29-02-2020 11:00:00 11.54167 C 7.5 g/m*3 11.54 C 6.84167 km/h
2149 29-02-2020 12:00:00 13.95833 C 7.71 g/m*3 13.96 C 9.55 km/h
2150 29-02-2020 13:00:00 14.65833 C 8.01 g/m*3 14.66 C 9.55 km/h
Sensor: Nr:Datum:Temp:Abs-Feuchte:Windchill:Wind:
Aussen-T/F 2151 29-02-2020 14:00:00 14.68333 C 8.51 g/m*3 14.68 C 17.56667 km/h
2152 29-02-2020 15:00:00 11.33333 C 9.11 g/m*3 11.33 C 12.35833 km/h
2153 29-02-2020 16:00:00 11.325 C 8.7 g/m*3 11.33 C 21.7 km/h
2154 29-02-2020 17:00:00 9.30833 C 7.34 g/m*3 7.11 C 14.63333 km/h
2155 29-02-2020 18:00:00 8.50833 C 7.03 g/m*3 6.18 C 14.24167 km/h
2156 29-02-2020 19:00:00 6.65 C 6.3 g/m*3 4.11 C 12.89167 km/h
2157 29-02-2020 20:00:00 6.6 C 6 g/m*3 4.22 C 11.83333 km/h
2158 29-02-2020 21:00:00 5.69167 C 5.67 g/m*3 4.3 C 6.70833 km/h
2159 29-02-2020 22:00:00 4.54167 C 5.66 g/m*3 4.54 C 4 km/h
2160 29-02-2020 23:00:00 5.20833 C 5.97 g/m*3 4 C 5.89167 km/h
2161 01-03-2020 00:00:00 6.86667 C 6.18 g/m*3 3.88 C 16.23333 km/h
2162 01-03-2020 01:00:00 6.38333 C 6.1 g/m*3 3.76 C 13.025 km/h
2163 01-03-2020 02:00:00 6.35833 C 6.16 g/m*3 3.77 C 12.76667 km/h
2164 01-03-2020 03:00:00 7.10833 C 6.35 g/m*3 4.94 C 11.26667 km/h
2165 01-03-2020 04:00:00 7.30833 C 6.18 g/m*3 4.86 C 13.16667 km/h
2166 01-03-2020 05:00:00 7.45833 C 6.14 g/m*3 4.99 C 13.55833 km/h
2167 01-03-2020 06:00:00 7.425 C 6.21 g/m*3 5.32 C 11.28333 km/h
2168 01-03-2020 07:00:00 6.71667 C 6.55 g/m*3 6.72 C 4.95833 km/h
2169 01-03-2020 08:00:00 5.74167 C 6.49 g/m*3 2.93 C 13.275 km/h
2170 01-03-2020 09:00:00 5.05 C 6.32 g/m*3 2.09 C 13.29167 km/h
2171 01-03-2020 10:00:00 6.3 C 6.75 g/m*3 3.99 C 11.15 km/h
2172 01-03-2020 11:00:00 8.44167 C 6.78 g/m*3 5.51 C 19.04167 km/h
2173 01-03-2020 12:00:00 9.01667 C 6.53 g/m*3 6.65 C 15.425 km/h
2174 01-03-2020 13:00:00 10.00833 C 6.5 g/m*3 7.99 C 14.5 km/h
2175 01-03-2020 14:00:00 10.19167 C 6.5 g/m*3 8.42 C 12.9 km/h
Sensor: Nr:Datum:Temp:Abs-Feuchte:Windchill:Wind:
Aussen-T/F 2176 01-03-2020 15:00:00 10.65833 C 6.54 g/m*3 9.74 C 8.2 km/h
2177 01-03-2020 16:00:00 10.8 C 6.78 g/m*3 10.8 C 1.46667 km/h
2178 01-03-2020 17:00:00 9.25833 C 7.59 g/m*3 9.26 C 4.68333 km/h
2179 01-03-2020 18:00:00 7.64167 C 7.45 g/m*3 7.64 C 2.66667 km/h
2180 01-03-2020 19:00:00 7.25 C 7.41 g/m*3 7.25 C 0.66667 km/h
2181 01-03-2020 20:00:00 6.84167 C 7.29 g/m*3 6.84 C 2.26667 km/h
2182 01-03-2020 21:00:00 6.28333 C 7.04 g/m*3 6.28 C 0 km/h
2183 01-03-2020 22:00:00 6.725 C 7.31 g/m*3 6.73 C 0 km/h
2184 01-03-2020 23:00:00 5.44167 C 6.55 g/m*3 2.39 C 14.35833 km/h
2185 02-03-2020 00:00:00 4.08333 C 6 g/m*3 0.91 C 13.3 km/h
2186 02-03-2020 01:00:00 4.30833 C 6.04 g/m*3 1.21 C 13.15833 km/h
2187 02-03-2020 02:00:00 4.25 C 6.01 g/m*3 1.49 C 11.3 km/h
2188 02-03-2020 03:00:00 3.89167 C 5.86 g/m*3 2.18 C 6.825 km/h
2189 02-03-2020 04:00:00 3.225 C 5.67 g/m*3 3.23 C 4.40833 km/h
2190 02-03-2020 05:00:00 2.49167 C 5.41 g/m*3 2.49 C 4.13333 km/h
2191 02-03-2020 06:00:00 2.23333 C 5.37 g/m*3 2.23 C 3.2 km/h
2192 02-03-2020 07:00:00 2.675 C 5.58 g/m*3 2.68 C 0.8 km/h
2193 02-03-2020 08:00:00 3.525 C 5.93 g/m*3 3.53 C 0.4 km/h
2194 02-03-2020 09:00:00 4.825 C 6.43 g/m*3 3.85 C 5.1 km/h
2195 02-03-2020 10:00:00 6.95 C 6.75 g/m*3 5.48 C 7.78333 km/h
2196 02-03-2020 11:00:00 9.475 C 7.06 g/m*3 8.27 C 8.59167 km/h
2197 02-03-2020 12:00:00 10.8 C 6.86 g/m*3 9.74 C 9.11667 km/h
2198 02-03-2020 13:00:00 11.58333 C 7 g/m*3 11.58 C 8.06667 km/h
2199 02-03-2020 14:00:00 11.09167 C 6.86 g/m*3 11.09 C 8.86667 km/h
2200 02-03-2020 15:00:00 10.41667 C 6.95 g/m*3 10.42 C 3.74167 km/h
Sensor: Nr:Datum:Temp:Abs-Feuchte:Windchill:Wind:
Aussen-T/F 2201 02-03-2020 16:00:00 9.01667 C 7.7 g/m*3 9.02 C 0.8 km/h
2202 02-03-2020 17:00:00 7.63333 C 7.42 g/m*3 7.63 C 0 km/h
2203 02-03-2020 18:00:00 6.99167 C 7.25 g/m*3 6.99 C 0 km/h
2204 02-03-2020 19:00:00 6.53333 C 7.11 g/m*3 6.53 C 0 km/h
2205 02-03-2020 20:00:00 6.35833 C 7.06 g/m*3 6.36 C 0 km/h
2206 02-03-2020 21:00:00 6.225 C 7.02 g/m*3 6.23 C 0 km/h
2207 02-03-2020 22:00:00 6.15833 C 7.04 g/m*3 6.16 C 0.26667 km/h
2208 02-03-2020 23:00:00 5.95 C 6.94 g/m*3 5.95 C 1.86667 km/h
2209 03-03-2020 00:00:00 5.79167 C 6.87 g/m*3 5.79 C 4.14167 km/h
2210 03-03-2020 01:00:00 5.60833 C 6.7 g/m*3 3.15 C 11.14167 km/h
2211 03-03-2020 02:00:00 5.2 C 6.31 g/m*3 3.53 C 7.39167 km/h
2212 03-03-2020 03:00:00 4.43333 C 5.91 g/m*3 3.3 C 5.35 km/h
2213 03-03-2020 04:00:00 3.65 C 5.71 g/m*3 2.07 C 6.28333 km/h
2214 03-03-2020 05:00:00 3.41667 C 5.66 g/m*3 1.58 C 6.98333 km/h
2215 03-03-2020 06:00:00 3.28333 C 5.65 g/m*3 1.55 C 6.56667 km/h
2216 03-03-2020 07:00:00 3.275 C 5.63 g/m*3 1.25 C 7.51667 km/h
2217 03-03-2020 08:00:00 3.50833 C 5.69 g/m*3 0.74 C 10.6 km/h
2218 03-03-2020 09:00:00 4.025 C 5.73 g/m*3 1.19 C 11.41667 km/h
2219 03-03-2020 10:00:00 5.24167 C 5.81 g/m*3 2 C 15.3 km/h
2220 03-03-2020 11:00:00 5.45 C 5.82 g/m*3 3.15 C 10.225 km/h
2221 03-03-2020 12:00:00 6.23333 C 6.01 g/m*3 4.23 C 9.55 km/h
2222 03-03-2020 13:00:00 7.33333 C 6.02 g/m*3 5.16 C 11.55833 km/h
2223 03-03-2020 14:00:00 6.50833 C 6.28 g/m*3 5.06 C 7.38333 km/h
2224 03-03-2020 15:00:00 6.11667 C 6.28 g/m*3 4.43 C 8.06667 km/h
2225 03-03-2020 16:00:00 7.39167 C 6.28 g/m*3 6.13 C 7.24167 km/h
Sensor: Nr:Datum:Temp:Abs-Feuchte:Windchill:Wind:
Aussen-T/F 2226 03-03-2020 17:00:00 7.00833 C 6.22 g/m*3 7.01 C 4.28333 km/h
2227 03-03-2020 18:00:00 5.16667 C 5.86 g/m*3 3.82 C 6.28333 km/h
2228 03-03-2020 19:00:00 3.73333 C 5.63 g/m*3 2.35 C 5.75833 km/h
2229 03-03-2020 20:00:00 2.88333 C 5.41 g/m*3 2.88 C 1.6 km/h
2230 03-03-2020 21:00:00 2.34167 C 5.32 g/m*3 2.34 C 0 km/h
2231 03-03-2020 22:00:00 2.34167 C 5.35 g/m*3 2.34 C 0 km/h
2232 03-03-2020 23:00:00 2.675 C 5.52 g/m*3 2.68 C 3.86667 km/h
2233 04-03-2020 00:00:00 3.175 C 5.64 g/m*3 3.18 C 3.46667 km/h
2234 04-03-2020 01:00:00 2.93333 C 5.49 g/m*3 0.85 C 7.525 km/h
2235 04-03-2020 02:00:00 3.29167 C 5.57 g/m*3 0.63 C 9.95833 km/h
2236 04-03-2020 03:00:00 3.825 C 5.67 g/m*3 3.83 C 4.15833 km/h
2237 04-03-2020 04:00:00 3.95833 C 5.73 g/m*3 1.55 C 9.41667 km/h
2238 04-03-2020 05:00:00 4.10833 C 5.87 g/m*3 1.73 C 9.40833 km/h
2239 04-03-2020 06:00:00 4.13333 C 5.95 g/m*3 1.57 C 10.225 km/h
2240 04-03-2020 07:00:00 4.425 C 5.99 g/m*3 2.01 C 9.81667 km/h
2241 04-03-2020 08:00:00 4.39167 C 5.94 g/m*3 2.37 C 8.19167 km/h
2242 04-03-2020 09:00:00 5.00833 C 6.07 g/m*3 2.08 C 13.01667 km/h
2243 04-03-2020 10:00:00 6.30833 C 6.25 g/m*3 3.24 C 15.83333 km/h
2244 04-03-2020 11:00:00 7.475 C 6.42 g/m*3 4.85 C 14.63333 km/h
2245 04-03-2020 12:00:00 8.89167 C 6.58 g/m*3 6.68 C 13.96667 km/h
2246 04-03-2020 13:00:00 9.10833 C 6.46 g/m*3 6.71 C 15.83333 km/h
2247 04-03-2020 14:00:00 9.59167 C 6.45 g/m*3 7.03 C 18.36667 km/h
2248 04-03-2020 15:00:00 9.13333 C 6.51 g/m*3 6.58 C 17.16667 km/h
2249 04-03-2020 16:00:00 9.03333 C 6.41 g/m*3 6.74 C 14.9 km/h
2250 04-03-2020 17:00:00 8.7 C 6.29 g/m*3 7.62 C 7.38333 km/h
Sensor: Nr:Datum:Temp:Abs-Feuchte:Windchill:Wind:
Aussen-T/F 2251 04-03-2020 18:00:00 5.73333 C 5.96 g/m*3 5.73 C 4.8 km/h
2252 04-03-2020 19:00:00 4.24167 C 5.77 g/m*3 4.24 C 4.8 km/h
2253 04-03-2020 20:00:00 3.95 C 5.76 g/m*3 3.95 C 2.8 km/h
2254 04-03-2020 21:00:00 3.35 C 5.62 g/m*3 3.35 C 3.73333 km/h
2255 04-03-2020 22:00:00 3.31667 C 5.65 g/m*3 3.32 C 0.4 km/h
2256 04-03-2020 23:00:00 3.81667 C 5.9 g/m*3 3.82 C 0.4 km/h
2257 05-03-2020 00:00:00 4.4 C 6.17 g/m*3 4.4 C 0.66667 km/h
2258 05-03-2020 01:00:00 4.29167 C 6.14 g/m*3 4.29 C 0.8 km/h
2259 05-03-2020 02:00:00 4.51667 C 6.19 g/m*3 4.52 C 3.475 km/h
2260 05-03-2020 03:00:00 4.85833 C 6.16 g/m*3 4.86 C 2.93333 km/h
2261 05-03-2020 04:00:00 4.94167 C 6.18 g/m*3 4.94 C 4.55 km/h
2262 05-03-2020 05:00:00 4.925 C 6.18 g/m*3 4.93 C 3.2 km/h
2263 05-03-2020 06:00:00 5.01667 C 6.2 g/m*3 5.02 C 4.55 km/h
2264 05-03-2020 07:00:00 5.275 C 6.29 g/m*3 5.28 C 4.95 km/h
2265 05-03-2020 08:00:00 5.64167 C 6.43 g/m*3 3.88 C 8.05 km/h
2266 05-03-2020 09:00:00 6.175 C 6.58 g/m*3 5.02 C 6.15833 km/h
2267 05-03-2020 10:00:00 6.55 C 6.67 g/m*3 5.37 C 6.45 km/h
2268 05-03-2020 11:00:00 6.89167 C 6.87 g/m*3 5.81 C 6.29167 km/h
2269 05-03-2020 12:00:00 7.325 C 7.01 g/m*3 7.33 C 4.81667 km/h
2270 05-03-2020 13:00:00 7.25 C 7.24 g/m*3 7.25 C 4.94167 km/h
2271 05-03-2020 14:00:00 7.025 C 7.26 g/m*3 7.03 C 2.53333 km/h
2272 05-03-2020 15:00:00 6.96667 C 7.31 g/m*3 6.97 C 1.46667 km/h
2273 05-03-2020 16:00:00 7.11667 C 7.41 g/m*3 5.8 C 7.25833 km/h
2274 05-03-2020 17:00:00 6.78333 C 7.26 g/m*3 6.78 C 4.01667 km/h
2275 05-03-2020 18:00:00 6.60833 C 7.19 g/m*3 6.61 C 0.93333 km/h
Sensor: Nr:Datum:Temp:Abs-Feuchte:Windchill:Wind:
Aussen-T/F 2276 05-03-2020 19:00:00 6.35833 C 7.13 g/m*3 6.36 C 0.93333 km/h
2277 05-03-2020 20:00:00 6.65833 C 7.27 g/m*3 6.66 C 2.13333 km/h
2278 05-03-2020 21:00:00 6.8 C 7.34 g/m*3 6.8 C 0.93333 km/h
2279 05-03-2020 22:00:00 6.8 C 7.4 g/m*3 6.8 C 0 km/h
2280 05-03-2020 23:00:00 6.8 C 7.42 g/m*3 6.8 C 0 km/h
2281 06-03-2020 00:00:00 6.83333 C 7.43 g/m*3 6.83 C 0 km/h
2282 06-03-2020 01:00:00 7.25 C 7.64 g/m*3 6.03 C 6.975 km/h
2283 06-03-2020 02:00:00 7.04167 C 7.34 g/m*3 5.3 C 9 km/h
2284 06-03-2020 03:00:00 6.7 C 7.07 g/m*3 5.71 C 5.89167 km/h
2285 06-03-2020 04:00:00 6.40833 C 7.01 g/m*3 6.41 C 2.26667 km/h
2286 06-03-2020 05:00:00 6.33333 C 7.05 g/m*3 4.93 C 7.11667 km/h
2287 06-03-2020 06:00:00 6.54167 C 7.2 g/m*3 4.77 C 8.725 km/h
2288 06-03-2020 07:00:00 6.7 C 7.29 g/m*3 5.89 C 5.35833 km/h
2289 06-03-2020 08:00:00 6 C 6.78 g/m*3 4.04 C 9.125 km/h
2290 06-03-2020 09:00:00 5.725 C 6.65 g/m*3 3.9 C 8.325 km/h
2291 06-03-2020 10:00:00 5.68333 C 6.46 g/m*3 3.4 C 10.36667 km/h
2292 06-03-2020 11:00:00 5.825 C 6.47 g/m*3 3.69 C 9.8 km/h
2293 06-03-2020 12:00:00 5.575 C 6.39 g/m*3 3.14 C 11.025 km/h
2294 06-03-2020 13:00:00 5.68333 C 6.44 g/m*3 3.24 C 11.15 km/h
2295 06-03-2020 14:00:00 5.775 C 6.46 g/m*3 3.74 C 9.28333 km/h
2296 06-03-2020 15:00:00 6.1 C 6.48 g/m*3 4.38 C 8.19167 km/h
2297 06-03-2020 16:00:00 6.675 C 6.52 g/m*3 5.15 C 7.78333 km/h
2298 06-03-2020 17:00:00 7.1 C 6.66 g/m*3 5.32 C 9.275 km/h
2299 06-03-2020 18:00:00 7.03333 C 6.52 g/m*3 5.89 C 6.58333 km/h
2300 06-03-2020 19:00:00 6.76667 C 6.42 g/m*3 5.13 C 8.33333 km/h
Sensor: Nr:Datum:Temp:Abs-Feuchte:Windchill:Wind:
Aussen-T/F 2301 06-03-2020 20:00:00 6.34167 C 6.24 g/m*3 4.44 C 9.15 km/h
2302 06-03-2020 21:00:00 5.675 C 6.09 g/m*3 3.34 C 10.625 km/h
2303 06-03-2020 22:00:00 5.525 C 6.07 g/m*3 3.74 C 8.05 km/h
2304 06-03-2020 23:00:00 5.88333 C 6.09 g/m*3 3.81 C 9.53333 km/h
2305 07-03-2020 00:00:00 5.81667 C 6.01 g/m*3 4.33 C 7.10833 km/h
2306 07-03-2020 01:00:00 5.81667 C 6.08 g/m*3 4.33 C 7.1 km/h
2307 07-03-2020 02:00:00 5.88333 C 6.18 g/m*3 3.96 C 8.86667 km/h
2308 07-03-2020 03:00:00 5.58333 C 6.11 g/m*3 4.34 C 6.175 km/h
2309 07-03-2020 04:00:00 5.41667 C 6.02 g/m*3 3.9 C 6.98333 km/h
2310 07-03-2020 05:00:00 5.39167 C 5.96 g/m*3 4.4 C 5.35 km/h
2311 07-03-2020 06:00:00 5.3 C 6 g/m*3 3.73 C 7.11667 km/h
2312 07-03-2020 07:00:00 5.21667 C 5.96 g/m*3 5.22 C 2.54167 km/h
2313 07-03-2020 08:00:00 4.89167 C 6.1 g/m*3 4.89 C 2.26667 km/h
2314 07-03-2020 09:00:00 5.61667 C 6.15 g/m*3 5.62 C 4.53333 km/h
2315 07-03-2020 10:00:00 6.59167 C 6.23 g/m*3 5.5 C 6.16667 km/h
2316 07-03-2020 11:00:00 7.5 C 6.1 g/m*3 5.82 C 9.15 km/h
2317 07-03-2020 12:00:00 7.84167 C 5.89 g/m*3 7.1 C 5.63333 km/h
2318 07-03-2020 13:00:00 8.58333 C 5.85 g/m*3 7.13 C 9.00833 km/h
2319 07-03-2020 14:00:00 9.65833 C 5.56 g/m*3 8.05 C 11.00833 km/h
2320 07-03-2020 15:00:00 9.9 C 5.31 g/m*3 8.74 C 8.725 km/h
2321 07-03-2020 16:00:00 9.38333 C 5.28 g/m*3 8.11 C 8.85833 km/h
2322 07-03-2020 17:00:00 9 C 5.65 g/m*3 8.43 C 5.61667 km/h
2323 07-03-2020 18:00:00 6.98333 C 5.82 g/m*3 6.04 C 5.86667 km/h
2324 07-03-2020 19:00:00 5.025 C 5.65 g/m*3 5.03 C 4.26667 km/h
2325 07-03-2020 20:00:00 5.00833 C 5.81 g/m*3 5.01 C 0.4 km/h
Sensor: Nr:Datum:Temp:Abs-Feuchte:Windchill:Wind:
Aussen-T/F 2326 07-03-2020 21:00:00 5.15833 C 5.94 g/m*3 5.16 C 0.13333 km/h
2327 07-03-2020 22:00:00 5.70833 C 5.96 g/m*3 5.71 C 1.2 km/h
2328 07-03-2020 23:00:00 6.5 C 5.92 g/m*3 6.5 C 4.81667 km/h
2329 08-03-2020 00:00:00 6.99167 C 6.12 g/m*3 5.85 C 6.56667 km/h
2330 08-03-2020 01:00:00 7.325 C 6.29 g/m*3 6.05 C 7.23333 km/h
2331 08-03-2020 02:00:00 7.40833 C 6.38 g/m*3 6.01 C 7.8 km/h
2332 08-03-2020 03:00:00 7.35833 C 6.36 g/m*3 6.27 C 6.56667 km/h
2333 08-03-2020 04:00:00 7.39167 C 6.34 g/m*3 5.23 C 11.55833 km/h
2334 08-03-2020 05:00:00 7.30833 C 6.3 g/m*3 5.99 C 7.39167 km/h
2335 08-03-2020 06:00:00 7.15833 C 6.35 g/m*3 7.16 C 3.20833 km/h
2336 08-03-2020 07:00:00 8.03333 C 6.6 g/m*3 8.03 C 4.41667 km/h
2337 08-03-2020 08:00:00 8.63333 C 6.79 g/m*3 8.63 C 4.81667 km/h
2338 08-03-2020 09:00:00 9 C 6.91 g/m*3 9 C 3.875 km/h
2339 08-03-2020 10:00:00 10.21667 C 7.18 g/m*3 8.64 C 11.56667 km/h
2340 08-03-2020 11:00:00 11.50833 C 7.27 g/m*3 11.51 C 11.83333 km/h
2341 08-03-2020 12:00:00 12.35833 C 7.19 g/m*3 12.36 C 14.76667 km/h
2342 08-03-2020 13:00:00 12.30833 C 7.14 g/m*3 12.31 C 17.44167 km/h
2343 08-03-2020 14:00:00 12.31667 C 7.19 g/m*3 12.32 C 14.23333 km/h
2344 08-03-2020 15:00:00 12.225 C 7.14 g/m*3 12.23 C 10.08333 km/h
2345 08-03-2020 16:00:00 12.15833 C 7.27 g/m*3 12.16 C 6.425 km/h
2346 08-03-2020 17:00:00 12.16667 C 7.48 g/m*3 12.17 C 7.10833 km/h
2347 08-03-2020 18:00:00 11.13333 C 7.73 g/m*3 11.13 C 11.03333 km/h
2348 08-03-2020 19:00:00 10.13333 C 7.89 g/m*3 9.3 C 7.375 km/h
2349 08-03-2020 20:00:00 9.76667 C 7.92 g/m*3 8.86 C 7.39167 km/h
2350 08-03-2020 21:00:00 9.74167 C 7.93 g/m*3 8.99 C 6.70833 km/h
Sensor: Nr:Datum:Temp:Abs-Feuchte:Windchill:Wind:
Aussen-T/F 2351 08-03-2020 22:00:00 9.71667 C 7.89 g/m*3 8.5 C 8.875 km/h
2352 08-03-2020 23:00:00 9 C 7.71 g/m*3 7.09 C 12.09167 km/h
2353 09-03-2020 00:00:00 7.9 C 7.42 g/m*3 7.26 C 5.35 km/h
2354 09-03-2020 01:00:00 7.40833 C 7.38 g/m*3 6.29 C 6.7 km/h
2355 09-03-2020 02:00:00 7.24167 C 7.32 g/m*3 7.24 C 2.13333 km/h
2356 09-03-2020 03:00:00 7.09167 C 7.26 g/m*3 7.09 C 3.06667 km/h
2357 09-03-2020 04:00:00 6.7 C 7.1 g/m*3 6.7 C 2.8 km/h
2358 09-03-2020 05:00:00 6.53333 C 7.03 g/m*3 6.53 C 4.14167 km/h
2359 09-03-2020 06:00:00 5.725 C 6.64 g/m*3 4.51 C 6.14167 km/h
2360 09-03-2020 07:00:00 5.85833 C 6.65 g/m*3 5.86 C 3.61667 km/h
2361 09-03-2020 08:00:00 6.09167 C 6.76 g/m*3 6.09 C 3.34167 km/h
2362 09-03-2020 09:00:00 7.775 C 7.1 g/m*3 5.93 C 10.225 km/h
2363 09-03-2020 10:00:00 8.56667 C 7.14 g/m*3 6.36 C 13.43333 km/h
2364 09-03-2020 11:00:00 8.86667 C 7.06 g/m*3 7.24 C 10.21667 km/h
2365 09-03-2020 12:00:00 10.05 C 6.33 g/m*3 8.29 C 12.625 km/h
2366 09-03-2020 13:00:00 9.85 C 6.67 g/m*3 8.14 C 11.94167 km/h
2367 09-03-2020 14:00:00 10.8 C 6.63 g/m*3 9.76 C 9.00833 km/h
2368 09-03-2020 15:00:00 11.24167 C 5.84 g/m*3 11.24 C 14.36667 km/h
2369 09-03-2020 16:00:00 10.85833 C 6.08 g/m*3 9.25 C 12.75833 km/h
2370 09-03-2020 17:00:00 10.80833 C 6.09 g/m*3 9.89 C 8.325 km/h
2371 09-03-2020 18:00:00 9.59167 C 6.35 g/m*3 9 C 6.025 km/h
2372 09-03-2020 19:00:00 7.81667 C 6.36 g/m*3 6.55 C 7.525 km/h
2373 09-03-2020 20:00:00 7.05833 C 6.33 g/m*3 5.54 C 8.04167 km/h
2374 09-03-2020 21:00:00 6.4 C 6.21 g/m*3 6.4 C 4.96667 km/h
2375 09-03-2020 22:00:00 5.95 C 6.2 g/m*3 5.95 C 4.55 km/h
Sensor: Nr:Datum:Temp:Abs-Feuchte:Windchill:Wind:
Aussen-T/F 2376 09-03-2020 23:00:00 5.7 C 6.19 g/m*3 5.7 C 1.2 km/h
2377 10-03-2020 00:00:00 5.55833 C 6.27 g/m*3 5.56 C 2 km/h
2378 10-03-2020 01:00:00 6.58333 C 6.49 g/m*3 6.58 C 4.95 km/h
2379 10-03-2020 02:00:00 7.325 C 6.54 g/m*3 7.33 C 4.40833 km/h
2380 10-03-2020 03:00:00 7.3 C 6.76 g/m*3 4.51 C 15.55833 km/h
2381 10-03-2020 04:00:00 6.73333 C 6.75 g/m*3 4.61 C 10.61667 km/h
2382 10-03-2020 05:00:00 6.26667 C 6.66 g/m*3 3.08 C 16.65 km/h
2383 10-03-2020 06:00:00 5.825 C 6.57 g/m*3 2.95 C 13.81667 km/h
2384 10-03-2020 07:00:00 6.15833 C 6.75 g/m*3 2.89 C 17.03333 km/h
2385 10-03-2020 08:00:00 6.825 C 7.03 g/m*3 3.42 C 19.575 km/h
2386 10-03-2020 09:00:00 7.325 C 7.32 g/m*3 4.2 C 18.23333 km/h
2387 10-03-2020 10:00:00 7.91667 C 7.67 g/m*3 4.91 C 18.5 km/h
2388 10-03-2020 11:00:00 8.80833 C 8.14 g/m*3 6.24 C 16.63333 km/h
2389 10-03-2020 12:00:00 9.525 C 8.55 g/m*3 6.97 C 18.1 km/h
2390 10-03-2020 13:00:00 9.99167 C 8.8 g/m*3 7.57 C 17.96667 km/h
2391 10-03-2020 14:00:00 10.68333 C 9.2 g/m*3 8.68 C 15.7 km/h
2392 10-03-2020 15:00:00 11.78333 C 9.62 g/m*3 11.78 C 22.66667 km/h
2393 10-03-2020 16:00:00 12.64167 C 9.93 g/m*3 12.64 C 19.96667 km/h
2394 10-03-2020 17:00:00 12.78333 C 10.07 g/m*3 12.78 C 16.1 km/h
2395 10-03-2020 18:00:00 12.7 C 10.1 g/m*3 12.7 C 17.83333 km/h
2396 10-03-2020 19:00:00 12.70833 C 10.14 g/m*3 12.71 C 18.76667 km/h
2397 10-03-2020 20:00:00 12.95 C 10.25 g/m*3 12.95 C 19.575 km/h
2398 10-03-2020 21:00:00 13.33333 C 10.42 g/m*3 13.33 C 18.5 km/h
2399 10-03-2020 22:00:00 13.275 C 10.55 g/m*3 13.28 C 18.1 km/h
2400 10-03-2020 23:00:00 13.25833 C 10.52 g/m*3 13.26 C 15.7 km/h
Sensor: Nr:Datum:Temp:Abs-Feuchte:Windchill:Wind:
Aussen-T/F 2401 11-03-2020 00:00:00 13.65833 C 10.33 g/m*3 13.66 C 16.1 km/h
2402 11-03-2020 01:00:00 13.65833 C 10.48 g/m*3 13.66 C 18.9 km/h
2403 11-03-2020 02:00:00 13.45 C 10.55 g/m*3 13.45 C 14.5 km/h
2404 11-03-2020 03:00:00 13.65833 C 10.57 g/m*3 13.66 C 19.43333 km/h
2405 11-03-2020 04:00:00 13.65 C 10.49 g/m*3 13.65 C 19.7 km/h
2406 11-03-2020 05:00:00 13.53333 C 10.43 g/m*3 13.53 C 17.7 km/h
2407 11-03-2020 06:00:00 13.43333 C 10.3 g/m*3 13.43 C 16.76667 km/h
2408 11-03-2020 07:00:00 13.40833 C 10.14 g/m*3 13.41 C 17.16667 km/h
2409 11-03-2020 08:00:00 13.1 C 9.98 g/m*3 13.1 C 18.36667 km/h
2410 11-03-2020 09:00:00 13.43333 C 10.24 g/m*3 13.43 C 18.65 km/h
2411 11-03-2020 10:00:00 13.98333 C 10.44 g/m*3 13.98 C 18.9 km/h
2412 11-03-2020 11:00:00 14.83333 C 10.76 g/m*3 14.83 C 19.96667 km/h
2413 11-03-2020 12:00:00 15.575 C 10.88 g/m*3 15.58 C 20.10833 km/h
2414 11-03-2020 13:00:00 15.85 C 10.96 g/m*3 15.85 C 21.7 km/h
2415 11-03-2020 14:00:00 15.83333 C 10.79 g/m*3 15.83 C 24.125 km/h
2416 11-03-2020 15:00:00 15.3 C 10.7 g/m*3 15.3 C 19.56667 km/h
2417 11-03-2020 16:00:00 14.8 C 10.82 g/m*3 14.8 C 14.23333 km/h
2418 11-03-2020 17:00:00 14.125 C 10.71 g/m*3 14.13 C 11.94167 km/h
2419 11-03-2020 18:00:00 13.66667 C 10.43 g/m*3 13.67 C 11.69167 km/h
2420 11-03-2020 19:00:00 13.61667 C 10.39 g/m*3 13.62 C 10.34167 km/h
2421 11-03-2020 20:00:00 13.71667 C 10.35 g/m*3 13.72 C 13.28333 km/h
2422 11-03-2020 21:00:00 13.79167 C 10.2 g/m*3 13.79 C 19.70833 km/h
2423 11-03-2020 22:00:00 14.14167 C 9.89 g/m*3 14.14 C 23.46667 km/h
2424 11-03-2020 23:00:00 13.95 C 9.62 g/m*3 13.95 C 28.03333 km/h
2425 12-03-2020 00:00:00 13.84167 C 9.53 g/m*3 13.84 C 20.775 km/h
Sensor: Nr:Datum:Temp:Abs-Feuchte:Windchill:Wind:
Aussen-T/F 2426 12-03-2020 01:00:00 14.01667 C 9.53 g/m*3 14.02 C 20.76667 km/h
2427 12-03-2020 02:00:00 13.825 C 9.38 g/m*3 13.83 C 16.76667 km/h
2428 12-03-2020 03:00:00 13.575 C 8.96 g/m*3 13.58 C 17.7 km/h
2429 12-03-2020 04:00:00 13.23333 C 8.71 g/m*3 13.23 C 15.43333 km/h
2430 12-03-2020 05:00:00 12.85833 C 8.75 g/m*3 12.86 C 16.5 km/h
2431 12-03-2020 06:00:00 12.35 C 8.84 g/m*3 12.35 C 14.63333 km/h
2432 12-03-2020 07:00:00 12.15 C 9.1 g/m*3 12.15 C 16.23333 km/h
2433 12-03-2020 08:00:00 11.16667 C 9.09 g/m*3 11.17 C 12.09167 km/h
2434 12-03-2020 09:00:00 10.56667 C 8.55 g/m*3 9.14 C 11.03333 km/h
2435 12-03-2020 10:00:00 11.50833 C 8.09 g/m*3 11.51 C 17.43333 km/h
2436 12-03-2020 11:00:00 11.39167 C 6.55 g/m*3 11.39 C 21.59167 km/h
2437 12-03-2020 12:00:00 12.05833 C 5.47 g/m*3 12.06 C 20.90833 km/h
2438 12-03-2020 13:00:00 12.04167 C 5.55 g/m*3 12.04 C 18.76667 km/h
2439 12-03-2020 14:00:00 12.10833 C 5.89 g/m*3 12.11 C 20.90833 km/h
2440 12-03-2020 15:00:00 11.825 C 6.21 g/m*3 11.83 C 16.9 km/h
2441 12-03-2020 16:00:00 11.675 C 5.94 g/m*3 11.68 C 16.64167 km/h
2442 12-03-2020 17:00:00 11.5 C 5.96 g/m*3 11.5 C 10.75 km/h
2443 12-03-2020 18:00:00 10.48333 C 6.43 g/m*3 10.02 C 6.04167 km/h
2444 12-03-2020 19:00:00 7.78333 C 6.3 g/m*3 7.78 C 4.40833 km/h
2445 12-03-2020 20:00:00 7.275 C 6.26 g/m*3 6.25 C 6.29167 km/h
2446 12-03-2020 21:00:00 7.41667 C 6.34 g/m*3 6.09 C 7.51667 km/h
2447 12-03-2020 22:00:00 7.75833 C 6.48 g/m*3 6.18 C 8.875 km/h
2448 12-03-2020 23:00:00 7.475 C 6.09 g/m*3 5.71 C 9.525 km/h
2449 13-03-2020 00:00:00 6.725 C 5.43 g/m*3 4.24 C 12.63333 km/h
2450 13-03-2020 01:00:00 5.85833 C 5.37 g/m*3 3.23 C 12.36667 km/h
Sensor: Nr:Datum:Temp:Abs-Feuchte:Windchill:Wind:
Aussen-T/F 2451 13-03-2020 02:00:00 5.35833 C 5.4 g/m*3 2.88 C 11.01667 km/h
2452 13-03-2020 03:00:00 5.61667 C 5.43 g/m*3 2.08 C 18.10833 km/h
2453 13-03-2020 04:00:00 5.575 C 5.48 g/m*3 2.73 C 13.3 km/h
2454 13-03-2020 05:00:00 5.74167 C 5.45 g/m*3 2.95 C 13.16667 km/h
2455 13-03-2020 06:00:00 5.875 C 5.54 g/m*3 3.21 C 12.63333 km/h
2456 13-03-2020 07:00:00 5.95833 C 5.67 g/m*3 3.38 C 12.23333 km/h
2457 13-03-2020 08:00:00 6.34167 C 5.89 g/m*3 4.06 C 11.025 km/h
2458 13-03-2020 09:00:00 7.13333 C 6.09 g/m*3 4.85 C 11.96667 km/h
2459 13-03-2020 10:00:00 8.03333 C 6.26 g/m*3 5.45 C 15.3 km/h
2460 13-03-2020 11:00:00 8.51667 C 6.58 g/m*3 5.86 C 16.76667 km/h
2461 13-03-2020 12:00:00 9 C 6.41 g/m*3 6.46 C 16.76667 km/h
2462 13-03-2020 13:00:00 9.325 C 6.63 g/m*3 7.01 C 15.56667 km/h
2463 13-03-2020 14:00:00 9.74167 C 6.58 g/m*3 7.76 C 13.7 km/h
2464 13-03-2020 15:00:00 10.11667 C 6.21 g/m*3 8.46 C 11.96667 km/h
2465 13-03-2020 16:00:00 9.99167 C 6.22 g/m*3 8.18 C 12.9 km/h
2466 13-03-2020 17:00:00 9.54167 C 6.44 g/m*3 8.17 C 9.54167 km/h
2467 13-03-2020 18:00:00 8.93333 C 6.45 g/m*3 7.66 C 8.45 km/h
2468 13-03-2020 19:00:00 7.975 C 6.43 g/m*3 7.98 C 4.4 km/h
2469 13-03-2020 20:00:00 7.225 C 6.41 g/m*3 7.23 C 4.94167 km/h
2470 13-03-2020 21:00:00 6.475 C 6.31 g/m*3 5.54 C 5.61667 km/h
2471 13-03-2020 22:00:00 5.925 C 6.28 g/m*3 5.93 C 3.33333 km/h
2472 13-03-2020 23:00:00 6.03333 C 6.36 g/m*3 6.03 C 1.33333 km/h
2473 14-03-2020 00:00:00 5.28333 C 6.12 g/m*3 5.28 C 2.4 km/h
2474 14-03-2020 01:00:00 3.725 C 5.65 g/m*3 3.73 C 0 km/h
2475 14-03-2020 02:00:00 3.76667 C 5.83 g/m*3 3.77 C 0.8 km/h
Sensor: Nr:Datum:Temp:Abs-Feuchte:Windchill:Wind:
Aussen-T/F 2476 14-03-2020 03:00:00 2.83333 C 5.44 g/m*3 2.83 C 0.13333 km/h
2477 14-03-2020 04:00:00 2.48333 C 5.39 g/m*3 2.48 C 0 km/h
2478 14-03-2020 05:00:00 1.99167 C 5.23 g/m*3 1.99 C 0.13333 km/h
2479 14-03-2020 06:00:00 1.59167 C 5.11 g/m*3 1.59 C 0.13333 km/h
2480 14-03-2020 07:00:00 1.58333 C 5.13 g/m*3 1.58 C 0 km/h
2481 14-03-2020 08:00:00 2.06667 C 5.35 g/m*3 2.07 C 0 km/h
2482 14-03-2020 09:00:00 3.55833 C 5.93 g/m*3 3.56 C 0.66667 km/h
2483 14-03-2020 10:00:00 5.68333 C 6.59 g/m*3 5.68 C 0.53333 km/h
2484 14-03-2020 11:00:00 8.38333 C 6.95 g/m*3 8.38 C 1.86667 km/h
2485 14-03-2020 12:00:00 10.15833 C 6.89 g/m*3 10.16 C 3.74167 km/h
2486 14-03-2020 13:00:00 10.93333 C 6.54 g/m*3 10.68 C 5.48333 km/h
2487 14-03-2020 14:00:00 11.70833 C 6.36 g/m*3 11.71 C 9.01667 km/h
2488 14-03-2020 15:00:00 11.19167 C 6.04 g/m*3 11.19 C 6.03333 km/h
2489 14-03-2020 16:00:00 10.75 C 6.16 g/m*3 10.5 C 5.35833 km/h
2490 14-03-2020 17:00:00 10.38333 C 6.31 g/m*3 10.38 C 2.53333 km/h
2491 14-03-2020 18:00:00 8.53333 C 6.22 g/m*3 8.53 C 1.33333 km/h
2492 14-03-2020 19:00:00 5.95833 C 6.06 g/m*3 5.96 C 4.4 km/h
2493 14-03-2020 20:00:00 5.43333 C 6.07 g/m*3 5.43 C 3.86667 km/h
2494 14-03-2020 21:00:00 5.91667 C 6.2 g/m*3 5.92 C 1.6 km/h
2495 14-03-2020 22:00:00 5.55 C 6.12 g/m*3 5.55 C 3.33333 km/h
2496 14-03-2020 23:00:00 5.925 C 6.28 g/m*3 5.93 C 0.4 km/h
2497 15-03-2020 00:00:00 6.31667 C 6.32 g/m*3 6.32 C 0.53333 km/h
2498 15-03-2020 01:00:00 5.91667 C 6.21 g/m*3 5.92 C 0 km/h
2499 15-03-2020 02:00:00 5.50833 C 6.17 g/m*3 5.51 C 1.33333 km/h
2500 15-03-2020 03:00:00 4.95833 C 5.93 g/m*3 4.96 C 4.26667 km/h
Sensor: Nr:Datum:Temp:Abs-Feuchte:Windchill:Wind:
Aussen-T/F 2501 15-03-2020 04:00:00 4.26667 C 5.76 g/m*3 4.27 C 4.66667 km/h
2502 15-03-2020 05:00:00 4.05 C 5.68 g/m*3 4.05 C 2.8 km/h
2503 15-03-2020 06:00:00 3.88333 C 5.59 g/m*3 3.88 C 3.06667 km/h
2504 15-03-2020 07:00:00 3.79167 C 5.61 g/m*3 3.79 C 3.73333 km/h
2505 15-03-2020 08:00:00 5.08333 C 6.16 g/m*3 5.08 C 0.26667 km/h
2506 15-03-2020 09:00:00 7.25833 C 6.66 g/m*3 7.26 C 0.8 km/h
2507 15-03-2020 10:00:00 10.025 C 6.8 g/m*3 10.03 C 2.13333 km/h
2508 15-03-2020 11:00:00 12.9 C 6.88 g/m*3 12.9 C 9.93333 km/h
2509 15-03-2020 12:00:00 13.9 C 6.7 g/m*3 13.9 C 11.28333 km/h
2510 15-03-2020 13:00:00 14.8 C 6.71 g/m*3 14.8 C 11.425 km/h
2511 15-03-2020 14:00:00 15.19167 C 6.65 g/m*3 15.19 C 10.75 km/h
2512 15-03-2020 15:00:00 15.625 C 6.59 g/m*3 15.63 C 9.275 km/h
2513 15-03-2020 16:00:00 16.29167 C 6.55 g/m*3 16.29 C 7.53333 km/h
2514 15-03-2020 17:00:00 16.06667 C 6.79 g/m*3 16.07 C 5.1 km/h
2515 15-03-2020 18:00:00 12.35 C 6.97 g/m*3 12.35 C 4.66667 km/h
2516 15-03-2020 19:00:00 9.23333 C 6.59 g/m*3 8.48 C 6.4 km/h
2517 15-03-2020 20:00:00 8.125 C 6.49 g/m*3 7.39 C 5.73333 km/h
2518 15-03-2020 21:00:00 7.28333 C 6.35 g/m*3 7.28 C 4.8 km/h
2519 15-03-2020 22:00:00 6.15 C 6.02 g/m*3 6.15 C 0.13333 km/h
2520 15-03-2020 23:00:00 5.25833 C 5.94 g/m*3 5.26 C 0.13333 km/h
2521 16-03-2020 00:00:00 4.5 C 5.73 g/m*3 4.5 C 0 km/h
2522 16-03-2020 01:00:00 3.80833 C 5.6 g/m*3 3.81 C 0 km/h
2523 16-03-2020 02:00:00 3.50833 C 5.56 g/m*3 3.51 C 0 km/h
2524 16-03-2020 03:00:00 3.33333 C 5.48 g/m*3 3.33 C 0 km/h
2525 16-03-2020 04:00:00 2.74167 C 5.37 g/m*3 2.74 C 0 km/h
Sensor: Nr:Datum:Temp:Abs-Feuchte:Windchill:Wind:
Aussen-T/F 2526 16-03-2020 05:00:00 2.425 C 5.28 g/m*3 2.42 C 0 km/h
2527 16-03-2020 06:00:00 1.86667 C 5.12 g/m*3 1.87 C 0 km/h
2528 16-03-2020 07:00:00 2.06667 C 5.25 g/m*3 2.07 C 0 km/h
2529 16-03-2020 08:00:00 2.86667 C 5.59 g/m*3 2.87 C 0 km/h
2530 16-03-2020 09:00:00 4.21667 C 6.12 g/m*3 4.22 C 0 km/h
2531 16-03-2020 10:00:00 7.075 C 7.09 g/m*3 7.08 C 0 km/h
2532 16-03-2020 11:00:00 12.10833 C 8.17 g/m*3 12.11 C 3.33333 km/h
2533 16-03-2020 12:00:00 15.2 C 8.43 g/m*3 15.2 C 5.21667 km/h
2534 16-03-2020 13:00:00 16.525 C 8.53 g/m*3 16.52 C 3.6 km/h
2535 16-03-2020 14:00:00 17.4 C 8.72 g/m*3 17.4 C 5.75 km/h
2536 16-03-2020 15:00:00 17.8 C 8.8 g/m*3 17.8 C 8.06667 km/h
2537 16-03-2020 16:00:00 18.45 C 8.81 g/m*3 18.45 C 8.06667 km/h
2538 16-03-2020 17:00:00 18.5 C 8.79 g/m*3 18.5 C 8.46667 km/h
2539 16-03-2020 18:00:00 15.41667 C 8.83 g/m*3 15.42 C 5.6 km/h
2540 16-03-2020 19:00:00 12.325 C 8.49 g/m*3 12.33 C 6.13333 km/h
2541 16-03-2020 20:00:00 11.16667 C 8.28 g/m*3 11.17 C 3.46667 km/h
2542 16-03-2020 21:00:00 10.23333 C 8.14 g/m*3 10.23 C 2.93333 km/h
2543 16-03-2020 22:00:00 9.95 C 8.09 g/m*3 9.95 C 1.73333 km/h
2544 16-03-2020 23:00:00 9.71667 C 8.14 g/m*3 9.72 C 0.4 km/h
2545 17-03-2020 00:00:00 9.75833 C 8.19 g/m*3 9.76 C 0 km/h
2546 17-03-2020 01:00:00 9.40833 C 8.12 g/m*3 9.41 C 0 km/h
2547 17-03-2020 02:00:00 9.24167 C 8.13 g/m*3 9.24 C 0 km/h
2548 17-03-2020 03:00:00 8.99167 C 8.03 g/m*3 8.99 C 0 km/h
2549 17-03-2020 04:00:00 9 C 8.13 g/m*3 9 C 0.4 km/h
2550 17-03-2020 05:00:00 9.06667 C 8.09 g/m*3 9.07 C 0.93333 km/h
Sensor: Nr:Datum:Temp:Abs-Feuchte:Windchill:Wind:
Aussen-T/F 2551 17-03-2020 06:00:00 8.66667 C 7.88 g/m*3 8.67 C 0.13333 km/h
2552 17-03-2020 07:00:00 9.11667 C 8.07 g/m*3 9.12 C 1.33333 km/h
2553 17-03-2020 08:00:00 9.98333 C 8.16 g/m*3 9.98 C 1.46667 km/h
2554 17-03-2020 09:00:00 10.30833 C 8.1 g/m*3 10.31 C 0.4 km/h
2555 17-03-2020 10:00:00 10.9 C 8.25 g/m*3 10.9 C 1.2 km/h
2556 17-03-2020 11:00:00 12.05833 C 8.4 g/m*3 12.06 C 2.8 km/h
2557 17-03-2020 12:00:00 13.75 C 8.5 g/m*3 13.75 C 4.95 km/h
2558 17-03-2020 13:00:00 15.025 C 8.56 g/m*3 15.03 C 5.08333 km/h
2559 17-03-2020 14:00:00 15.6 C 8.4 g/m*3 15.6 C 4.825 km/h
2560 17-03-2020 15:00:00 16.14167 C 8.02 g/m*3 16.14 C 5.075 km/h
2561 17-03-2020 16:00:00 17.5 C 8.05 g/m*3 17.5 C 5.35833 km/h
2562 17-03-2020 17:00:00 18.05833 C 8.28 g/m*3 18.06 C 1.46667 km/h
2563 17-03-2020 18:00:00 14.55833 C 8.52 g/m*3 14.56 C 4.13333 km/h
2564 17-03-2020 19:00:00 11.35 C 8.08 g/m*3 11.35 C 4.53333 km/h
2565 17-03-2020 20:00:00 10.20833 C 7.91 g/m*3 10.21 C 3.61667 km/h
2566 17-03-2020 21:00:00 9.44167 C 7.69 g/m*3 9.44 C 0.53333 km/h
2567 17-03-2020 22:00:00 7.98333 C 7.23 g/m*3 7.98 C 0 km/h
2568 17-03-2020 23:00:00 7.00833 C 7.01 g/m*3 7.01 C 0 km/h
2569 18-03-2020 00:00:00 6.625 C 6.95 g/m*3 6.63 C 0 km/h
2570 18-03-2020 01:00:00 6.38333 C 6.9 g/m*3 6.38 C 0.13333 km/h
2571 18-03-2020 02:00:00 5.79167 C 6.66 g/m*3 5.79 C 0.4 km/h
2572 18-03-2020 03:00:00 4.975 C 6.37 g/m*3 4.97 C 0 km/h
2573 18-03-2020 04:00:00 4.50833 C 6.23 g/m*3 4.51 C 0 km/h
2574 18-03-2020 05:00:00 4.19167 C 6.12 g/m*3 4.19 C 0.26667 km/h
2575 18-03-2020 06:00:00 3.91667 C 6.06 g/m*3 3.92 C 0.13333 km/h
Sensor: Nr:Datum:Temp:Abs-Feuchte:Windchill:Wind:
Aussen-T/F 2576 18-03-2020 07:00:00 4.30833 C 6.23 g/m*3 4.31 C 1.46667 km/h
2577 18-03-2020 08:00:00 5.275 C 6.68 g/m*3 5.28 C 1.2 km/h
2578 18-03-2020 09:00:00 7.74167 C 7.89 g/m*3 7.74 C 3.86667 km/h
2579 18-03-2020 10:00:00 10.825 C 8.84 g/m*3 10.67 C 5.075 km/h
2580 18-03-2020 11:00:00 12.54167 C 9.05 g/m*3 12.54 C 5.88333 km/h
2581 18-03-2020 12:00:00 14.40833 C 9.43 g/m*3 14.41 C 3.20833 km/h
2582 18-03-2020 13:00:00 16.68333 C 9.05 g/m*3 16.68 C 8.2 km/h
2583 18-03-2020 14:00:00 16.56667 C 8.54 g/m*3 16.57 C 7.79167 km/h
2584 18-03-2020 15:00:00 16.88333 C 8.71 g/m*3 16.88 C 6.30833 km/h
2585 18-03-2020 16:00:00 16.33333 C 8.48 g/m*3 16.33 C 9.55 km/h
2586 18-03-2020 17:00:00 15.99167 C 8.28 g/m*3 15.99 C 7.79167 km/h
2587 18-03-2020 18:00:00 15.44167 C 8.44 g/m*3 15.44 C 3.6 km/h
2588 18-03-2020 19:00:00 11.71667 C 8 g/m*3 11.72 C 4.13333 km/h
2589 18-03-2020 20:00:00 10.775 C 8 g/m*3 10.78 C 0 km/h
2590 18-03-2020 21:00:00 10.04167 C 7.81 g/m*3 10.04 C 0 km/h
2591 18-03-2020 22:00:00 8.78333 C 7.54 g/m*3 8.78 C 0 km/h
2592 18-03-2020 23:00:00 8.45 C 7.59 g/m*3 8.45 C 0 km/h
2593 19-03-2020 00:00:00 9.06667 C 7.7 g/m*3 9.07 C 3.73333 km/h
2594 19-03-2020 01:00:00 9.34167 C 7.66 g/m*3 9.34 C 1.46667 km/h
2595 19-03-2020 02:00:00 9.1 C 7.65 g/m*3 9.1 C 0 km/h
2596 19-03-2020 03:00:00 8.8 C 7.6 g/m*3 8.8 C 0.26667 km/h
2597 19-03-2020 04:00:00 8.75833 C 7.67 g/m*3 8.76 C 0 km/h
2598 19-03-2020 05:00:00 8.94167 C 7.63 g/m*3 8.94 C 0.8 km/h
2599 19-03-2020 06:00:00 8.74167 C 7.58 g/m*3 8.74 C 0.4 km/h
2600 19-03-2020 07:00:00 8.69167 C 7.67 g/m*3 8.69 C 0.13333 km/h
Sensor: Nr:Datum:Temp:Abs-Feuchte:Windchill:Wind:
Aussen-T/F 2601 19-03-2020 08:00:00 9.61667 C 7.88 g/m*3 9.62 C 3.2 km/h
2602 19-03-2020 09:00:00 10.74167 C 8.08 g/m*3 10.74 C 3.46667 km/h
2603 19-03-2020 10:00:00 12.2 C 8.34 g/m*3 12.2 C 0 km/h
2604 19-03-2020 11:00:00 14.25833 C 8.74 g/m*3 14.26 C 0 km/h
2605 19-03-2020 12:00:00 15.7 C 8.93 g/m*3 15.7 C 1.46667 km/h
2606 19-03-2020 13:00:00 17.51667 C 8.26 g/m*3 17.52 C 5.48333 km/h
2607 19-03-2020 14:00:00 17.15 C 8.16 g/m*3 17.15 C 4.4 km/h
2608 19-03-2020 15:00:00 17.43333 C 8.12 g/m*3 17.43 C 4.4 km/h
2609 19-03-2020 16:00:00 17.46667 C 7.91 g/m*3 17.47 C 3.6 km/h
2610 19-03-2020 17:00:00 17.11667 C 7.92 g/m*3 17.12 C 6.44167 km/h
2611 19-03-2020 18:00:00 15.75 C 8.54 g/m*3 15.75 C 2.94167 km/h
2612 19-03-2020 19:00:00 12.25 C 8.15 g/m*3 12.25 C 0.26667 km/h
2613 19-03-2020 20:00:00 11.19167 C 8.22 g/m*3 11.19 C 0 km/h
2614 19-03-2020 21:00:00 11.24167 C 8.33 g/m*3 11.24 C 0 km/h
2615 19-03-2020 22:00:00 10.36667 C 8.15 g/m*3 10.37 C 0 km/h
2616 19-03-2020 23:00:00 9.83333 C 8 g/m*3 9.83 C 0 km/h
2617 20-03-2020 00:00:00 9.30833 C 7.89 g/m*3 9.31 C 0 km/h
2618 20-03-2020 01:00:00 9.04167 C 7.87 g/m*3 9.04 C 0 km/h
2619 20-03-2020 02:00:00 8.4 C 7.59 g/m*3 8.4 C 0 km/h
2620 20-03-2020 03:00:00 7.78333 C 7.43 g/m*3 7.78 C 0 km/h
2621 20-03-2020 04:00:00 7.84167 C 7.52 g/m*3 7.84 C 0 km/h
2622 20-03-2020 05:00:00 7.16667 C 7.21 g/m*3 7.17 C 0 km/h
2623 20-03-2020 06:00:00 6.04167 C 6.77 g/m*3 6.04 C 0 km/h
2624 20-03-2020 07:00:00 6.00833 C 6.87 g/m*3 6.01 C 0 km/h
2625 20-03-2020 08:00:00 7.125 C 7.44 g/m*3 7.13 C 0 km/h
Sensor: Nr:Datum:Temp:Abs-Feuchte:Windchill:Wind:
Aussen-T/F 2626 20-03-2020 09:00:00 9.00833 C 8.32 g/m*3 9.01 C 4.15833 km/h
2627 20-03-2020 10:00:00 11.21667 C 8.87 g/m*3 11.22 C 6.01667 km/h
2628 20-03-2020 11:00:00 12.88333 C 9.17 g/m*3 12.88 C 7.24167 km/h
2629 20-03-2020 12:00:00 14.04167 C 9.32 g/m*3 14.04 C 8.60833 km/h
2630 20-03-2020 13:00:00 14.58333 C 9.32 g/m*3 14.58 C 14.1 km/h
2631 20-03-2020 14:00:00 14.84167 C 9.26 g/m*3 14.84 C 13.56667 km/h
2632 20-03-2020 15:00:00 14.61667 C 9.3 g/m*3 14.62 C 15.56667 km/h
2633 20-03-2020 16:00:00 14.41667 C 9.18 g/m*3 14.42 C 14.63333 km/h
2634 20-03-2020 17:00:00 13.80833 C 8.84 g/m*3 13.81 C 13.15833 km/h
2635 20-03-2020 18:00:00 11.83333 C 8.38 g/m*3 11.83 C 10.35833 km/h
2636 20-03-2020 19:00:00 11.21667 C 8.19 g/m*3 11.22 C 11.03333 km/h
2637 20-03-2020 20:00:00 10.4 C 7.92 g/m*3 9.99 C 5.76667 km/h
2638 20-03-2020 21:00:00 9.68333 C 7.4 g/m*3 8 C 11.54167 km/h
2639 20-03-2020 22:00:00 8.56667 C 6.98 g/m*3 6.38 C 13.29167 km/h
2640 20-03-2020 23:00:00 8.15833 C 6.61 g/m*3 6.27 C 10.9 km/h
2641 21-03-2020 00:00:00 7.8 C 6.07 g/m*3 5.82 C 11.00833 km/h
2642 21-03-2020 01:00:00 7.38333 C 6.08 g/m*3 5.39 C 10.6 km/h
2643 21-03-2020 02:00:00 6.11667 C 6.32 g/m*3 3.72 C 11.41667 km/h
2644 21-03-2020 03:00:00 5.28333 C 6.31 g/m*3 5.28 C 4.025 km/h
2645 21-03-2020 04:00:00 4.85 C 6.22 g/m*3 4.85 C 4.95833 km/h
2646 21-03-2020 05:00:00 4.625 C 6.2 g/m*3 4.63 C 0.8 km/h
2647 21-03-2020 06:00:00 4.6 C 6.23 g/m*3 4.6 C 0.53333 km/h
2648 21-03-2020 07:00:00 4.73333 C 6.34 g/m*3 4.73 C 0.4 km/h
2649 21-03-2020 08:00:00 5.1 C 6.5 g/m*3 5.1 C 1.6 km/h
2650 21-03-2020 09:00:00 5.525 C 6.67 g/m*3 5.53 C 2.94167 km/h
Sensor: Nr:Datum:Temp:Abs-Feuchte:Windchill:Wind:
Aussen-T/F 2651 21-03-2020 10:00:00 6.38333 C 6.62 g/m*3 4.19 C 10.625 km/h
2652 21-03-2020 11:00:00 7.125 C 6.22 g/m*3 4.91 C 11.56667 km/h
2653 21-03-2020 12:00:00 7.63333 C 5.87 g/m*3 4.9 C 15.7 km/h
2654 21-03-2020 13:00:00 8.08333 C 5.48 g/m*3 4.95 C 20.10833 km/h
2655 21-03-2020 14:00:00 8.49167 C 5.3 g/m*3 5.74 C 17.56667 km/h
2656 21-03-2020 15:00:00 8.99167 C 5.16 g/m*3 6.38 C 17.43333 km/h
2657 21-03-2020 16:00:00 9.45833 C 5.1 g/m*3 7.55 C 12.76667 km/h
2658 21-03-2020 17:00:00 8.56667 C 4.74 g/m*3 6.18 C 14.76667 km/h
2659 21-03-2020 18:00:00 7.04167 C 4.58 g/m*3 5.62 C 7.64167 km/h
2660 21-03-2020 19:00:00 5.58333 C 4.63 g/m*3 4.52 C 5.625 km/h
2661 21-03-2020 20:00:00 4.48333 C 4.45 g/m*3 4.48 C 4.69167 km/h
2662 21-03-2020 21:00:00 4.025 C 4.34 g/m*3 1.87 C 8.45833 km/h
2663 21-03-2020 22:00:00 3.30833 C 4.25 g/m*3 1.17 C 7.925 km/h
2664 21-03-2020 23:00:00 2.80833 C 4.18 g/m*3 1.14 C 6.16667 km/h
2665 22-03-2020 00:00:00 2.175 C 4.14 g/m*3 0.62 C 5.625 km/h
2666 22-03-2020 01:00:00 2.3 C 4.04 g/m*3 0.11 C 7.50833 km/h
2667 22-03-2020 02:00:00 1.775 C 4.01 g/m*3 -0.15 C 6.45 km/h
2668 22-03-2020 03:00:00 1.14167 C 3.97 g/m*3 1.14 C 4.275 km/h
2669 22-03-2020 04:00:00 1.04167 C 3.92 g/m*3 -1.23 C 7.125 km/h
2670 22-03-2020 05:00:00 0.69167 C 3.85 g/m*3 -0.85 C 5.09167 km/h
2671 22-03-2020 06:00:00 0.45833 C 3.78 g/m*3 -1.61 C 6.29167 km/h
2672 22-03-2020 07:00:00 0.85833 C 3.75 g/m*3 -1.05 C 6.04167 km/h
2673 22-03-2020 08:00:00 1.49167 C 3.71 g/m*3 -1.34 C 9.26667 km/h
2674 22-03-2020 09:00:00 2.66667 C 3.62 g/m*3 -0.56 C 11.95833 km/h
2675 22-03-2020 10:00:00 4.59167 C 3.35 g/m*3 1.35 C 14.36667 km/h
Sensor: Nr:Datum:Temp:Abs-Feuchte:Windchill:Wind:
Aussen-T/F 2676 22-03-2020 11:00:00 6.21667 C 2.92 g/m*3 2.81 C 18.24167 km/h
2677 22-03-2020 12:00:00 7.49167 C 2.84 g/m*3 4.32 C 19.04167 km/h
2678 22-03-2020 13:00:00 8.85 C 2.98 g/m*3 5.86 C 20.64167 km/h
2679 22-03-2020 14:00:00 9.41667 C 3.07 g/m*3 7.06 C 16.1 km/h
2680 22-03-2020 15:00:00 10.14167 C 3.18 g/m*3 8.2 C 14.1 km/h
2681 22-03-2020 16:00:00 11.00833 C 3.26 g/m*3 11.01 C 13.16667 km/h
2682 22-03-2020 17:00:00 10.6 C 3.71 g/m*3 8.88 C 13.16667 km/h
2683 22-03-2020 18:00:00 8.81667 C 3.86 g/m*3 7.18 C 10.20833 km/h
2684 22-03-2020 19:00:00 5.625 C 4.06 g/m*3 5.63 C 3.74167 km/h
2685 22-03-2020 20:00:00 3.9 C 4.02 g/m*3 3.9 C 4.81667 km/h
2686 22-03-2020 21:00:00 2.89167 C 3.84 g/m*3 2.89 C 4.14167 km/h
2687 22-03-2020 22:00:00 2.525 C 3.76 g/m*3 2.53 C 4.68333 km/h
2688 22-03-2020 23:00:00 1.38333 C 3.72 g/m*3 1.38 C 4.55 km/h
2689 23-03-2020 00:00:00 0.425 C 3.66 g/m*3 0.43 C 2.26667 km/h
2690 23-03-2020 01:00:00 -0.31667 C 3.58 g/m*3 -0.32 C 3.06667 km/h
2691 23-03-2020 02:00:00 -0.69167 C 3.48 g/m*3 -0.69 C 4 km/h
2692 23-03-2020 03:00:00 -1.04167 C 3.4 g/m*3 -1.04 C 3.86667 km/h
2693 23-03-2020 04:00:00 -1.51667 C 3.33 g/m*3 -1.52 C 3.33333 km/h
2694 23-03-2020 05:00:00 -2 C 3.29 g/m*3 -2 C 2.66667 km/h
2695 23-03-2020 06:00:00 -2.33333 C 3.26 g/m*3 -2.33 C 2.66667 km/h
2696 23-03-2020 07:00:00 -2.05833 C 3.3 g/m*3 -2.06 C 3.875 km/h
2697 23-03-2020 08:00:00 -0.3 C 3.14 g/m*3 -2.74 C 6.975 km/h
2698 23-03-2020 09:00:00 1.63333 C 2.94 g/m*3 -1.31 C 9.8 km/h
2699 23-03-2020 10:00:00 3.825 C 2.78 g/m*3 1.15 C 10.48333 km/h
2700 23-03-2020 11:00:00 6.01667 C 2.5 g/m*3 3.24 C 13.43333 km/h
Sensor: Nr:Datum:Temp:Abs-Feuchte:Windchill:Wind:
Aussen-T/F 2701 23-03-2020 12:00:00 7.51667 C 2.26 g/m*3 4.79 C 15.43333 km/h
2702 23-03-2020 13:00:00 8.5 C 2.2 g/m*3 5.67 C 18.23333 km/h
2703 23-03-2020 14:00:00 8.9 C 2.14 g/m*3 6.49 C 15.56667 km/h
2704 23-03-2020 15:00:00 9.425 C 2.24 g/m*3 7.37 C 13.7 km/h
2705 23-03-2020 16:00:00 10.23333 C 2.3 g/m*3 8.62 C 11.83333 km/h
2706 23-03-2020 17:00:00 10.25833 C 2.48 g/m*3 9.04 C 9.40833 km/h
2707 23-03-2020 18:00:00 8.53333 C 2.84 g/m*3 8.53 C 4.80833 km/h
2708 23-03-2020 19:00:00 3.775 C 3.43 g/m*3 2.56 C 5.33333 km/h
2709 23-03-2020 20:00:00 2.15833 C 3.48 g/m*3 0.66 C 5.46667 km/h
2710 23-03-2020 21:00:00 1.325 C 3.53 g/m*3 1.33 C 4 km/h
2711 23-03-2020 22:00:00 0.16667 C 3.55 g/m*3 0.17 C 1.33333 km/h
2712 23-03-2020 23:00:00 -0.50833 C 3.56 g/m*3 -0.51 C 0 km/h
2713 24-03-2020 00:00:00 -1 C 3.51 g/m*3 -1 C 0 km/h
2714 24-03-2020 01:00:00 -1.425 C 3.44 g/m*3 -1.43 C 0.8 km/h
2715 24-03-2020 02:00:00 -1.78333 C 3.41 g/m*3 -1.78 C 0.26667 km/h
2716 24-03-2020 03:00:00 -2.38333 C 3.33 g/m*3 -2.38 C 0 km/h
2717 24-03-2020 04:00:00 -2.8 C 3.19 g/m*3 -2.8 C 0 km/h
2718 24-03-2020 05:00:00 -3.04167 C 3.17 g/m*3 -3.04 C 0 km/h
2719 24-03-2020 06:00:00 -3.41667 C 3.12 g/m*3 -3.42 C 0 km/h
2720 24-03-2020 07:00:00 -3.125 C 3.2 g/m*3 -3.13 C 0 km/h
2721 24-03-2020 08:00:00 -2.225 C 3.32 g/m*3 -2.23 C 1.86667 km/h
2722 24-03-2020 09:00:00 0.31667 C 3.36 g/m*3 0.32 C 4.80833 km/h
2723 24-03-2020 10:00:00 4.33333 C 2.72 g/m*3 1.88 C 9.93333 km/h
2724 24-03-2020 11:00:00 6.63333 C 2.56 g/m*3 4.36 C 11.3 km/h
2725 24-03-2020 12:00:00 8.31667 C 2.53 g/m*3 6.12 C 13.03333 km/h
Sensor: Nr:Datum:Temp:Abs-Feuchte:Windchill:Wind:
Aussen-T/F 2726 24-03-2020 13:00:00 9.175 C 2.58 g/m*3 7.16 C 13.03333 km/h
2727 24-03-2020 14:00:00 9.44167 C 2.44 g/m*3 7.32 C 14.23333 km/h
2728 24-03-2020 15:00:00 9.93333 C 2.44 g/m*3 7.86 C 14.76667 km/h
2729 24-03-2020 16:00:00 10.81667 C 2.41 g/m*3 9.29 C 12.09167 km/h
2730 24-03-2020 17:00:00 11.11667 C 2.34 g/m*3 11.12 C 10.09167 km/h
2731 24-03-2020 18:00:00 9.46667 C 2.78 g/m*3 9.47 C 4.95 km/h
2732 24-03-2020 19:00:00 4.46667 C 3.34 g/m*3 3.25 C 5.6 km/h
2733 24-03-2020 20:00:00 2.8 C 3.35 g/m*3 1.19 C 6 km/h
2734 24-03-2020 21:00:00 1.96667 C 3.29 g/m*3 0.14 C 6.26667 km/h
2735 24-03-2020 22:00:00 1.09167 C 3.36 g/m*3 1.09 C 3.6 km/h
2736 24-03-2020 23:00:00 0.00833 C 3.25 g/m*3 0.01 C 0.66667 km/h
2737 25-03-2020 00:00:00 -0.625 C 3.22 g/m*3 -0.63 C 0.53333 km/h
2738 25-03-2020 01:00:00 -0.70833 C 3.16 g/m*3 -0.71 C 0 km/h
2739 25-03-2020 02:00:00 -0.93333 C 3.07 g/m*3 -0.93 C 0 km/h
2740 25-03-2020 03:00:00 -1.15833 C 3.07 g/m*3 -1.16 C 0 km/h
2741 25-03-2020 04:00:00 -1.91667 C 3.08 g/m*3 -1.92 C 0.66667 km/h
2742 25-03-2020 05:00:00 -2.48333 C 3.03 g/m*3 -2.48 C 1.33333 km/h
2743 25-03-2020 06:00:00 -3.025 C 3.05 g/m*3 -3.03 C 0 km/h
2744 25-03-2020 07:00:00 -2.86667 C 3.18 g/m*3 -2.87 C 0 km/h
2745 25-03-2020 08:00:00 -1.975 C 3.22 g/m*3 -1.98 C 0.93333 km/h
2746 25-03-2020 09:00:00 0.10833 C 3.35 g/m*3 0.11 C 4.95833 km/h
2747 25-03-2020 10:00:00 4.20833 C 3.06 g/m*3 1.16 C 12.75833 km/h
2748 25-03-2020 11:00:00 6.46667 C 2.85 g/m*3 3.95 C 12.48333 km/h
2749 25-03-2020 12:00:00 8.375 C 2.7 g/m*3 6.09 C 13.7 km/h
2750 25-03-2020 13:00:00 9.775 C 2.59 g/m*3 7.73 C 14.23333 km/h
Sensor: Nr:Datum:Temp:Abs-Feuchte:Windchill:Wind:
Aussen-T/F 2751 25-03-2020 14:00:00 10.125 C 2.51 g/m*3 7.92 C 16.23333 km/h
2752 25-03-2020 15:00:00 10.8 C 2.64 g/m*3 8.78 C 16.1 km/h
2753 25-03-2020 16:00:00 12.03333 C 2.48 g/m*3 12.03 C 12.625 km/h
2754 25-03-2020 17:00:00 12.09167 C 2.55 g/m*3 12.09 C 13.15833 km/h
2755 25-03-2020 18:00:00 10.28333 C 3.09 g/m*3 9.82 C 5.9 km/h
2756 25-03-2020 19:00:00 6.25833 C 3.41 g/m*3 6.26 C 3.875 km/h
2757 25-03-2020 20:00:00 4.81667 C 3.39 g/m*3 4.82 C 4.40833 km/h
2758 25-03-2020 21:00:00 5.13333 C 3.26 g/m*3 3.91 C 5.89167 km/h
2759 25-03-2020 22:00:00 3.25 C 3.47 g/m*3 3.25 C 3.6 km/h
2760 25-03-2020 23:00:00 2.01667 C 3.46 g/m*3 2.02 C 2.26667 km/h
2761 26-03-2020 00:00:00 1.325 C 3.42 g/m*3 1.33 C 3.2 km/h
2762 26-03-2020 01:00:00 0.875 C 3.37 g/m*3 0.88 C 2.4 km/h
2763 26-03-2020 02:00:00 0.66667 C 3.31 g/m*3 0.67 C 2.8 km/h
2764 26-03-2020 03:00:00 0.35833 C 3.3 g/m*3 0.36 C 2.66667 km/h
2765 26-03-2020 04:00:00 0.05 C 3.32 g/m*3 0.05 C 2.53333 km/h
2766 26-03-2020 05:00:00 -0.06667 C 3.35 g/m*3 -0.07 C 3.2 km/h
2767 26-03-2020 06:00:00 -0.30833 C 3.34 g/m*3 -0.31 C 2.66667 km/h
2768 26-03-2020 07:00:00 0.21667 C 3.37 g/m*3 0.22 C 3.88333 km/h
2769 26-03-2020 08:00:00 1.95833 C 3.37 g/m*3 -0.41 C 7.91667 km/h
2770 26-03-2020 09:00:00 3.79167 C 3.41 g/m*3 1.35 C 9.40833 km/h
2771 26-03-2020 10:00:00 5.625 C 3.43 g/m*3 2.84 C 13.01667 km/h
2772 26-03-2020 11:00:00 7.03333 C 3.47 g/m*3 4.43 C 13.83333 km/h
2773 26-03-2020 12:00:00 8.575 C 3.54 g/m*3 6.24 C 14.35833 km/h
2774 26-03-2020 13:00:00 9.725 C 3.63 g/m*3 7.35 C 16.9 km/h
2775 26-03-2020 14:00:00 10.54167 C 3.78 g/m*3 8.64 C 14.5 km/h
Sensor: Nr:Datum:Temp:Abs-Feuchte:Windchill:Wind:
Aussen-T/F 2776 26-03-2020 15:00:00 11.33333 C 3.94 g/m*3 11.33 C 15.03333 km/h
2777 26-03-2020 16:00:00 11.85833 C 4.23 g/m*3 11.86 C 11.80833 km/h
2778 26-03-2020 17:00:00 11.30833 C 4.31 g/m*3 11.31 C 16.23333 km/h
2779 26-03-2020 18:00:00 10.51667 C 4.47 g/m*3 9.22 C 10.19167 km/h
2780 26-03-2020 19:00:00 7.54167 C 4.76 g/m*3 7.54 C 2.26667 km/h
2781 26-03-2020 20:00:00 5.7 C 4.74 g/m*3 5.7 C 2.13333 km/h
2782 26-03-2020 21:00:00 4.70833 C 4.72 g/m*3 4.71 C 3.33333 km/h
2783 26-03-2020 22:00:00 4.28333 C 4.75 g/m*3 4.28 C 4 km/h
2784 26-03-2020 23:00:00 4.09167 C 4.76 g/m*3 4.09 C 2.26667 km/h
2785 27-03-2020 00:00:00 3.825 C 4.75 g/m*3 3.83 C 2.8 km/h
2786 27-03-2020 01:00:00 3.24167 C 4.73 g/m*3 3.24 C 0.8 km/h
2787 27-03-2020 02:00:00 2.91667 C 4.68 g/m*3 2.92 C 0.4 km/h
2788 27-03-2020 03:00:00 2.43333 C 4.59 g/m*3 2.43 C 1.06667 km/h
2789 27-03-2020 04:00:00 2.1 C 4.54 g/m*3 2.1 C 0 km/h
2790 27-03-2020 05:00:00 1.39167 C 4.42 g/m*3 1.39 C 0 km/h
2791 27-03-2020 06:00:00 0.74167 C 4.38 g/m*3 0.74 C 0 km/h
2792 27-03-2020 07:00:00 1.025 C 4.54 g/m*3 1.02 C 0 km/h
2793 27-03-2020 08:00:00 2.1 C 4.82 g/m*3 2.1 C 0 km/h
2794 27-03-2020 09:00:00 3.93333 C 5.13 g/m*3 3.93 C 0 km/h
2795 27-03-2020 10:00:00 7.24167 C 5.36 g/m*3 7.24 C 0.8 km/h
2796 27-03-2020 11:00:00 10.925 C 5.3 g/m*3 10.53 C 6.025 km/h
2797 27-03-2020 12:00:00 13.36667 C 5.3 g/m*3 13.37 C 13.3 km/h
2798 27-03-2020 13:00:00 14.76667 C 5.47 g/m*3 14.77 C 13.43333 km/h
2799 27-03-2020 14:00:00 15.425 C 5.53 g/m*3 15.43 C 15.16667 km/h
2800 27-03-2020 15:00:00 15.89167 C 5.65 g/m*3 15.89 C 18.9 km/h
Sensor: Nr:Datum:Temp:Abs-Feuchte:Windchill:Wind:
Aussen-T/F 2801 27-03-2020 16:00:00 16.65 C 5.73 g/m*3 16.65 C 16.23333 km/h
2802 27-03-2020 17:00:00 16.525 C 5.7 g/m*3 16.52 C 13.55833 km/h
2803 27-03-2020 18:00:00 14.875 C 6.28 g/m*3 14.88 C 5.48333 km/h
2804 27-03-2020 19:00:00 11.05 C 6.11 g/m*3 11.05 C 3.6 km/h
2805 27-03-2020 20:00:00 9.46667 C 6.14 g/m*3 9.47 C 3.33333 km/h
2806 27-03-2020 21:00:00 7.94167 C 6.05 g/m*3 7.94 C 0 km/h
2807 27-03-2020 22:00:00 6.68333 C 5.89 g/m*3 6.68 C 0 km/h
2808 27-03-2020 23:00:00 5.975 C 5.84 g/m*3 5.98 C 0 km/h
2809 28-03-2020 00:00:00 5.66667 C 5.84 g/m*3 5.67 C 0 km/h
2810 28-03-2020 01:00:00 5.075 C 5.7 g/m*3 5.08 C 0 km/h
2811 28-03-2020 02:00:00 4.34167 C 5.6 g/m*3 4.34 C 0 km/h
2812 28-03-2020 03:00:00 3.75 C 5.44 g/m*3 3.75 C 0 km/h
2813 28-03-2020 04:00:00 2.775 C 5.23 g/m*3 2.78 C 0 km/h
2814 28-03-2020 05:00:00 2.31667 C 5.16 g/m*3 2.32 C 0 km/h
2815 28-03-2020 06:00:00 1.86667 C 5.07 g/m*3 1.87 C 0 km/h
2816 28-03-2020 07:00:00 2.41667 C 5.32 g/m*3 2.42 C 0 km/h
2817 28-03-2020 08:00:00 3.40833 C 5.68 g/m*3 3.41 C 0 km/h
2818 28-03-2020 09:00:00 6.05 C 6.58 g/m*3 6.05 C 0 km/h
2819 28-03-2020 10:00:00 9.85833 C 6.92 g/m*3 9.86 C 0.4 km/h
2820 28-03-2020 11:00:00 13.38333 C 6.96 g/m*3 13.38 C 1.6 km/h
2821 28-03-2020 12:00:00 16.03333 C 6.74 g/m*3 16.03 C 4 km/h
2822 28-03-2020 13:00:00 17.66667 C 6.59 g/m*3 17.67 C 9.39167 km/h
2823 28-03-2020 14:00:00 18.25 C 6.64 g/m*3 18.25 C 10.9 km/h
2824 28-03-2020 15:00:00 18.325 C 6.29 g/m*3 18.33 C 13.83333 km/h
2825 28-03-2020 16:00:00 18.05 C 5.91 g/m*3 18.05 C 17.43333 km/h
Sensor: Nr:Datum:Temp:Abs-Feuchte:Windchill:Wind:
Aussen-T/F 2826 28-03-2020 17:00:00 16.825 C 5.05 g/m*3 16.83 C 16.36667 km/h
2827 28-03-2020 18:00:00 14.525 C 4.97 g/m*3 14.53 C 11.95833 km/h
2828 28-03-2020 19:00:00 12.35833 C 5.08 g/m*3 12.36 C 10.75833 km/h
2829 28-03-2020 20:00:00 10.94167 C 5.14 g/m*3 10.48 C 6.29167 km/h
2830 28-03-2020 21:00:00 9.40833 C 5.27 g/m*3 9.41 C 3.475 km/h
2831 28-03-2020 22:00:00 9.03333 C 5.45 g/m*3 7.64 C 9.13333 km/h
2832 28-03-2020 23:00:00 8.04167 C 5.84 g/m*3 6.28 C 10.08333 km/h
2833 29-03-2020 00:00:00 7.14167 C 5.77 g/m*3 5.31 C 9.54167 km/h
2834 29-03-2020 01:00:00 6.59167 C 5.44 g/m*3 3.97 C 13.3 km/h
2835 29-03-2020 02:00:00 5.74167 C 5.03 g/m*3 2.87 C 13.7 km/h
2836 29-03-2020 04:00:00 4.88333 C 4.71 g/m*3 2.47 C 10.20833 km/h
2837 29-03-2020 05:00:00 4.575 C 4.68 g/m*3 1.48 C 13.43333 km/h
2838 29-03-2020 06:00:00 3.8 C 4.5 g/m*3 2.48 C 5.63333 km/h
2839 29-03-2020 07:00:00 4.04167 C 4.89 g/m*3 1.75 C 9 km/h
2840 29-03-2020 08:00:00 4.36667 C 4.97 g/m*3 1.5 C 11.95833 km/h
2841 29-03-2020 09:00:00 4.64167 C 4.95 g/m*3 1.32 C 14.9 km/h
2842 29-03-2020 10:00:00 5.64167 C 4.94 g/m*3 2.09 C 18.23333 km/h
2843 29-03-2020 11:00:00 6.44167 C 4.56 g/m*3 2.7 C 21.71667 km/h
2844 29-03-2020 12:00:00 6.04167 C 4.7 g/m*3 2.43 C 19.56667 km/h
2845 29-03-2020 13:00:00 6.68333 C 4.36 g/m*3 3.38 C 18.36667 km/h
2846 29-03-2020 14:00:00 6.9 C 4.38 g/m*3 3.73 C 17.7 km/h
2847 29-03-2020 15:00:00 7.1 C 4.48 g/m*3 4 C 17.56667 km/h
2848 29-03-2020 16:00:00 6.90833 C 4.4 g/m*3 3.83 C 17.03333 km/h
2849 29-03-2020 17:00:00 6.89167 C 4.74 g/m*3 3.61 C 18.63333 km/h
2850 29-03-2020 18:00:00 6.06667 C 5.08 g/m*3 2.37 C 20.375 km/h
Sensor: Nr:Datum:Temp:Abs-Feuchte:Windchill:Wind:
Aussen-T/F 2851 29-03-2020 19:00:00 4.35 C 5.43 g/m*3 0.68 C 16.75833 km/h
2852 29-03-2020 20:00:00 3.88333 C 5.43 g/m*3 3.88 C 4.675 km/h
2853 29-03-2020 21:00:00 4.34167 C 5.06 g/m*3 1.79 C 10.35833 km/h
2854 29-03-2020 22:00:00 4.26667 C 4.77 g/m*3 0.72 C 15.83333 km/h
2855 29-03-2020 23:00:00 4.025 C 4.39 g/m*3 0.54 C 15.03333 km/h
2856 30-03-2020 00:00:00 2.95 C 4.06 g/m*3 1.03 C 6.98333 km/h
2857 30-03-2020 01:00:00 1.29167 C 3.91 g/m*3 1.29 C 3.46667 km/h
2858 30-03-2020 02:00:00 -0.3 C 3.74 g/m*3 -0.3 C 1.33333 km/h
2859 30-03-2020 03:00:00 -1.20833 C 3.63 g/m*3 -1.21 C 2.4 km/h
2860 30-03-2020 04:00:00 -1.74167 C 3.57 g/m*3 -1.74 C 1.46667 km/h
2861 30-03-2020 05:00:00 -2.05 C 3.43 g/m*3 -2.05 C 1.33333 km/h
2862 30-03-2020 06:00:00 -2.9 C 3.3 g/m*3 -2.9 C 0.93333 km/h
2863 30-03-2020 07:00:00 -3.05 C 3.28 g/m*3 -3.05 C 0.8 km/h
2864 30-03-2020 08:00:00 -3.225 C 3.28 g/m*3 -3.23 C 0.4 km/h
2865 30-03-2020 09:00:00 -2.225 C 3.36 g/m*3 -2.23 C 1.33333 km/h
2866 30-03-2020 10:00:00 -0.64167 C 3.46 g/m*3 -0.64 C 4.15 km/h
2867 30-03-2020 11:00:00 2.7 C 2.96 g/m*3 0.66 C 7.25 km/h
2868 30-03-2020 12:00:00 4.41667 C 2.58 g/m*3 2.66 C 7.25 km/h
2869 30-03-2020 13:00:00 5.98333 C 2.66 g/m*3 4.11 C 8.73333 km/h
2870 30-03-2020 14:00:00 7.20833 C 2.68 g/m*3 5.18 C 10.60833 km/h
2871 30-03-2020 15:00:00 8.075 C 3.04 g/m*3 5.84 C 12.9 km/h
2872 30-03-2020 16:00:00 9.05833 C 3.41 g/m*3 7.06 C 12.76667 km/h
2873 30-03-2020 17:00:00 9.51667 C 3.76 g/m*3 7.23 C 15.7 km/h
2874 30-03-2020 18:00:00 8.54167 C 4.11 g/m*3 6.41 C 12.9 km/h
2875 30-03-2020 19:00:00 7.58333 C 4.25 g/m*3 6.32 C 7.39167 km/h
Sensor: Nr:Datum:Temp:Abs-Feuchte:Windchill:Wind:
Aussen-T/F 2876 30-03-2020 20:00:00 4.33333 C 4.3 g/m*3 4.33 C 2.26667 km/h
2877 30-03-2020 21:00:00 3.80833 C 4.62 g/m*3 3.81 C 3.6 km/h
2878 30-03-2020 22:00:00 4.1 C 4.71 g/m*3 4.1 C 0.93333 km/h
2879 30-03-2020 23:00:00 4.375 C 4.72 g/m*3 4.38 C 1.46667 km/h
2880 31-03-2020 00:00:00 4.48333 C 4.78 g/m*3 4.48 C 1.46667 km/h
2881 31-03-2020 01:00:00 4.60833 C 5.19 g/m*3 4.61 C 2.13333 km/h
2882 31-03-2020 02:00:00 4.13333 C 5.33 g/m*3 4.13 C 1.33333 km/h
2883 31-03-2020 03:00:00 3.14167 C 5.23 g/m*3 3.14 C 1.06667 km/h
2884 31-03-2020 04:00:00 3.35 C 5.47 g/m*3 3.35 C 0.26667 km/h
2885 31-03-2020 05:00:00 3.275 C 5.38 g/m*3 3.28 C 0.66667 km/h
2886 31-03-2020 06:00:00 2.16667 C 5.09 g/m*3 2.17 C 0.53333 km/h
2887 31-03-2020 07:00:00 2.65833 C 5.34 g/m*3 2.66 C 0 km/h
2888 31-03-2020 08:00:00 3.45833 C 5.51 g/m*3 3.46 C 2.55 km/h
2889 31-03-2020 09:00:00 4.51667 C 5.06 g/m*3 2.7 C 7.51667 km/h
2890 31-03-2020 10:00:00 4.85 C 4.84 g/m*3 2.67 C 9.14167 km/h
2891 31-03-2020 11:00:00 5.25 C 4.59 g/m*3 2.69 C 11.29167 km/h
2892 31-03-2020 12:00:00 6.64167 C 4.26 g/m*3 4.42 C 11.01667 km/h
2893 31-03-2020 13:00:00 7.34167 C 3.8 g/m*3 5.1 C 11.96667 km/h
2894 31-03-2020 14:00:00 8.60833 C 3.71 g/m*3 6.32 C 14.1 km/h
2895 31-03-2020 15:00:00 9.04167 C 3.57 g/m*3 6.98 C 13.15833 km/h
2896 31-03-2020 16:00:00 9.81667 C 3.53 g/m*3 7.65 C 15.3 km/h
2897 31-03-2020 17:00:00 10.84167 C 3.53 g/m*3 9.54 C 10.61667 km/h
2898 31-03-2020 18:00:00 10.775 C 3.53 g/m*3 9.68 C 9.25833 km/h
2899 31-03-2020 19:00:00 9.675 C 3.67 g/m*3 9.68 C 4.96667 km/h
2900 31-03-2020 20:00:00 5.45 C 4.04 g/m*3 5.45 C 4.13333 km/h
Sensor: Nr:Datum:Temp:Abs-Feuchte:Windchill:Wind:
Aussen-T/F 2901 31-03-2020 21:00:00 3.39167 C 3.95 g/m*3 3.39 C 3.86667 km/h
2902 31-03-2020 22:00:00 2.40833 C 3.9 g/m*3 2.41 C 4.53333 km/h
2903 31-03-2020 23:00:00 1.425 C 3.88 g/m*3 1.43 C 4 km/h
2904 01-04-2020 00:00:00 0.59167 C 3.79 g/m*3 0.59 C 2.93333 km/h
2905 01-04-2020 01:00:00 -0.14167 C 3.74 g/m*3 -0.14 C 0.93333 km/h
2906 01-04-2020 02:00:00 -1.025 C 3.61 g/m*3 -1.02 C 0 km/h
2907 01-04-2020 03:00:00 -1.64167 C 3.49 g/m*3 -1.64 C 0 km/h
2908 01-04-2020 04:00:00 -2.175 C 3.37 g/m*3 -2.17 C 0 km/h
2909 01-04-2020 05:00:00 -2.66667 C 3.32 g/m*3 -2.67 C 0 km/h
2910 01-04-2020 06:00:00 -3.05 C 3.3 g/m*3 -3.05 C 0 km/h
2911 01-04-2020 07:00:00 -3.325 C 3.28 g/m*3 -3.33 C 0 km/h
2912 01-04-2020 08:00:00 -2.94167 C 3.4 g/m*3 -2.94 C 0 km/h
2913 01-04-2020 09:00:00 -2.1 C 3.54 g/m*3 -2.1 C 0.26667 km/h
2914 01-04-2020 10:00:00 -0.075 C 3.97 g/m*3 -0.08 C 0.13333 km/h
2915 01-04-2020 11:00:00 3.90833 C 4.05 g/m*3 3.91 C 1.2 km/h
2916 01-04-2020 12:00:00 7.29167 C 3.62 g/m*3 6.43 C 5.75 km/h
2917 01-04-2020 13:00:00 8.80833 C 3.59 g/m*3 7.88 C 6.83333 km/h
2918 01-04-2020 14:00:00 9.89167 C 3.54 g/m*3 8.84 C 8.19167 km/h
2919 01-04-2020 15:00:00 10.65833 C 3.25 g/m*3 10.03 C 6.84167 km/h
2920 01-04-2020 16:00:00 11.7 C 3.37 g/m*3 11.7 C 5.9 km/h
2921 01-04-2020 17:00:00 13.075 C 3.67 g/m*3 13.08 C 6.70833 km/h
2922 01-04-2020 18:00:00 12.9 C 3.68 g/m*3 12.9 C 6.16667 km/h
2923 01-04-2020 19:00:00 11.90833 C 3.66 g/m*3 11.91 C 5.88333 km/h
2924 01-04-2020 20:00:00 8.54167 C 3.83 g/m*3 8.08 C 5.075 km/h
2925 01-04-2020 21:00:00 5.31667 C 4.09 g/m*3 5.32 C 4.93333 km/h
Sensor: Nr:Datum:Temp:Abs-Feuchte:Windchill:Wind:
Aussen-T/F 2926 01-04-2020 22:00:00 3.75 C 4.08 g/m*3 3.75 C 2.66667 km/h
2927 01-04-2020 23:00:00 2.44167 C 4.08 g/m*3 2.44 C 0.93333 km/h
2928 02-04-2020 00:00:00 1.21667 C 3.94 g/m*3 1.22 C 1.2 km/h
2929 02-04-2020 01:00:00 0.4 C 3.91 g/m*3 0.4 C 0 km/h
2930 02-04-2020 02:00:00 -0.18333 C 3.86 g/m*3 -0.18 C 0 km/h
2931 02-04-2020 03:00:00 -0.58333 C 3.82 g/m*3 -0.58 C 0.13333 km/h
2932 02-04-2020 04:00:00 -0.825 C 3.79 g/m*3 -0.83 C 0.26667 km/h
2933 02-04-2020 05:00:00 -1.56667 C 3.69 g/m*3 -1.57 C 0 km/h
2934 02-04-2020 06:00:00 -1.725 C 3.7 g/m*3 -1.73 C 0 km/h
2935 02-04-2020 07:00:00 -1.9 C 3.69 g/m*3 -1.9 C 0.4 km/h
2936 02-04-2020 08:00:00 -1.35833 C 3.85 g/m*3 -1.36 C 0.13333 km/h
2937 02-04-2020 09:00:00 -0.64167 C 4.03 g/m*3 -0.64 C 0.13333 km/h
2938 02-04-2020 10:00:00 1.39167 C 4.55 g/m*3 1.39 C 0 km/h
2939 02-04-2020 11:00:00 5.44167 C 4.94 g/m*3 5.44 C 1.46667 km/h
2940 02-04-2020 12:00:00 8.83333 C 4.88 g/m*3 8.83 C 4.14167 km/h
2941 02-04-2020 13:00:00 10.78333 C 4.51 g/m*3 9.87 C 8.31667 km/h
2942 02-04-2020 14:00:00 12.31667 C 4.66 g/m*3 12.32 C 8.60833 km/h
2943 02-04-2020 15:00:00 13.25833 C 4.71 g/m*3 13.26 C 9.29167 km/h
2944 02-04-2020 16:00:00 13.56667 C 4.95 g/m*3 13.57 C 10.875 km/h
2945 02-04-2020 17:00:00 13.58333 C 5.31 g/m*3 13.58 C 13.3 km/h
2946 02-04-2020 18:00:00 12.2 C 5.45 g/m*3 12.2 C 13.03333 km/h
2947 02-04-2020 19:00:00 10.68333 C 5.09 g/m*3 9.75 C 8.31667 km/h
2948 02-04-2020 20:00:00 8.79167 C 5.03 g/m*3 8 C 6.30833 km/h
2949 02-04-2020 21:00:00 6.64167 C 5.06 g/m*3 6.64 C 4 km/h
2950 02-04-2020 22:00:00 5.86667 C 5.09 g/m*3 5.87 C 3.73333 km/h
Sensor: Nr:Datum:Temp:Abs-Feuchte:Windchill:Wind:
Aussen-T/F 2951 02-04-2020 23:00:00 5.25833 C 5.14 g/m*3 5.26 C 3.73333 km/h
2952 03-04-2020 00:00:00 3.475 C 4.93 g/m*3 3.48 C 1.86667 km/h
2953 03-04-2020 01:00:00 3.025 C 4.89 g/m*3 1.64 C 5.50833 km/h
2954 03-04-2020 02:00:00 3.1 C 4.95 g/m*3 3.1 C 2.93333 km/h
2955 03-04-2020 03:00:00 4.2 C 5.23 g/m*3 4.2 C 3.475 km/h
2956 03-04-2020 04:00:00 5.28333 C 5.37 g/m*3 5.28 C 2.95 km/h
2957 03-04-2020 05:00:00 5.30833 C 5.46 g/m*3 5.31 C 2.26667 km/h
2958 03-04-2020 06:00:00 5.68333 C 5.56 g/m*3 5.68 C 4.275 km/h
2959 03-04-2020 07:00:00 6.05833 C 5.61 g/m*3 4.54 C 7.38333 km/h
2960 03-04-2020 08:00:00 6.39167 C 5.74 g/m*3 4.36 C 9.83333 km/h
2961 03-04-2020 09:00:00 7.6 C 6.09 g/m*3 6.21 C 7.925 km/h
2962 03-04-2020 10:00:00 9.06667 C 6.5 g/m*3 7.67 C 9.15833 km/h
2963 03-04-2020 11:00:00 10.85 C 6.61 g/m*3 9.47 C 11.15833 km/h
2964 03-04-2020 12:00:00 11.35 C 6.29 g/m*3 11.35 C 11.83333 km/h
2965 03-04-2020 13:00:00 11.575 C 6.2 g/m*3 11.58 C 11.43333 km/h
2966 03-04-2020 14:00:00 11.66667 C 6.02 g/m*3 11.67 C 10.625 km/h
2967 03-04-2020 15:00:00 11.75 C 5.88 g/m*3 11.75 C 11.03333 km/h
2968 03-04-2020 16:00:00 12.25 C 5.44 g/m*3 12.25 C 12.76667 km/h
2969 03-04-2020 17:00:00 12.13333 C 5.29 g/m*3 12.13 C 12.63333 km/h
2970 03-04-2020 18:00:00 11.51667 C 5.4 g/m*3 11.52 C 11.56667 km/h
2971 03-04-2020 19:00:00 10.73333 C 5.45 g/m*3 9.56 C 9.69167 km/h
2972 03-04-2020 20:00:00 9.88333 C 5.23 g/m*3 9.13 C 6.83333 km/h
2973 03-04-2020 21:00:00 9.225 C 4.95 g/m*3 9.23 C 4.81667 km/h
2974 03-04-2020 22:00:00 7.96667 C 5.03 g/m*3 7.97 C 4 km/h
2975 03-04-2020 23:00:00 6.8 C 4.88 g/m*3 6.8 C 2.66667 km/h
Sensor: Nr:Datum:Temp:Abs-Feuchte:Windchill:Wind:
Aussen-T/F 2976 04-04-2020 00:00:00 5.65 C 4.76 g/m*3 5.65 C 2.93333 km/h
2977 04-04-2020 01:00:00 4.69167 C 4.73 g/m*3 4.69 C 3.2 km/h
2978 04-04-2020 02:00:00 2.50833 C 4.59 g/m*3 2.51 C 0.13333 km/h
2979 04-04-2020 03:00:00 1.41667 C 4.51 g/m*3 1.42 C 0.8 km/h
2980 04-04-2020 04:00:00 0.46667 C 4.34 g/m*3 0.47 C 0.13333 km/h
2981 04-04-2020 05:00:00 -0.05 C 4.28 g/m*3 -0.05 C 0.26667 km/h
2982 04-04-2020 06:00:00 -0.41667 C 4.21 g/m*3 -0.42 C 0.8 km/h
2983 04-04-2020 07:00:00 -0.76667 C 4.15 g/m*3 -0.77 C 0.13333 km/h
2984 04-04-2020 08:00:00 -0.50833 C 4.29 g/m*3 -0.51 C 0.13333 km/h
2985 04-04-2020 09:00:00 0.55833 C 4.59 g/m*3 0.56 C 0.8 km/h
2986 04-04-2020 10:00:00 2.78333 C 5.18 g/m*3 2.78 C 0 km/h
2987 04-04-2020 11:00:00 6.91667 C 5.66 g/m*3 6.92 C 2.54167 km/h
2988 04-04-2020 12:00:00 9.94167 C 5.38 g/m*3 9.16 C 6.98333 km/h
2989 04-04-2020 13:00:00 11.425 C 5.34 g/m*3 11.43 C 10.35833 km/h
2990 04-04-2020 14:00:00 12.76667 C 5.27 g/m*3 12.77 C 13.43333 km/h
2991 04-04-2020 15:00:00 13.55833 C 5.32 g/m*3 13.56 C 12.35833 km/h
2992 04-04-2020 16:00:00 14.85833 C 5.41 g/m*3 14.86 C 10.49167 km/h
2993 04-04-2020 17:00:00 15.90833 C 5.65 g/m*3 15.91 C 9.29167 km/h
2994 04-04-2020 18:00:00 16.275 C 5.97 g/m*3 16.27 C 9.54167 km/h
2995 04-04-2020 19:00:00 15.125 C 6.19 g/m*3 15.13 C 4.81667 km/h
2996 04-04-2020 20:00:00 10.55833 C 5.94 g/m*3 10.11 C 6 km/h
2997 04-04-2020 21:00:00 8.21667 C 5.54 g/m*3 8.22 C 4.675 km/h
2998 04-04-2020 22:00:00 6.325 C 5.38 g/m*3 6.33 C 0.26667 km/h
2999 04-04-2020 23:00:00 4.74167 C 5.09 g/m*3 4.74 C 0 km/h
3000 05-04-2020 00:00:00 3.59167 C 4.98 g/m*3 3.59 C 0 km/h
Sensor: Nr:Datum:Temp:Abs-Feuchte:Windchill:Wind:
Aussen-T/F 3001 05-04-2020 01:00:00 2.9 C 4.96 g/m*3 2.9 C 0 km/h
3002 05-04-2020 02:00:00 2.31667 C 4.9 g/m*3 2.32 C 0.26667 km/h
3003 05-04-2020 03:00:00 1.81667 C 4.82 g/m*3 1.82 C 0.26667 km/h
3004 05-04-2020 04:00:00 1.28333 C 4.75 g/m*3 1.28 C 0 km/h
3005 05-04-2020 05:00:00 0.73333 C 4.63 g/m*3 0.73 C 0 km/h
3006 05-04-2020 06:00:00 0.36667 C 4.58 g/m*3 0.37 C 0 km/h
3007 05-04-2020 07:00:00 0.325 C 4.61 g/m*3 0.33 C 0 km/h
3008 05-04-2020 08:00:00 0.925 C 4.85 g/m*3 0.93 C 0 km/h
3009 05-04-2020 09:00:00 2.525 C 5.44 g/m*3 2.53 C 0 km/h
3010 05-04-2020 10:00:00 5.60833 C 6.31 g/m*3 5.61 C 0 km/h
3011 05-04-2020 11:00:00 11.425 C 6.61 g/m*3 11.43 C 5.36667 km/h
3012 05-04-2020 12:00:00 16.28333 C 5.52 g/m*3 16.28 C 11.825 km/h
3013 05-04-2020 13:00:00 17.225 C 5.45 g/m*3 17.23 C 12.5 km/h
3014 05-04-2020 14:00:00 18.21667 C 5.55 g/m*3 18.22 C 14.36667 km/h
3015 05-04-2020 15:00:00 18.91667 C 5.46 g/m*3 18.92 C 9.39167 km/h
3016 05-04-2020 16:00:00 19.7 C 5.52 g/m*3 19.7 C 14.23333 km/h
3017 05-04-2020 17:00:00 20.9 C 5.6 g/m*3 20.9 C 10.08333 km/h
3018 05-04-2020 18:00:00 20.60833 C 5.55 g/m*3 20.61 C 9.28333 km/h
3019 05-04-2020 19:00:00 19.36667 C 5.88 g/m*3 19.37 C 4.275 km/h
3020 05-04-2020 20:00:00 13.875 C 5.99 g/m*3 13.88 C 6 km/h
3021 05-04-2020 21:00:00 11.36667 C 5.91 g/m*3 11.37 C 5.86667 km/h
3022 05-04-2020 22:00:00 9.58333 C 5.76 g/m*3 9.58 C 2.53333 km/h
3023 05-04-2020 23:00:00 8.01667 C 5.7 g/m*3 8.02 C 0.13333 km/h
3024 06-04-2020 00:00:00 6.9 C 5.61 g/m*3 6.9 C 0 km/h
3025 06-04-2020 01:00:00 5.84167 C 5.56 g/m*3 5.84 C 0 km/h
Sensor: Nr:Datum:Temp:Abs-Feuchte:Windchill:Wind:
Aussen-T/F 3026 06-04-2020 02:00:00 4.94167 C 5.45 g/m*3 4.94 C 0 km/h
3027 06-04-2020 03:00:00 4.16667 C 5.32 g/m*3 4.17 C 0 km/h
3028 06-04-2020 04:00:00 3.625 C 5.23 g/m*3 3.63 C 0 km/h
3029 06-04-2020 05:00:00 2.99167 C 5.14 g/m*3 2.99 C 0 km/h
3030 06-04-2020 06:00:00 2.26667 C 5 g/m*3 2.27 C 0 km/h
3031 06-04-2020 07:00:00 2.375 C 5.14 g/m*3 2.38 C 0 km/h
3032 06-04-2020 08:00:00 3.25833 C 5.44 g/m*3 3.26 C 0.13333 km/h
3033 06-04-2020 09:00:00 4.5 C 5.78 g/m*3 4.5 C 0.13333 km/h
3034 06-04-2020 10:00:00 7.48333 C 6.5 g/m*3 7.48 C 0.26667 km/h
3035 06-04-2020 11:00:00 14.03333 C 6.7 g/m*3 14.03 C 7.65 km/h
3036 06-04-2020 12:00:00 18.70833 C 5.85 g/m*3 18.71 C 12.63333 km/h
3037 06-04-2020 13:00:00 20.18333 C 6.06 g/m*3 20.18 C 9.55833 km/h
3038 06-04-2020 14:00:00 21.85833 C 6.06 g/m*3 21.86 C 10.89167 km/h
3039 06-04-2020 15:00:00 22.68333 C 5.03 g/m*3 22.68 C 18.23333 km/h
3040 06-04-2020 16:00:00 23.78333 C 5.52 g/m*3 23.78 C 11.68333 km/h
3041 06-04-2020 17:00:00 23.825 C 5.82 g/m*3 23.83 C 15.3 km/h
3042 06-04-2020 18:00:00 23.45833 C 5.57 g/m*3 23.46 C 13.03333 km/h
3043 06-04-2020 19:00:00 21.58333 C 6.13 g/m*3 21.58 C 6.56667 km/h
3044 06-04-2020 20:00:00 16.28333 C 6.48 g/m*3 16.28 C 5.73333 km/h
3045 06-04-2020 21:00:00 13.21667 C 6.46 g/m*3 13.22 C 2.26667 km/h
3046 06-04-2020 22:00:00 11.06667 C 6.32 g/m*3 11.07 C 0.8 km/h
3047 06-04-2020 23:00:00 10.00833 C 6.15 g/m*3 10.01 C 1.60833 km/h
3048 07-04-2020 00:00:00 9.56667 C 6.36 g/m*3 9.57 C 1.875 km/h
3049 07-04-2020 01:00:00 9.68333 C 6.57 g/m*3 9.68 C 1.46667 km/h
3050 07-04-2020 02:00:00 9.24167 C 6.56 g/m*3 9.24 C 0.26667 km/h
Sensor: Nr:Datum:Temp:Abs-Feuchte:Windchill:Wind:
Aussen-T/F 3051 07-04-2020 03:00:00 8.15 C 6.66 g/m*3 8.15 C 0.13333 km/h
3052 07-04-2020 04:00:00 7.98333 C 6.68 g/m*3 7.98 C 0 km/h
3053 07-04-2020 05:00:00 6.725 C 6.42 g/m*3 6.73 C 0 km/h
3054 07-04-2020 06:00:00 5.975 C 6.32 g/m*3 5.98 C 0 km/h
3055 07-04-2020 07:00:00 5.65833 C 6.39 g/m*3 5.66 C 0 km/h
3056 07-04-2020 08:00:00 6.50833 C 6.73 g/m*3 6.51 C 0.26667 km/h
3057 07-04-2020 09:00:00 7.83333 C 7.32 g/m*3 7.83 C 0 km/h
3058 07-04-2020 10:00:00 10.73333 C 8.39 g/m*3 10.73 C 0 km/h
3059 07-04-2020 11:00:00 14.89167 C 9.14 g/m*3 14.89 C 1.86667 km/h
3060 07-04-2020 12:00:00 17.65833 C 9.23 g/m*3 17.66 C 4.13333 km/h
3061 07-04-2020 13:00:00 19.4 C 9.13 g/m*3 19.4 C 5.88333 km/h
3062 07-04-2020 14:00:00 20.875 C 8.99 g/m*3 20.88 C 8.06667 km/h
3063 07-04-2020 15:00:00 21.86667 C 8.73 g/m*3 21.87 C 10.09167 km/h
3064 07-04-2020 16:00:00 22.43333 C 8.39 g/m*3 22.43 C 7.50833 km/h
3065 07-04-2020 17:00:00 23.35833 C 7.69 g/m*3 23.36 C 6.025 km/h
3066 07-04-2020 18:00:00 23.46667 C 7.72 g/m*3 23.47 C 6.58333 km/h
3067 07-04-2020 19:00:00 21.05 C 8.37 g/m*3 21.05 C 4 km/h
3068 07-04-2020 20:00:00 16.79167 C 8.03 g/m*3 16.79 C 5.74167 km/h
3069 07-04-2020 21:00:00 14.95833 C 8.2 g/m*3 14.96 C 5.73333 km/h
3070 07-04-2020 22:00:00 13.575 C 8.25 g/m*3 13.58 C 2.93333 km/h
3071 07-04-2020 23:00:00 12.94167 C 8.36 g/m*3 12.94 C 3.33333 km/h
3072 08-04-2020 00:00:00 12.11667 C 8.36 g/m*3 12.12 C 3.33333 km/h
3073 08-04-2020 01:00:00 10.99167 C 8.15 g/m*3 10.99 C 1.2 km/h
3074 08-04-2020 02:00:00 9.44167 C 7.72 g/m*3 9.44 C 0 km/h
3075 08-04-2020 03:00:00 7.95 C 7.33 g/m*3 7.95 C 0 km/h
Sensor: Nr:Datum:Temp:Abs-Feuchte:Windchill:Wind:
Aussen-T/F 3076 08-04-2020 04:00:00 7.175 C 7.16 g/m*3 7.18 C 0 km/h
3077 08-04-2020 05:00:00 6.48333 C 6.93 g/m*3 6.48 C 0 km/h
3078 08-04-2020 06:00:00 5.95 C 6.76 g/m*3 5.95 C 0 km/h
3079 08-04-2020 07:00:00 5.85833 C 6.79 g/m*3 5.86 C 0.13333 km/h
3080 08-04-2020 08:00:00 6.64167 C 7.21 g/m*3 6.64 C 0 km/h
3081 08-04-2020 09:00:00 7.875 C 7.87 g/m*3 7.88 C 0 km/h
3082 08-04-2020 10:00:00 10.2 C 9 g/m*3 10.2 C 0 km/h
3083 08-04-2020 11:00:00 14.9 C 10.07 g/m*3 14.9 C 0.26667 km/h
3084 08-04-2020 12:00:00 19.86667 C 8.9 g/m*3 19.87 C 3.48333 km/h
3085 08-04-2020 13:00:00 21.76667 C 6.78 g/m*3 21.77 C 7.78333 km/h
3086 08-04-2020 14:00:00 22.86667 C 5.86 g/m*3 22.87 C 7.79167 km/h
3087 08-04-2020 15:00:00 23.1 C 6.2 g/m*3 23.1 C 8.875 km/h
3088 08-04-2020 16:00:00 24.20833 C 6.02 g/m*3 24.21 C 6.16667 km/h
3089 08-04-2020 17:00:00 25.29167 C 5.87 g/m*3 25.29 C 6.575 km/h
3090 08-04-2020 18:00:00 25.375 C 6.21 g/m*3 25.38 C 4.40833 km/h
3091 08-04-2020 19:00:00 22.95833 C 7.23 g/m*3 22.96 C 2.53333 km/h
3092 08-04-2020 20:00:00 17.6 C 7.02 g/m*3 17.6 C 4.93333 km/h
3093 08-04-2020 21:00:00 14.65 C 7 g/m*3 14.65 C 2.4 km/h
3094 08-04-2020 22:00:00 12.70833 C 6.98 g/m*3 12.71 C 0.26667 km/h
3095 08-04-2020 23:00:00 11.65833 C 6.95 g/m*3 11.66 C 0.66667 km/h
3096 09-04-2020 00:00:00 11.4 C 6.99 g/m*3 11.4 C 0.93333 km/h
3097 09-04-2020 01:00:00 10.33333 C 7.07 g/m*3 10.33 C 1.33333 km/h
3098 09-04-2020 02:00:00 9.40833 C 7.01 g/m*3 9.41 C 0 km/h
3099 09-04-2020 03:00:00 9.68333 C 7.16 g/m*3 9.68 C 2.275 km/h
3100 09-04-2020 04:00:00 9.98333 C 7.35 g/m*3 9.98 C 3.075 km/h
Sensor: Nr:Datum:Temp:Abs-Feuchte:Windchill:Wind:
Aussen-T/F 3101 09-04-2020 05:00:00 9.06667 C 7.14 g/m*3 9.07 C 0 km/h
3102 09-04-2020 06:00:00 7.90833 C 6.89 g/m*3 7.91 C 0 km/h
3103 09-04-2020 07:00:00 7.55833 C 6.94 g/m*3 7.56 C 0 km/h
3104 09-04-2020 08:00:00 7.91667 C 7.22 g/m*3 7.92 C 0.13333 km/h
3105 09-04-2020 09:00:00 9.25833 C 7.8 g/m*3 9.26 C 0 km/h
3106 09-04-2020 10:00:00 11.775 C 8.55 g/m*3 11.78 C 0 km/h
3107 09-04-2020 11:00:00 16.34167 C 8.89 g/m*3 16.34 C 0.4 km/h
3108 09-04-2020 12:00:00 19.93333 C 8.94 g/m*3 19.93 C 2.13333 km/h
3109 09-04-2020 13:00:00 21.825 C 8.34 g/m*3 21.83 C 5.63333 km/h
3110 09-04-2020 14:00:00 23.09167 C 7.27 g/m*3 23.09 C 6.84167 km/h
3111 09-04-2020 15:00:00 23.71667 C 7.32 g/m*3 23.72 C 11.425 km/h
3112 09-04-2020 16:00:00 24.3 C 7.47 g/m*3 24.3 C 11.28333 km/h
3113 09-04-2020 17:00:00 24.7 C 7.49 g/m*3 24.7 C 11.3 km/h
3114 09-04-2020 18:00:00 24.00833 C 7.76 g/m*3 24.01 C 11.56667 km/h
3115 09-04-2020 19:00:00 22.30833 C 8 g/m*3 22.31 C 7.53333 km/h
3116 09-04-2020 20:00:00 18.3 C 8.42 g/m*3 18.3 C 3.06667 km/h
3117 09-04-2020 21:00:00 15.94167 C 8.33 g/m*3 15.94 C 2.26667 km/h
3118 09-04-2020 22:00:00 14.73333 C 8.27 g/m*3 14.73 C 3.46667 km/h
3119 09-04-2020 23:00:00 13.50833 C 8.16 g/m*3 13.51 C 2.66667 km/h
3120 10-04-2020 00:00:00 12.04167 C 8 g/m*3 12.04 C 2 km/h
3121 10-04-2020 01:00:00 10.34167 C 7.72 g/m*3 10.34 C 0 km/h
3122 10-04-2020 02:00:00 9.29167 C 7.48 g/m*3 9.29 C 0 km/h
3123 10-04-2020 03:00:00 8.3 C 7.23 g/m*3 8.3 C 0 km/h
3124 10-04-2020 04:00:00 7.45 C 7.02 g/m*3 7.45 C 0 km/h
3125 10-04-2020 05:00:00 6.94167 C 6.93 g/m*3 6.94 C 0 km/h
Sensor: Nr:Datum:Temp:Abs-Feuchte:Windchill:Wind:
Aussen-T/F 3126 10-04-2020 06:00:00 6.30833 C 6.75 g/m*3 6.31 C 0 km/h
3127 10-04-2020 07:00:00 6.05 C 6.74 g/m*3 6.05 C 0.13333 km/h
3128 10-04-2020 08:00:00 6.525 C 7.03 g/m*3 6.53 C 0 km/h
3129 10-04-2020 09:00:00 7.91667 C 7.7 g/m*3 7.92 C 0 km/h
3130 10-04-2020 10:00:00 10.53333 C 8.57 g/m*3 10.53 C 0.8 km/h
3131 10-04-2020 11:00:00 15.09167 C 9.26 g/m*3 15.09 C 2 km/h
3132 10-04-2020 12:00:00 18.73333 C 8.33 g/m*3 18.73 C 6.575 km/h
3133 10-04-2020 13:00:00 20.01667 C 7.8 g/m*3 20.02 C 8.73333 km/h
3134 10-04-2020 14:00:00 21.06667 C 7.51 g/m*3 21.07 C 7.38333 km/h
3135 10-04-2020 15:00:00 21.975 C 6.93 g/m*3 21.98 C 6.84167 km/h
3136 10-04-2020 16:00:00 23.04167 C 7.55 g/m*3 23.04 C 8.06667 km/h
3137 10-04-2020 17:00:00 24 C 7.36 g/m*3 24 C 9.41667 km/h
3138 10-04-2020 18:00:00 23.1 C 7.36 g/m*3 23.1 C 10.9 km/h
3139 10-04-2020 19:00:00 21.46667 C 7.23 g/m*3 21.47 C 10.76667 km/h
3140 10-04-2020 20:00:00 17.7 C 7.72 g/m*3 17.7 C 2.4 km/h
3141 10-04-2020 21:00:00 14.525 C 7.54 g/m*3 14.53 C 2.66667 km/h
3142 10-04-2020 22:00:00 14.05 C 7.71 g/m*3 14.05 C 2 km/h
3143 10-04-2020 23:00:00 12.80833 C 7.4 g/m*3 12.81 C 2.66667 km/h
3144 11-04-2020 00:00:00 11.16667 C 7.24 g/m*3 11.17 C 2.4 km/h
3145 11-04-2020 01:00:00 10 C 6.87 g/m*3 10 C 0.13333 km/h
3146 11-04-2020 02:00:00 8.975 C 6.52 g/m*3 8.98 C 1.73333 km/h
3147 11-04-2020 03:00:00 8.5 C 6.08 g/m*3 8.5 C 3.86667 km/h
3148 11-04-2020 04:00:00 7.86667 C 5.72 g/m*3 7.87 C 4.26667 km/h
<